[[{"header":{"parameterUnit":"m.s-1","parameterCategory":1,"la1":31.0,"la2":29.5877,"lo1":-88.7671,"lo2":-86.6584,"dy":0.0162,"dx":0.0185,"nx":115,"ny":88,"refTime":"2024-06-18T12:00:00:Z","depth":0,"parameterNumber":2,"parameterNumberName":"U-component_of_WINDS"},"data":[0.0,0.0,0.0,0.0,0.0,0.0,0.0,0.0,0.0,0.0,0.0,0.0,0.0,0.0,0.0,0.0,0.0,0.0,0.0,0.0,0.0,0.0,0.0,0.0,0.0,0.0,0.0,0.0,0.0,0.0,0.0,0.0,0.0,0.0,0.0,0.0,0.0,0.0,0.0,0.0,0.0,0.0,0.0,0.0,0.0,0.0,0.0,0.0,0.0,0.0,0.0,0.0,0.0,0.0,0.0,0.0,0.0,0.0,0.0,0.0,0.0,0.0,0.0,0.0,0.0,0.0,0.0,0.0,0.0,0.0,0.0,0.0,0.0,0.0,0.0,0.0,0.0,0.0,0.0,0.0,0.0,0.0,0.0,0.0,0.0,0.0,0.0,0.0,0.0,0.0,0.0,0.0,0.0,0.0,0.0,0.0,0.0,0.0,0.0,0.0,0.0,0.0,0.0,0.0,0.0,0.0,0.0,0.0,0.0,0.0,0.0,0.0,0.0,0.0,0.0,0.0,0.0,0.0,0.0,0.0,0.0,0.0,0.0,0.0,0.0,0.0,0.0,0.0,0.0,0.0,0.0,0.0,0.0,0.0,0.0,0.0,0.0,0.0,0.0,0.0,0.0,0.0,0.0,0.0,0.0,0.0,0.0,0.0,0.0,0.0,0.0,0.0,0.0,0.0,0.0,0.0,0.0,0.0,0.0,0.0,0.0,0.0,0.0,0.0,0.0,0.0,0.0,0.0,0.0,0.0,0.0,0.0,0.0,0.0,0.0,0.0,0.0,0.0,0.0,0.0,0.0,0.0,0.0,0.0,0.0,0.0,0.0,0.0,0.0,0.0,0.0,0.0,0.0,0.0,0.0,0.0,0.0,0.0,0.0,0.0,0.0,0.0,0.0,0.0,0.0,0.0,0.0,0.0,0.0,0.0,0.0,0.0,0.0,0.0,0.0,0.0,0.0,0.0,0.0,0.0,0.0,0.0,0.0,0.0,0.0,0.0,0.0,0.0,0.0,0.0,0.0,0.0,0.0,0.0,0.0,0.0,0.0,0.0,0.0,0.0,0.0,0.0,0.0,0.0,0.0,0.0,0.0,0.0,0.0,0.0,0.0,0.0,0.0,0.0,0.0,0.0,0.0,0.0,0.0,0.0,0.0,0.0,0.0,0.0,0.0,0.0,0.0,0.0,0.0,0.0,0.0,0.0,0.0,0.0,0.0,0.0,0.0,0.0,0.0,0.0,0.0,0.0,0.0,0.0,0.0,0.0,0.0,0.0,0.0,0.0,0.0,0.0,0.0,0.0,0.0,0.0,0.0,0.0,0.0,0.0,0.0,0.0,0.0,0.0,0.0,0.0,0.0,0.0,0.0,0.0,0.0,0.0,0.0,0.0,0.0,0.0,0.0,0.0,0.0,0.0,0.0,0.0,0.0,0.0,0.0,0.0,0.0,0.0,0.0,0.0,0.0,0.0,0.0,0.0,0.0,0.0,0.0,0.0,0.0,0.0,0.0,0.0,0.0,0.0,0.0,0.0,0.0,0.0,0.0,0.0,0.0,0.0,0.0,0.0,0.0,0.0,0.0,0.0,0.0,0.0,0.0,0.0,0.0,0.0,0.0,0.0,0.0,0.0,0.0,0.0,0.0,0.0,0.0,0.0,0.0,0.0,0.0,0.0,0.0,0.0,0.0,0.0,0.0,0.0,0.0,0.0,0.0,0.0,0.0,0.0,0.0,0.0,0.0,0.0,0.0,0.0,0.0,0.0,0.0,0.0,0.0,0.0,0.0,0.0,0.0,0.0,0.0,0.0,0.0,0.0,0.0,0.0,0.0,0.0,0.0,0.0,0.0,0.0,0.0,0.0,0.0,0.0,0.0,0.0,0.0,0.0,0.0,0.0,0.0,0.0,0.0,0.0,0.0,0.0,0.0,0.0,0.0,0.0,0.0,0.0,0.0,0.0,0.0,0.0,0.0,0.0,0.0,0.0,0.0,0.0,0.0,0.0,0.0,0.0,0.0,0.0,0.0,0.0,0.0,0.0,0.0,0.0,0.0,0.0,0.0,0.0,0.0,0.0,0.0,0.0,0.0,0.0,0.0,0.0,0.0,0.0,0.0,0.0,0.0,0.0,0.0,0.0,0.0,0.0,0.0,0.0,0.0,0.0,0.0,0.0,0.0,0.0,0.0,0.0,0.0,0.0,0.0,0.0,0.0,0.0,0.0,0.0,0.0,0.0,0.0,0.0,0.0,0.0,0.0,0.0,0.0,0.0,0.0,0.0,0.0,0.0,0.0,0.0,0.0,0.0,0.0,0.0,0.0,0.0,0.0,0.0,0.0,0.0,0.0,0.0,0.0,0.0,0.0,0.0,0.0,0.0,0.0,0.0,0.0,0.0,0.0,0.0,0.0,0.0,0.0,0.0,0.0,0.0,0.0,0.0,0.0,0.0,0.0,0.0,0.0,0.0,0.0,0.0,0.0,0.0,0.0,0.0,0.0,0.0,0.0,0.0,0.0,0.0,0.0,0.0,0.0,0.0,0.0,0.0,0.0,0.0,0.0,0.0,0.0,0.0,0.0,0.0,0.0,0.0,0.0,0.0,0.0,0.0,0.0,0.0,0.0,0.0,0.0,0.0,0.0,0.0,0.0,0.0,0.0,0.0,0.0,0.0,0.0,0.0,0.0,0.0,0.0,0.0,0.0,0.0,0.0,0.0,0.0,0.0,0.0,0.0,0.0,0.0,0.0,0.0,0.0,0.0,0.0,0.0,0.0,0.0,0.0,0.0,0.0,0.0,0.0,0.0,0.0,0.0,0.0,0.0,0.0,0.0,0.0,0.0,0.0,0.0,0.0,0.0,0.0,0.0,0.0,0.0,0.0,0.0,0.0,0.0,0.0,0.0,0.0,0.0,0.0,0.0,0.0,0.0,0.0,0.0,0.0,0.0,0.0,0.0,0.0,0.0,0.0,0.0,0.0,0.0,0.0,0.0,0.0,0.0,0.0,0.0,0.0,0.0,0.0,0.0,0.0,0.0,0.0,0.0,0.0,0.0,0.0,0.0,0.0,0.0,0.0,0.0,0.0,0.0,0.0,0.0,0.0,0.0,0.0,0.0,0.0,0.0,0.0,0.0,0.0,0.0,0.0,0.0,0.0,0.0,0.0,0.0,0.0,0.0,0.0,0.0,0.0,0.0,0.0,0.0,0.0,0.0,0.0,0.0,0.0,0.0,0.0,0.0,0.0,0.0,0.0,0.0,0.0,0.0,0.0,0.0,0.0,0.0,0.0,0.0,0.0,0.0,0.0,0.0,0.0,0.0,0.0,0.0,0.0,0.0,0.0,0.0,0.0,0.0,0.0,0.0,0.0,0.0,0.0,0.0,0.0,0.0,0.0,0.0,0.0,0.0,0.0,0.0,0.0,0.0,0.0,0.0,0.0,0.0,0.0,0.0,0.0,0.0,0.0,0.0,0.0,0.0,0.0,0.0,0.0,0.0,0.0,0.0,0.0,0.0,0.0,0.0,0.0,0.0,0.0,0.0,0.0,0.0,0.0,0.0,0.0,0.0,0.0,0.0,0.0,0.0,0.0,0.0,0.0,0.0,0.0,0.0,0.0,0.0,0.0,0.0,0.0,0.0,0.0,0.0,0.0,0.0,0.0,0.0,0.0,0.0,0.0,0.0,0.0,0.0,0.0,0.0,0.0,0.0,0.0,0.0,0.0,0.0,0.0,0.0,0.0,0.0,0.0,0.0,0.0,0.0,0.0,0.0,0.0,0.0,0.0,0.0,0.0,0.0,0.0,0.0,0.0,0.0,0.0,0.0,0.0,0.0,0.0,0.0,0.0,0.0,0.0,0.0,0.0,0.0,0.0,0.0,0.0,0.0,0.0,0.0,0.0,0.0,0.0,0.0,0.0,0.0,0.0,0.0,0.0,0.0,0.0,0.0,0.0,0.0,0.0,0.0,0.0,0.0,0.0,0.0,0.0,0.0,0.0,0.0,0.0,0.0,0.0,0.0,0.0,0.0,0.0,0.0,0.0,0.0,0.0,0.0,0.0,0.0,0.0,0.0,0.0,0.0,0.0,0.0,0.0,0.0,0.0,0.0,0.0,0.0,0.0,0.0,0.0,0.0,0.0,0.0,0.0,0.0,0.0,0.0,0.0,0.0,0.0,0.0,0.0,0.0,0.0,0.0,0.0,0.0,0.0,0.0,0.0,0.0,0.0,0.0,0.0,0.0,0.0,0.0,0.0,0.0,0.0,0.0,0.0,0.0,0.0,0.0,0.2067,0.0,0.0,0.0,0.0,0.0,0.0,0.0,0.0,0.0,0.0,0.0,0.0,0.0,0.0,0.0,0.0,0.0,0.0,0.0,0.0,0.0,0.0,0.0,0.0,0.0,0.0,0.0,0.0,0.0,0.0,0.0,0.0,0.0,0.0,0.0,0.0,0.0,0.0,0.0,0.0,0.0,0.0,0.0,0.0,0.0,0.0,0.0,0.0,0.0,0.0,0.0,0.0,0.0,0.0,0.0,0.0,0.0,0.0,0.0,0.0,0.0,0.0,0.0,0.0,0.0,0.0,0.0,0.0,0.0,0.0,0.0,0.0,0.0,0.0,0.0,0.0,0.0,0.0,0.0,0.0,0.0,0.0,0.0,0.0,0.0,0.0,0.0,0.0,0.0,0.0,0.0,0.0,0.0,0.0,0.0,0.0,0.0,0.0,0.0,0.0,0.0,0.0,0.0,0.0,0.0,0.0,0.0,0.0,0.0,0.0,0.1212,0.154,0.1323,0.119,0.1137,0.0,0.0,0.0,0.0,0.0,0.0,0.0,0.0,0.0,0.0,0.0,0.0,0.0,0.0,0.0,0.0,0.0,0.0,0.0,0.0,0.0,0.0,0.0,0.0,0.0,0.0,0.0,0.0,0.0,0.0,0.0,0.0,0.0,0.0,0.0,0.0,0.0,0.0,0.0,0.0,0.0,0.0,0.0,0.0,0.0,0.0,0.0,0.0,0.0,0.0,0.0,0.0,0.0,0.0,0.0,0.0,0.0,0.0,0.0,0.0,0.0,0.0,0.0,0.0,0.0,0.0,0.0,0.0,0.0,0.0,0.0,0.0,0.0,0.0,0.0,0.0,0.0,0.0,0.0,0.0,0.0,0.0,0.0,0.0,0.0,0.0,0.0,0.0,0.0,0.0,0.0,0.0,0.0,0.0,0.0,0.0,0.0,0.0,0.0,0.0,0.0,0.0,0.0,0.0,0.0,0.0,0.0,0.0,0.0,0.0,0.0,0.0,0.0512,0.0534,0.0482,0.0,0.0,0.0,0.0,0.0,0.0,0.0,0.0,0.0,0.0,0.0,0.0,0.0,0.0,0.0,0.0,0.0,0.0,0.0,0.0,0.0,0.0,0.0,0.0,0.0,0.0,0.0,0.0,0.0,0.0,0.0,0.0,0.0,0.0,0.0,0.0,0.0,0.0,0.0,0.0,0.0,0.0,0.0,0.0,0.0,0.0,0.0,0.0,0.0,0.0,0.0,0.0,0.0,0.0,0.0,0.0,0.0,0.0,0.0,0.0,0.0,0.0,0.0,0.0,0.0,0.0,0.0,0.0,0.0,0.0,0.0,0.0,0.0,0.0,0.0,0.0,0.0,0.0,0.0,0.0,0.0,0.0,0.0,0.0,0.0,0.0,0.0,0.0,0.0,0.0,0.0,0.0,0.0,0.0,0.0,0.0,0.0,0.0,0.0,0.0,0.0,0.0,0.0,0.0,0.0,0.0,0.0,0.0,0.0,0.0,0.0057,0.0062,0.0245,0.0,0.0491,0.0,0.0,0.0,0.0,0.0,0.0,0.0,0.0,0.0,0.0,0.0,0.0,0.0,0.0,0.0,0.0,0.0,0.0,0.0,0.0,0.0,0.0,0.0,0.0,0.0,0.0,0.0,0.0,0.0,0.0,0.0,0.0,0.0,0.0,0.0,0.0,0.0,0.0,0.0,0.0,0.0,0.0,0.0,0.0,0.0,0.0,0.0,0.0,0.0,0.0,0.0,0.0,0.0,0.0,0.0,0.0,0.0,0.0,0.0,0.0,0.0,0.0,0.0,0.0,0.0,0.0,0.0,0.0,0.0,0.0,0.0,0.0,0.0,0.0,0.0,0.0,0.0,0.0,0.0,0.0,0.0,0.0,0.0,0.0,0.0,0.0,0.0,0.0,0.0,0.0,0.0,0.0,0.0,0.0,0.0,0.0,0.0,0.0,0.0,0.0,0.0,0.0,0.0,0.0,0.0,0.0,0.0,0.0,0.0,0.0,0.0,0.0,0.0081,0.0137,0.0,0.0,0.0,0.0,0.0,0.0,0.0,0.0,0.0,0.0,0.0,0.0,0.0,0.0,0.0,0.0,0.0,0.0,0.0,0.0,0.0,0.0,0.0,0.0,0.0,0.0,0.0,0.0,0.0,0.0,0.0,0.0,0.0,0.0,0.0,0.0,0.0,0.0,0.0,0.0,0.0,0.0,0.0,0.0,0.0,0.0,0.0,0.0,0.0,0.0,0.0,0.0,0.0,0.0,0.0,0.0,0.0,0.0,0.0,0.0,0.0,0.0,0.0,0.0,0.0,0.0,0.0,0.0,0.0,0.0,0.0,0.0,0.0,0.0,0.0,0.0,0.0,0.0,0.0,0.0,0.0,0.0,0.0,0.0,0.0,0.0,0.0,0.0,0.0,0.0,0.0,0.0,0.0,0.0,0.0,0.0,0.0,0.0,0.0,0.0,0.0,0.0,0.0,0.0,0.0,0.0,0.0,0.0,0.0,0.0,0.0,0.0,0.0,0.0,0.0,0.0,0.0,0.0,0.0,0.0,0.0,0.0,0.0,0.0,0.0,0.0,0.0,0.0,0.0,0.0,0.0,0.0,0.0,0.0,0.0,0.0,0.0,0.0,0.0,0.0,0.0,0.0,0.0,0.0,0.0,0.0,0.0,0.0,0.0,0.0,0.0,0.0,0.0,0.0,0.0,0.0,0.0,0.0,0.0,0.0,0.0,0.0,0.0,0.0,0.0,0.0,0.0,0.0,0.0,0.0,0.0,0.0,0.0,0.0,0.0,0.0,0.0,0.0,0.0,0.0,0.0,0.0,0.0,0.0,0.0,0.0,0.0,0.0,0.0,0.0,0.0,0.0,0.0,0.0,0.0,0.0,0.0,0.0,0.0,0.0,0.0,0.0,0.0,0.0,0.0,0.0,0.0,0.0,0.0,0.0,0.0,0.0,0.0,0.0,0.0,0.0,0.0,0.0,0.0,0.0,0.0,0.0,0.0,0.0,0.0,0.0,0.0,0.0,0.0,0.0,0.0,0.0,0.0,0.0,0.0,0.0,0.0,0.0,0.0,0.0,0.0,0.0,0.0,0.0,0.0,0.0,0.0,0.0,0.0,0.0,0.0,0.0,0.0,0.0,0.0,0.0,0.0,0.0,0.0,0.0,0.0,0.0,0.0,0.0,0.0,0.0,0.0,0.0,0.0,0.0,0.0,0.0,0.0,0.0,0.0,0.0,0.0,0.0,0.0,0.0,0.0,0.0,0.0,0.0,0.0,0.0,0.0,0.0,0.0,0.0,0.0,0.0,0.0,0.0,0.0,0.0,0.0,0.0,0.0,0.0,0.0,0.0,0.0,0.0,0.0,0.0,0.0,0.0,0.0,0.0,0.0,0.0,0.0,0.0,0.0,0.0,0.0,0.0,0.0,0.0,0.0,0.0,0.0,0.0,0.0,0.0,0.0,0.0,0.0,0.0,0.0,0.0,0.0,0.0,0.0,0.0,0.0,0.0,0.0,0.0,0.0,0.0,0.0,0.0,0.0,0.0,0.0,0.0,0.0,0.0,0.0,0.0,0.0,0.0,0.0,0.0,0.0,0.0,0.0,0.0,0.0,0.0,0.0,0.0,0.0,0.0,0.0,0.0,0.0,0.0,0.0,0.0,0.0,0.0,0.0,0.0,0.0,0.0,0.0,0.0,0.0,0.0,0.0,0.0,0.0,0.0,0.0,0.0,0.0,0.0,0.0,0.0,0.0,0.0,0.0,0.0,0.0,0.0,0.0,0.0,0.0,0.0,0.0,0.0,0.0,0.0,0.0,0.0,0.0,0.0,0.0,0.0,0.0,0.0,0.0,0.0,0.0,0.0,0.0,0.0,0.0,0.0,0.0,0.0,0.0,0.0,0.0,0.0,0.0,0.0,0.0,0.0,0.0,0.0,0.0,0.0,0.0,0.0,0.0,0.0,0.0,0.0,0.0,0.0,0.0,0.0,0.0,0.0,0.0,0.0,0.0,0.0,0.0,0.0,0.0,0.0,0.0,0.0,0.0,0.0,0.0,0.0,0.0,0.0,0.0,0.0,0.0,0.0,0.0,0.0,0.0,0.0,0.0,0.0,0.0,0.0,0.0,0.0,0.0,0.0,0.0,0.0,0.0,0.0,0.0,0.0,0.0,0.0,0.0,0.0,0.0,0.0,0.0,0.0,0.0,0.0,0.0,0.0,0.0,0.0,0.0,0.0,0.0,0.0,0.0,0.0,0.0,0.0,0.0,0.0,0.0,0.0,0.0,0.0,0.0,0.0,0.0,0.0,0.0,0.0,0.0,0.0,0.0,0.0,0.0,0.0,0.0,0.0,0.0,0.0,0.0,0.0,0.0,0.0,0.0,0.0,0.0,0.0,0.0,0.0,0.0,0.0,0.0,0.0,0.0,0.0,0.0,0.0,0.0,0.0,0.0,0.0,0.0,0.0,0.0,0.0,0.0,0.0,0.0,0.0,0.0,0.0,0.0,0.0,0.0,0.0,0.0,0.0,0.0,0.0,0.0,0.0,0.0,0.0,0.0,0.0,0.0,0.0,0.0,0.0,0.0,0.0,0.0,0.0,0.0,0.0,0.0,0.0,0.0,0.0,0.0,0.0,0.0,0.0,0.0,0.0,0.0,0.0,0.0,0.0,0.0,0.0,0.0,0.0,0.0,0.0,0.0,0.0,0.0,0.0,0.0,0.0,0.0,0.0,0.0,0.0,0.0,0.0,0.0,0.0,0.0,0.0,0.0,0.0,0.0,0.0,0.0,0.0,0.0,0.0,0.0,0.0,0.0,0.0,0.0,0.0,0.0,0.0,0.0,0.0,0.0,0.0,0.0,0.0,0.0,0.0,0.0,0.0,0.0,0.0,0.0,0.0,0.0,0.0,0.0,0.0,0.0,0.0,0.0,0.0,0.0,0.0,0.0,0.0,0.0,0.0,0.0,0.0,0.0,0.0,0.0,0.0,0.0,0.0,0.0,0.0,0.0,0.0,0.0,0.0,0.0,0.0,0.0,0.0,-0.0221,-0.0062,0.0,0.0,0.0,0.0,0.0,0.0,0.0,0.0,0.0,0.0,0.0,0.0,0.0,0.0,0.0,0.0,0.0,0.0,0.0,0.0,0.0,0.0,0.0,0.0,0.0,0.0,0.0,0.0,0.0,0.0,0.0,0.0,0.0,0.0,0.0,0.0,0.0,0.0,0.0,0.0,0.0,0.0,0.0,0.0,0.0,0.0,0.0,0.0,0.0,0.0,0.0,0.0,0.0,0.0,0.0,0.0,0.0,0.0,0.0,0.0,0.0,0.0,0.0,0.0,0.0,0.0,0.0,0.0,0.0,0.0,0.0,0.0,0.0,0.0,0.0,0.0,0.0,0.0,0.0,0.0,0.0,0.0,0.0,0.0,0.0,0.0,0.0,0.0,0.0,0.0,0.0,0.0,0.0,0.0,0.0,0.0,0.0,0.0,0.0,0.0,0.0,0.0,0.0,0.0,0.0,0.0,0.0,0.0,0.0,0.0,0.0,0.0,0.0,-0.0595,-0.0418,-0.0343,-0.0333,-0.021,-0.0156,-0.0136,0.0,0.0,0.0,0.0,0.0,0.0,0.0,0.0,0.0,0.0,0.0,0.0,0.0,0.0,0.0,0.0,0.0,0.0,0.0,0.0,0.0,0.0,0.0,0.0,0.0,0.0,0.0,0.0,0.0,0.0,0.0,0.0,0.0,0.0,0.0,0.0,0.0,0.0,0.0,0.0,0.0,0.0,0.0,0.0,0.0,0.0,0.0,0.0,0.0,0.0,0.0,0.0,0.0,0.0,0.0,0.0,0.0,0.0,0.0,0.0,0.0,0.0,0.0,0.0,0.0,0.0,0.0,0.0,0.0,0.0,0.0,0.0,0.0,0.0,0.0,0.0,0.0,0.0,0.0,0.0,0.0,0.0,0.0,0.0,0.0,0.0,0.0,0.0,0.0,0.0,0.0,0.0,0.0,0.0,0.0,0.0,0.0,0.0,0.0,0.0,0.0,0.0,0.0,0.0,0.0,0.0,0.0,0.0,-0.1123,-0.1014,-0.0916,-0.0867,-0.0587,-0.0415,0.0,0.0,0.0,0.0,0.0,0.0,0.0,0.0,0.0,0.0,0.0,0.0,0.0,0.0,0.0,0.0,0.0,0.0,0.0,0.0,0.0,0.0,0.0,0.0,0.0,0.0,0.0,0.0,0.0,0.0,0.0,0.0,0.0,0.0,0.0,0.0,0.0,0.0,0.0,0.0,0.0,0.0,0.0,0.0,0.0,0.0,0.0,0.0,0.0,0.0,0.0,0.0,0.0,0.0,0.0,0.0,0.0,0.0,0.0,0.0,0.0,0.0,0.0,0.0,0.0,0.0,0.0,0.0,0.0,0.0,0.0,0.0,0.0,0.0,0.0,0.0,0.0,0.0,0.0,0.0,0.0,0.0,0.0,0.0,0.0,0.0,0.0,0.0,0.0,0.0,0.0,0.0,0.0,0.0,0.0,0.0,0.0,0.0,0.0,0.0,0.0,0.0,0.0,0.0,0.0,0.0,0.0,0.0,0.0,-0.1469,-0.1536,-0.1348,-0.0897,-0.0759,-0.0676,0.0,0.0,0.0,0.0,0.0,0.0,0.0,0.0,0.0,0.0,0.0,0.0,0.0,0.0,0.0,0.0,0.0,0.0,0.0,0.0,0.0,0.0,0.0,0.0,0.0,0.0,0.0,0.0,0.0,0.0,0.0,0.0,0.0,0.0,0.0,0.0,0.0,0.0,0.0,0.0,0.0,0.0,0.0,0.0,0.0,0.0,0.0,0.0,0.0,0.0,0.0,0.0,0.0,0.0,0.0,0.0,0.0,0.0,0.0,0.0,0.0,0.0,0.0,0.0,0.0,0.0,0.0,0.0,0.0,0.0,0.0,0.0,0.0,0.0,0.0,0.0,0.0,0.0,0.0,0.0,0.0,0.0,0.0,0.0,0.0,0.0,0.0,0.0,0.0,0.0,0.0,0.0,0.0,0.0,0.0,0.0,0.0,0.0,0.0,0.0,0.0,0.0,0.0,0.0,0.0,0.0,0.0,0.0,-0.1606,-0.1671,-0.182,-0.1694,-0.1328,-0.111,-0.0963,0.0,0.0,0.0,0.0,0.0,0.0,0.0,0.0,0.0,0.0,0.0,0.0,0.0,0.0,0.0,0.0,0.0,0.0,0.0,0.0,0.0,0.0,0.0,0.0,0.0,0.0,0.0,0.0,0.0,0.0,0.0,0.0,0.0,0.0,0.0,0.0,0.0,0.0,0.0,0.0,0.0,0.0,0.0,0.0,0.0,0.0,0.0,0.0,0.0,0.0,0.0,0.0,0.0,0.0,0.0,0.0,0.0,0.0,0.0,0.0,0.0,0.0,0.0,0.0,0.0,0.0,0.0,0.0,0.0,0.0,0.0,0.0,0.0,0.0,0.0,0.0,0.0,0.0,0.0,0.0,0.0,0.0,0.0,0.0,0.0,0.0,0.0,0.0,0.0,0.0,0.0,0.0,0.0,0.0,0.0,0.0,0.0,0.0,0.0,0.0,0.0,0.0,0.0,0.0,0.0,0.0,0.0,0.0,-0.1847,-0.189,-0.2015,-0.2035,-0.1913,-0.1553,-0.1274,0.0,0.0,0.0,0.0,0.0,0.0,0.0,0.0,0.0,0.0,0.0,0.0,0.0,0.0,0.0,0.0,0.0,0.0,0.0,0.0,0.0,0.0,0.0,0.0,0.0,0.0,0.0,0.0,0.0,0.0,0.0,0.0,0.0,0.0,0.0,0.0,0.0,0.0,0.0,0.0,0.0,0.0,0.0,0.0,0.0,0.0,0.0,0.0,0.0,0.0,0.0,0.0,0.0,0.0,0.0,0.0,0.0,0.0,0.0,0.0,0.0,0.0,0.0,0.0,0.0,0.0,0.0,0.0,0.0,0.0,0.0,0.0,0.0,0.0,0.0,0.0,0.0,0.0,0.0,0.0,0.0,0.0,0.0,0.0,0.0,0.0,0.0,0.0,0.0,0.0,0.0,0.0,0.0,0.0,0.0,0.0,0.0,0.0,0.0,0.0,0.0,0.0,0.0,0.0,0.0,0.0,0.0,0.0,-0.2883,-0.2589,-0.268,-0.2432,-0.1916,-0.1707,-0.1529,0.0,0.0,0.0,0.0,0.0,0.0,0.0,0.0,0.0,0.0,0.0,0.0,0.0,0.0,0.0,0.0,0.0,0.0,0.0,0.0,0.0,0.0,0.0,0.0,0.0,0.0,0.0,0.0,0.0,0.0,0.0,0.0,0.0,0.0,0.0,0.0,0.0,0.0,0.0,0.0,0.0,0.0,0.0,0.0,0.0,0.0,0.0,0.0,0.2588,0.0,0.0,0.0,0.0,0.0,0.0,0.0,0.0,0.0,0.0,0.0,0.0,0.0,0.0,0.0,0.0,0.0,0.0,0.0,0.0,0.0,0.0,0.0,0.0,0.0,0.0,0.0,0.0,0.0,0.0,0.0,0.0,0.0,0.0,0.0,0.0,0.0,0.0,0.0,0.0,0.0,0.0,0.0,0.0,0.0,0.0,0.0,0.0,0.0,0.0,0.0,0.0,0.0,0.0,0.0,0.0,0.0,0.0,0.0,-0.3377,-0.3317,-0.3317,-0.302,-0.2412,-0.2208,-0.1898,0.0,0.0,0.0,0.0,0.0,0.0,0.0,0.0,0.0,0.0,0.0,0.0,0.0,0.0,0.0,0.0,0.0,0.0,0.0,0.0,0.0,0.0,0.0,0.0,0.0,0.0,0.0,0.0,0.0,0.0,0.0,0.0,0.0,0.0,0.0,0.0,0.0,0.0,0.0,0.0,0.0,0.0,0.0,0.0,0.0,0.0,0.0,0.0,0.0,0.0,0.0,0.0,0.0,0.0,0.0,0.0,0.0,0.0,0.0,0.0,0.0,0.0,0.0,0.0,0.0,0.0,0.0,0.0,0.0,0.0,0.0,0.0,0.0,0.0,0.0,0.0,0.0,0.0,0.0,0.0,0.0,0.0,0.0,0.0,0.0,0.0,0.0,0.0,0.0,0.0,0.0,0.0,0.0,0.0,0.0,0.0,0.0,0.0,0.0,0.0,0.0,0.0,0.0,0.0,0.0,0.0,0.0,-0.3543,-0.3751,-0.4027,-0.3996,-0.3663,-0.302,-0.2824,-0.2367,-0.1671,0.0,0.0,0.0,0.0,0.0,0.0,0.0,0.0,0.0,0.0,0.0,0.0,0.0,0.0,0.0,0.0,0.0,0.0,0.0,0.0,0.0,0.0,0.0,0.0,0.0,0.0,0.0,0.0,0.0,0.0,0.0,0.0,0.0,0.0,0.0,0.0,0.0,0.0,-0.1269,-0.1108,0.0,0.0,0.0,0.0,0.0,0.0,0.0,0.0,0.1505,0.0,0.0,0.0,0.0,0.0,0.0,0.0,0.0,0.0,0.0,0.0,0.0,0.0,0.0,0.0,0.0,0.0,0.0,0.0,0.0,0.0,0.0,0.0,0.0,0.0,0.0,0.0,0.0,0.0,0.0,0.0,0.0,0.0,0.0,0.0,0.0,0.0,0.0,0.0,0.0,0.0,0.0,0.0,0.0,0.0,0.0,0.0,0.0,0.0,0.0,0.0,0.0,0.0,0.0,0.0,0.0,-0.515,-0.4768,-0.4587,-0.4634,-0.466,-0.4279,-0.3519,-0.3296,-0.3017,-0.264,0.0,0.0,0.0,0.0,0.0,0.0,0.0,0.0,0.0,0.0,0.0,0.0,0.0,0.0,0.0,0.0,0.0,0.0,0.0,0.0,0.0,0.0,0.0,0.0,0.0,0.0,0.0,0.0,0.0,0.0,0.0,0.0,0.0,0.0,0.0,0.0,0.0,0.0,0.0,-0.127,-0.1224,0.0,0.0,0.0,0.0,0.0,0.0,0.0,0.0,0.1014,0.0,0.0,0.0,0.0,0.0,0.0,0.0,0.0,0.0,0.0,0.0,0.0,0.0,0.0,0.0,0.0,0.0,0.0,0.0,0.0,0.0,0.0,0.0,0.0,0.0,0.0,0.0,0.0,0.0,0.0,0.0,0.0,0.0,0.0,0.0,0.0,0.0,0.0,0.0,0.0,0.0,0.0,0.0,0.0,0.0,0.0,0.0,0.0,0.0,0.0,0.0,0.0,0.0,0.0,0.0,-0.6085,-0.5893,-0.5831,-0.5924,-0.5461,-0.4875,-0.4131,-0.379,-0.337,0.0,0.0,0.0,0.0,0.0,0.0,0.0,0.0,0.0,0.0,0.0,0.0,0.0,0.0,0.0,0.0,0.0,0.0,0.0,0.0,0.0,0.0,0.0,0.0,0.0,0.0,0.0,0.0,0.0,0.0,0.0,0.0,0.0,0.0,0.0,0.0,0.0,0.0,0.0,0.0,-0.1625,-0.1551,-0.1386,0.0,0.0,0.0,0.0,0.0,0.0,0.0148,0.0355,0.0,0.0,0.0,0.0,0.0,0.0,0.0,0.0,0.0,0.0,0.0,0.0,0.0,0.0,0.0,0.0,0.0,0.0,0.0,0.0,0.0,0.0,0.0,0.0,0.0,0.0,0.0,0.0,0.0,0.0,0.0,0.0,0.0,0.0,0.0,0.0,0.0,0.0,0.0,0.0,0.0,0.0,0.0,0.0,0.0,0.0,0.0,0.0,0.0,0.0,0.0,0.0,0.0,0.0,0.0,-0.68,-0.69,-0.7057,-0.723,-0.637,-0.5619,-0.5024,-0.4406,-0.3794,0.0,0.0,0.0,0.0,0.0,0.0,0.0,0.0,0.0,0.0,0.0,0.0,0.0,0.0,0.0,0.0,0.0,0.0,0.0,0.0,0.0,0.0,0.0,0.0,0.0,0.0,0.0,0.0,0.0,0.0,0.0,0.0,0.0,0.0,0.0,0.0,0.0,0.0,0.0,0.0,0.0,-0.1883,-0.1586,-0.1463,0.0,0.0,0.0,0.0,0.0583,-0.0107,0.0,0.0,0.0,0.0,0.0,0.0,0.0,0.0,0.0,0.0,0.0,0.0,0.0,0.0,0.0,0.0,0.0,0.0,0.0,0.0,0.0,0.0,0.0,0.0,0.0,0.0,0.0,0.0,0.0,0.0,0.0,0.0,0.0,0.0,0.0,0.0,0.0,0.0,0.0,0.0,0.0,0.0,0.0,0.0,0.0,0.0,0.0,0.0,0.0,0.0,0.0,0.0,0.0,0.0,0.0,0.0,-0.7473,-0.7668,-0.7904,-0.8183,-0.7397,-0.6772,-0.6456,-0.5317,-0.4522,0.0,0.0,0.0,0.0,0.0,0.0,0.0,0.0,0.0,0.0,0.0,0.0,0.0,0.0,0.0,0.0,0.0,0.0,0.0,0.0,0.0,0.0,0.0,0.0,0.0,0.0,0.0,0.0,0.0,0.0,0.0,0.0,0.0,0.0,0.0,0.0,0.0,0.0,0.0,0.0,0.0,-0.2157,-0.1966,-0.1683,-0.1473,0.0,0.0,-0.0847,0.087,0.0441,0.0,0.0,0.0,0.0,0.0,0.0,0.0,0.0,0.0,0.0,0.0,0.0,0.0,0.0,0.0,0.0,0.0,0.0,0.0,0.0,0.0,0.0,0.0,0.0,0.0,0.0,0.0,0.0,0.0,0.0,0.0,0.0,0.0,0.0,0.0,0.0,0.0,0.0,0.0,0.0,0.0,0.0,0.0,0.0,0.0,0.0,0.0,0.0,0.0,0.0,0.0,0.0,0.0,0.0,0.0,-0.7943,-0.8283,-0.8727,-0.9053,-0.9209,-0.8323,-0.7772,-0.7595,-0.6589,-0.5879,0.0,0.0,0.0,0.0,0.0,0.0,0.0,0.0,0.0,0.0,0.0,0.0,0.0,0.0,0.0,0.0,0.0,0.0,0.0,0.0,0.0,0.0,0.0,0.0,0.0,0.0,0.0,0.0,0.0,0.0,0.0,0.0,0.0,0.0,0.0,0.0,0.0,0.0,0.0,0.0,0.0,0.0,-0.2759,-0.2612,0.0,0.0,0.0,-0.1583,-0.0494,0.0,0.0,0.0,0.0,0.0,0.0,0.0,0.0,0.0,0.0,0.0,0.0,0.0,0.0,0.0,0.0,0.0,0.0,0.0,0.0,0.0,0.0,0.0,0.0,0.0,0.0,0.0,0.0,0.0,0.0,0.0,0.0,0.0,0.0,0.0,0.0,0.0,0.0,0.0,0.0,0.0,0.0,0.0,0.0,0.0,0.0,0.0,0.0,0.0,0.0,0.0,0.0,0.0,0.0,0.0,0.0,0.0,-0.8895,-0.9731,-1.02,-1.0295,-0.9334,-0.8791,-0.8599,-0.7737,0.0,0.0,0.0,0.0,0.0,0.0,0.0,0.0,0.0,0.0,0.0,0.0,0.0,0.0,0.0,0.0,0.0,0.0,0.0,0.0,0.0,0.0,0.0,0.0,0.0,0.0,0.0,-0.1017,0.0,0.0,0.0,0.0,0.0,0.0,0.0,0.0,0.0,0.0,0.0,0.0,0.0,0.0,-0.3569,-0.3443,-0.3372,-0.3225,0.0,0.0,-0.2134,-0.158,-0.0884,-0.0199,0.0,0.0,0.0,0.0,0.0,0.0,0.0,0.0,0.0,0.0,0.0,0.0,0.0,0.0,0.0,0.0,0.0,0.0,0.0,0.0,0.0,0.0,0.0,0.0,0.0,0.0,0.0,0.0,0.0,0.0,0.0,0.0,0.0,0.0,0.0,0.0,0.0,0.0,0.0,0.0,0.0,0.0,0.0,0.0,0.0,0.0,0.0,0.0,0.0,0.0,0.0,0.0,0.0,0.0,0.0,-0.9112,-1.0412,-1.1197,-1.135,-1.0532,-0.9909,-0.9525,-0.8477,-0.7465,0.0,0.0,0.0,0.0,0.0,0.0,0.0,0.0,0.0,0.0,0.0,0.0,0.0,0.0,0.0,0.0,0.0,0.0,0.0,0.0,0.0,0.0,0.0,0.0,0.0,0.0,0.0,0.0,0.0,0.0,0.0,0.0,0.0,0.0,0.0,0.0,0.0,0.0,0.0,0.0,0.0,-0.3919,-0.3795,-0.3594,-0.3543,0.0,0.0,-0.2221,-0.1505,-0.089,-0.0054,0.1216,0.0,0.0,0.0,0.0,0.0,0.0,0.0,0.0,0.0,0.0,0.0,0.0,0.0,0.0,0.0,0.0,0.0,0.0,0.0,0.0,0.0,0.0,0.0,0.0,0.0,0.0,0.0,0.0,0.0,0.0,0.0,0.0,0.0,0.0,0.0,0.0,0.0,0.0,0.0,0.0,0.0,0.0,0.0,0.0,0.0,0.0,0.0,0.0,0.0,0.0,0.0,0.0,0.0,-0.8924,-0.929,-1.0664,-1.1484,-1.1654,-1.1231,-1.0928,-1.0767,-0.9949,-0.9046,0.0,0.0,0.0,0.0,0.0,0.0,0.0,0.0,0.0,0.0,0.0,0.0,0.0,0.0,0.0,0.0,0.0,0.0,0.0,0.0,0.0,0.0,0.0,0.0,0.0,0.0,0.0,0.0,-0.12,-0.1444,-0.1983,0.0,0.0,0.0,0.0,0.0,0.0,0.0,0.0,0.0,0.0,-0.4575,-0.4817,-0.479,0.0,0.0,-0.3439,-0.2774,-0.1725,-0.0652,0.0236,0.0745,0.1603,0.0,0.0,0.0,0.0,0.0,0.0,0.0,0.0,0.0,0.0,0.0,0.0,0.0,0.0,0.0,0.0,0.0,0.0,0.0,0.0,0.0,0.0,0.0,0.0,0.0,0.0,0.0,0.0,0.0,0.0,0.0,0.0,0.0,0.0,0.0,0.0,0.0,0.0,0.0,0.0,0.0,0.0,0.0,0.0,0.0,0.0,0.0,0.0,0.0,0.0,0.0,0.0,-0.9047,-0.9404,-1.0769,-1.1589,-1.1806,-1.1646,-1.1557,-1.1484,-1.0985,-1.0255,0.0,0.0,0.0,0.0,0.0,0.0,0.0,0.0,0.0,0.0,0.0,0.0,0.0,0.0,0.0,0.0,0.0,0.0,0.0,0.0,0.0,0.0,0.0,0.0,0.0,0.0,0.0,0.0,-0.1284,-0.1575,-0.2313,0.0,0.0,0.0,0.0,0.0,0.0,0.0,0.0,0.0,0.0,-0.5012,-0.535,-0.5402,-0.5176,-0.4454,-0.3828,-0.3171,-0.2354,-0.1091,-0.0154,0.0023,0.0,0.0,0.0,0.0,0.0,0.0,0.0,0.0,0.0,0.0,0.0,0.0,0.0,0.0,0.0,0.0,0.0,0.0,0.0,0.0,0.0,0.0,0.0,0.0,0.0,0.0,0.0,0.0,0.0,0.0,-1.1297,0.0,0.0,0.0,0.0,0.0,0.0,0.0,0.0,0.0,0.0,0.0,0.0,0.0,0.0,0.0,0.0,0.0,0.0,0.0,0.0,0.0,0.0,-0.9185,-0.942,-1.0813,-1.1589,-1.1798,-1.1798,-1.1717,-1.1508,-1.1484,-1.0891,-0.9624,0.0,0.0,0.0,0.0,0.0,0.0,0.0,0.0,0.0,0.0,0.0,0.0,0.0,0.0,0.0,0.0,0.0,0.0,0.0,0.0,0.0,0.0,0.0,0.0,0.0,0.0,-0.1277,-0.1281,-0.1509,0.0,0.0,0.0,0.0,0.0,0.0,0.0,0.0,0.0,0.0,-0.4875,-0.5137,-0.5211,-0.5224,-0.5241,-0.5298,-0.4172,-0.3346,-0.3398,-0.2394,-0.1421,0.0,0.0,0.0,0.0,0.0,0.0,0.0,0.0,0.0,0.0,0.0,0.0,0.0,0.0,0.0,0.0,0.0,0.0,0.0,0.0,0.0,0.0,0.0,0.0,0.0,0.0,0.0,-1.0323,-1.0036,0.0,0.0,0.0,0.0,0.0,0.0,0.0,0.0,0.0,0.0,0.0,-0.9516,-0.9431,0.0,0.0,0.0,0.0,0.0,0.0,0.0,0.0,0.0,0.0,0.0,0.0,-0.9437,-0.9779,-1.1041,-1.1741,-1.1806,-1.1806,-1.1774,-1.1687,-1.1565,-1.0964,-0.9835,0.0,0.0,0.0,0.0,0.0,0.0,0.0,0.0,0.0,0.0,0.0,0.0,0.0,0.0,0.0,0.0,0.0,0.0,0.0,0.0,0.0,0.0,0.0,0.0,0.0,-0.2958,0.0,0.0,0.0,0.0,0.0,0.0,0.0,0.0,0.0,0.0,0.0,-0.458,-0.4888,-0.5003,-0.5122,-0.5308,-0.5333,-0.5198,0.0,0.0,0.0,0.0,0.0,0.0,0.0,0.0,0.0,0.0,0.0,0.0,0.0,0.0,0.3564,0.3648,0.3825,0.4076,0.4433,0.0,0.0,0.0,0.0,0.0,0.0,0.0,0.0,0.0,0.0,0.0,0.0,0.0,0.0,-1.0467,0.0,-1.0009,0.0,0.0,0.0,0.0,0.0,0.0,0.0,0.0,-0.9733,-1.0026,-1.0282,-1.0221,-1.0233,0.0,-1.0249,-0.9599,0.0,0.0,0.0,0.0,0.0,0.0,0.0,0.0,-0.9738,-1.0111,-1.1256,-1.1866,-1.1866,-1.1866,-1.1863,-1.1806,-1.1533,-1.1045,-1.0308,-0.9486,-0.8745,0.0,0.0,0.0,0.0,0.0,0.0,0.0,0.0,0.0,0.0,0.0,0.0,0.0,0.0,0.0,0.0,0.0,0.0,0.0,0.0,0.0,0.0,0.0,-0.3863,0.0,0.0,0.0,0.0,0.0,0.0,0.0,0.0,0.0,-0.4423,-0.4626,-0.4879,-0.5206,-0.5194,-0.5241,-0.5389,0.0,0.0,0.0,0.0,0.0,0.0,0.0,-0.0992,-0.0931,-0.0317,0.054,0.1671,0.2466,0.303,0.3247,0.0,0.0,0.3565,0.3748,0.3992,0.4324,0.456,0.4925,0.5534,0.5693,0.5771,0.0,0.0,0.0,0.0,0.0,0.0,0.0,0.0,-1.1177,-1.095,0.0,-1.0296,0.0,0.0,0.0,0.0,0.0,0.0,0.0,0.0,-1.075,-1.1043,-1.0718,-1.0744,-1.0802,-1.0918,-1.082,-1.0629,-1.0424,-0.9794,0.0,0.0,0.0,0.0,0.0,0.0,-1.0095,-1.0466,-1.1479,-1.2005,-1.2005,-1.2005,-1.1955,-1.1823,-1.1443,-1.1175,-1.1,-1.0325,-0.9673,-0.9121,-0.8251,0.0,0.0,0.0,0.0,0.0,0.0,0.0,0.0,0.0,0.0,0.0,0.0,0.0,0.0,0.0,0.0,0.0,0.0,0.0,0.0,-0.4542,0.0,0.0,0.0,0.0,0.0,0.0,0.0,0.0,0.0,0.0,-0.4588,-0.4901,-0.521,-0.5463,0.0,0.0,0.0,0.0,-0.532,-0.5157,-0.4136,-0.3401,-0.3427,-0.25,-0.1746,-0.1691,0.0,0.0,0.1687,0.2194,0.2592,0.32,0.3469,0.3542,0.3365,0.3636,0.3877,0.3875,0.4267,0.4796,0.5413,0.5716,0.5927,-1.2656,0.0,0.0,0.0,0.0,-1.1514,-1.1142,-1.12,-1.1028,-1.0798,-1.0531,-1.0348,0.0,0.0,0.0,0.0,0.0,0.0,-1.0315,-1.0596,-1.086,-1.1097,-1.1327,-1.1362,-1.1455,-1.162,-1.157,-1.1557,-1.1528,-1.1216,-1.0411,-0.9176,0.0,0.0,0.0,0.0,-1.0704,-1.1208,-1.1843,-1.2231,-1.2192,-1.2231,-1.2111,-1.1963,-1.1827,-1.1624,-1.1354,-1.1021,-1.0425,-0.9579,-0.8957,0.0,0.0,0.0,0.0,0.0,0.0,0.0,0.0,0.0,0.0,0.0,0.0,0.0,0.0,0.0,0.0,0.0,0.0,0.0,-0.6131,-0.5997,-0.5631,0.0,0.0,0.0,0.0,0.0,0.0,0.0,0.0,0.0,-0.3962,-0.4669,-0.5232,0.0,0.0,-0.5214,-0.519,-0.5296,-0.5414,-0.539,0.0,0.0,0.0,-0.2641,-0.1801,-0.1832,-0.0474,0.0784,0.1207,0.2529,0.3567,0.3688,0.3782,0.3772,0.3699,0.3703,0.3868,0.4169,0.438,0.4727,0.5331,0.5836,0.6183,-1.3228,-1.3022,-1.2554,-1.2321,-1.215,-1.1434,-1.1294,-1.1547,-1.143,-1.1348,-1.1274,-1.1009,-1.0663,-1.0249,-0.9958,0.0,0.0,0.0,-1.084,-1.1389,-1.1389,-1.1469,-1.1694,-1.1701,-1.1734,-1.1768,-1.1768,-1.1846,-1.1949,-1.1716,-1.1103,-1.0218,0.0,0.0,-1.015,-1.0729,-1.1208,-1.1635,-1.2069,-1.2304,-1.2304,-1.2304,-1.2223,-1.2005,-1.1997,-1.1837,-1.1435,-1.1285,-1.0799,-0.9861,-0.9299,-0.8507,0.0,0.0,0.0,0.0,0.0,0.0,0.0,0.0,0.0,0.0,0.0,-0.6877,-0.6634,0.0,0.0,0.0,-0.6873,-0.69,-0.6912,-0.7054,0.0,0.0,0.0,0.0,0.0,0.0,0.0,-0.3181,-0.3128,-0.3191,-0.3342,-0.4105,-0.4793,-0.5192,-0.4886,-0.4792,-0.5298,0.0,-0.4917,-0.5197,-0.4202,-0.3452,-0.346,-0.2579,-0.1888,-0.1934,-0.0611,0.0614,0.1006,0.2347,0.3486,0.3805,0.392,0.389,0.3853,0.3787,0.3791,0.403,0.4139,0.4384,0.5004,0.5597,0.6067,-1.3774,-1.3572,-1.269,-1.2135,-1.1959,-1.1908,-1.202,-1.2186,-1.2173,-1.2277,-1.2488,-1.2088,-1.178,-1.1626,-1.0934,0.0,-1.1443,-1.1443,-1.1696,-1.2098,-1.2098,-1.1986,-1.1813,-1.1813,-1.1739,-1.164,-1.1597,-1.1701,-1.1854,-1.1578,-1.1409,-1.1391,-1.1087,-1.0957,-1.1009,-1.1307,-1.1565,-1.178,-1.2056,-1.2217,-1.2234,-1.2234,-1.2145,-1.1937,-1.1943,-1.1724,-1.1261,-1.1208,-1.0842,-1.0043,-0.9365,-0.8704,-0.8015,0.0,0.0,0.0,0.0,0.0,0.0,0.0,0.0,0.0,0.0,0.0,0.0,0.0,0.0,-0.7396,-0.7457,0.0,-0.7672,-0.7807,0.0,0.0,0.0,-0.619,-0.6367,-0.4522,-0.3207,-0.3198,0.0,0.0,-0.2758,0.0,-0.3976,-0.4762,-0.4297,-0.4319,-0.5493,-0.466,-0.4116,-0.4676,-0.3722,-0.2907,-0.2919,-0.2398,-0.1987,-0.1985,-0.1155,-0.0124,0.0834,0.1855,0.2843,0.3735,0.392,0.3899,0.3899,0.3836,0.3765,0.3681,0.3692,0.3896,0.449,0.5052,0.5594,-1.4288,-1.4272,-1.3919,-1.3485,-1.3017,-1.2901,-1.2874,-1.2941,-1.2833,-1.2725,-1.2664,-1.2523,-1.2334,-1.2115,-1.1853,-1.1805,-1.1941,-1.1941,-1.1996,-1.2098,-1.2098,-1.2077,-1.2043,-1.2006,-1.1925,-1.1753,-1.1746,-1.1701,-1.1673,-1.1604,-1.1525,-1.149,-1.1391,-1.1229,-1.102,-1.1202,-1.1384,-1.1646,-1.1568,-1.1606,-1.176,-1.176,-1.1652,-1.1453,-1.1355,-1.1149,-1.077,-1.0605,-1.0339,-0.9932,-0.9422,-0.8808,-0.8025,-0.7221,0.0,0.0,0.0,0.0,0.0,0.0,0.0,0.0,0.0,-0.7391,-0.6851,0.0,-0.7502,0.0,-0.795,-0.8301,-0.8431,-0.8446,0.0,0.0,-0.7959,-0.7265,-0.496,-0.4894,-0.4343,-0.2517,-0.2222,-0.2193,-0.225,-0.2364,-0.2724,-0.3438,-0.3692,-0.3921,-0.4168,-0.4122,-0.4034,-0.4093,-0.3572,-0.3128,-0.3042,-0.2516,-0.2076,-0.2057,-0.1182,-0.0127,0.0754,0.185,0.2876,0.3715,0.392,0.3896,0.3902,0.3842,0.3795,0.3754,0.3665,0.3664,0.3836,0.4355,0.481,-1.4774,-1.4706,-1.4557,-1.419,-1.3688,-1.3532,-1.3397,-1.3309,-1.3227,-1.3105,-1.3017,-1.2888,-1.2705,-1.2481,-1.237,-1.2295,-1.2257,-1.2295,-1.2295,-1.2295,-1.2295,-1.2261,-1.22,-1.22,-1.2081,-1.1932,-1.1827,-1.1753,-1.1678,-1.1617,-1.1597,-1.1532,-1.1525,-1.1355,-1.0984,-1.1168,-1.1299,-1.1378,-1.1331,-1.1367,-1.1555,-1.163,-1.1488,-1.1114,-1.1084,-1.0785,-1.0076,-1.0003,-0.978,-0.9293,-0.8978,-0.8517,-0.7925,-0.7314,-0.6924,0.0,0.0,0.0,0.0,0.0,0.0,0.0,0.0,0.0,0.0,0.0,-0.8099,-0.8099,-0.8574,-0.8913,-0.9001,-0.9123,-0.9032,-0.8719,-0.8593,-0.7895,-0.6267,-0.6041,-0.5248,-0.3273,-0.3037,-0.28,-0.2233,-0.2123,-0.2216,-0.26,-0.2919,-0.3286,-0.3755,-0.3546,-0.3286,-0.3583,-0.3131,-0.2745,-0.2714,-0.2349,-0.2059,-0.2001,-0.1518,-0.0694,0.0688,0.1436,0.2304,0.3586,0.392,0.3909,0.3905,0.3883,0.3834,0.3792,0.3724,0.3635,0.3655,0.4136,0.4531,-1.516,-1.5018,-1.4836,-1.4577,-1.4214,-1.4021,-1.3693,-1.337,-1.3349,-1.3363,-1.3383,-1.3152,-1.2908,-1.2773,-1.2583,-1.2501,-1.2501,-1.2501,-1.2501,-1.2501,-1.2501,-1.2433,-1.2318,-1.2318,-1.2237,-1.2125,-1.1952,-1.1834,-1.1793,-1.1708,-1.1584,-1.1565,-1.1558,-1.1313,-1.0921,-1.1113,-1.116,-1.0953,-1.1116,-1.1232,-1.1332,-1.1467,-1.1246,-1.0708,-1.0798,-1.0391,-0.9397,-0.9447,-0.921,-0.8593,-0.8417,-0.8214,-0.7939,-0.7506,-0.7337,0.0,-0.7242,0.0,0.0,0.0,0.0,0.0,0.0,0.0,0.0,-0.8858,-0.8859,-0.8879,-0.9286,-0.9564,-0.9635,-0.9842,-1.01,-1.0326,-0.9285,-0.8524,-0.859,-0.7507,-0.6195,-0.4748,-0.4445,-0.384,-0.2722,-0.2324,-0.2177,-0.2189,-0.2233,-0.2667,-0.3545,-0.2966,-0.2486,-0.3028,-0.2591,-0.227,-0.2186,-0.2081,-0.2019,-0.2023,-0.1953,-0.1327,0.0432,0.0925,0.1603,0.324,0.3794,0.3892,0.3928,0.3907,0.3875,0.3836,0.3741,0.3718,0.3733,0.4071,0.4453,-1.5418,-1.533,-1.5296,-1.5099,-1.4794,-1.4586,-1.4055,-1.3207,-1.3132,-1.322,-1.3383,-1.3214,-1.3159,-1.3057,-1.2678,-1.2501,-1.2501,-1.2501,-1.2501,-1.2501,-1.2501,-1.2488,-1.2461,-1.2461,-1.2386,-1.225,-1.2216,-1.2074,-1.1793,-1.1766,-1.1606,-1.1295,-1.1281,-1.1084,-1.0778,0.0,0.0,0.0,-1.0391,-1.0488,-1.0502,-1.0294,-1.0122,-0.9967,-0.9797,0.0,-0.9023,-0.9023,-0.8913,-0.8682,-0.8642,0.0,0.0,0.0,0.0,0.0,0.0,0.0,0.0,0.0,0.0,0.0,-0.8893,-0.8941,-0.8919,-0.9318,-0.9629,-0.9765,-1.017,-1.0568,-1.0839,-1.0907,-1.0968,-1.0989,-1.0785,-1.0191,-0.9073,-0.866,-0.7937,-0.6417,-0.5219,-0.4352,-0.3874,-0.2926,-0.2186,-0.2179,-0.2185,-0.2287,-0.255,-0.2385,-0.2256,-0.2356,-0.2289,-0.2175,-0.2106,-0.2075,-0.2045,-0.2018,-0.2021,-0.1515,-0.0432,0.0493,0.1326,0.259,0.3363,0.3905,0.3974,0.3932,0.3908,0.3877,0.3826,0.3765,0.3718,0.3793,0.3894,-1.5764,0.0,-1.5554,-1.5269,0.0,-1.4728,-1.4228,-1.3498,-1.3547,-1.3512,-1.3505,-1.3356,-1.3248,-1.3091,-1.2671,-1.2461,-1.2393,-1.2318,-1.2325,-1.2393,-1.24,-1.2433,-1.2501,-1.2501,-1.2461,-1.2393,-1.2325,-1.221,-1.206,-1.1986,-1.1789,-1.1497,-1.1491,-1.1341,-1.1056,-1.0975,-1.0758,-1.0353,-1.0385,-1.0426,-1.0493,-1.0419,-1.0204,-0.9913,0.0,0.0,0.0,0.0,0.0,0.0,0.0,0.0,0.0,0.0,0.0,-0.9015,-0.8899,-0.892,-0.9137,-0.9361,-0.9551,-0.9663,-0.991,-0.9917,-0.9595,-1.0042,-1.0407,-1.0588,-1.0812,-1.1036,-1.1172,-1.12,-1.12,-1.12,-1.12,-1.0889,-1.0225,-1.0087,-0.9463,-0.7991,-0.6496,-0.5328,-0.4482,-0.3105,-0.2256,-0.2189,-0.2189,-0.2189,-0.2189,-0.2189,-0.2189,-0.2189,-0.2189,-0.2178,-0.2116,-0.2098,-0.2069,-0.203,-0.2007,-0.1587,-0.0648,-0.0092,0.0739,0.2128,0.2917,0.3378,0.3899,0.3977,0.4007,0.3921,0.388,0.3826,0.3776,0.3751,0.377,-1.6064,-1.5894,-1.5723,-1.533,-1.485,-1.4796,-1.4444,-1.3916,0.0,0.0,0.0,-1.3458,-1.3268,-1.3064,-1.2718,-1.2522,-1.2406,-1.2315,-1.2329,-1.2445,-1.2379,-1.2433,-1.2535,-1.2515,-1.2501,-1.2494,-1.2386,-1.2318,-1.2284,-1.22,-1.2026,-1.1847,-1.187,-1.1735,-1.1477,-1.1329,-1.1084,-1.0839,-1.0636,-1.0582,-1.0677,-1.0718,-1.0535,-1.0069,-1.0161,-0.9964,-0.9483,-0.9369,-0.9205,-0.9041,-0.9054,-0.9021,-0.8933,-0.9041,-0.9237,-0.9551,-0.9578,-0.9734,-1.0076,-1.0297,-1.046,-1.0635,-1.0839,-1.0833,-1.046,-1.0799,-1.1077,-1.1227,-1.1261,-1.1281,-1.1281,-1.1281,-1.1274,-1.1274,-1.1274,-1.1281,-1.1281,-1.1281,-1.0718,-0.9521,-0.809,-0.6568,-0.5102,-0.3634,-0.2463,-0.2256,-0.2189,-0.2189,-0.2189,-0.2189,-0.2189,-0.2189,-0.2189,-0.2179,-0.2124,-0.211,-0.209,-0.2049,-0.2027,-0.1696,-0.1025,-0.0617,0.0154,0.1487,0.2222,0.2904,0.3556,0.3933,0.4036,0.3954,0.3918,0.3888,0.3847,0.3814,0.3836,-1.611,-1.5901,-1.5881,-1.5703,-1.5445,-1.5235,-1.4855,-1.4394,-1.3991,-1.3709,-1.3431,-1.341,-1.3376,-1.3322,-1.3071,-1.2928,-1.2907,-1.2887,-1.2887,0.0,-1.2732,-1.2638,-1.2691,-1.2562,-1.2501,-1.2501,-1.2481,-1.2406,-1.2298,-1.2271,-1.222,-1.2084,-1.207,-1.1938,-1.1762,-1.1497,-1.1341,-1.1294,-1.0894,-1.0636,-1.0527,-1.0265,-1.017,-1.0236,-1.0019,-0.9825,-0.9731,-0.971,-0.9629,-0.9523,-0.9602,-0.9717,-0.9825,-0.9839,-0.9994,-1.0304,-1.0331,-1.0365,-1.0426,-1.0657,-1.0914,-1.1084,-1.1138,-1.1138,-1.1084,-1.1247,-1.1341,-1.1362,-1.147,-1.1558,-1.1552,-1.1545,-1.1531,-1.1509,-1.1552,-1.1516,-1.1538,-1.1538,-1.1384,-1.0981,-0.9748,-0.8164,-0.6473,-0.4993,-0.3537,-0.2532,-0.219,-0.2189,-0.2189,-0.2189,-0.2189,-0.2189,-0.2189,-0.2186,-0.2178,-0.2125,-0.2108,-0.2099,-0.202,-0.196,-0.173,-0.1122,-0.0466,-0.0094,0.1388,0.2487,0.2858,0.3535,0.3941,0.3985,0.395,0.3904,0.3891,0.3875,0.3894,-1.5436,-1.5256,-1.5249,-1.5269,-1.5347,-1.5343,-1.5052,-1.4624,-1.4333,-1.395,-1.3612,-1.3641,-1.3505,-1.3268,-1.3098,-1.2907,-1.2712,-1.2712,-1.2751,-1.2712,-1.2679,-1.2733,-1.2847,-1.2786,-1.2792,-1.2752,-1.2792,-1.2758,-1.269,-1.2569,-1.2454,-1.2336,-1.2179,-1.2064,-1.1952,-1.186,-1.1674,-1.1511,-1.1036,-1.0772,-1.0704,-1.0576,-1.0502,-1.0521,-1.0378,-1.0278,-1.0278,-1.0229,-1.0154,-1.0093,-1.0229,-1.0238,-1.0181,-1.0218,-1.0351,-1.048,-1.0493,-1.0527,-1.0609,-1.0792,-1.1016,-1.1295,-1.124,-1.1274,-1.1396,-1.1396,-1.143,-1.1504,-1.155,-1.1584,-1.1584,-1.1584,-1.1584,-1.1584,-1.1584,-1.1584,-1.1584,-1.1584,-1.1556,-1.1375,-1.0149,-0.8605,-0.7008,-0.546,-0.3937,-0.252,-0.2201,-0.2189,-0.2189,-0.2189,-0.2189,-0.2189,-0.2189,-0.2189,-0.2188,-0.2178,-0.2128,-0.2113,-0.2086,-0.2063,-0.2049,-0.1585,-0.1173,-0.0606,0.0771,0.188,0.2402,0.3496,0.4006,0.4028,0.4018,0.3972,0.3938,0.3913,0.3918,-1.4839,-1.4635,-1.4672,-1.4763,-1.4918,-1.5031,-1.4878,-1.4421,-1.4262,-1.406,-1.3794,-1.3786,-1.3605,-1.3329,-1.3173,-1.2963,-1.2732,-1.2705,-1.2691,-1.2664,-1.2773,-1.2881,-1.2989,-1.3003,-1.3003,-1.3003,-1.3003,-1.3003,-1.2982,-1.284,-1.2705,-1.2535,-1.2257,-1.2152,-1.2152,-1.2118,-1.1945,-1.1708,-1.1306,-1.1063,-1.0968,-1.0934,-1.0867,-1.0826,-1.0718,-1.0704,-1.0725,-1.0629,-1.0541,-1.0548,-1.0656,-1.0583,-1.0405,-1.0487,-1.0541,-1.0541,-1.0548,-1.0629,-1.0806,-1.0928,-1.1124,-1.1409,-1.1301,-1.1349,-1.1518,-1.1463,-1.1457,-1.1592,-1.1577,-1.1584,-1.1626,-1.1653,-1.1617,-1.159,-1.1584,-1.1584,-1.1584,-1.1584,-1.1584,-1.1456,-1.0465,-0.918,-0.7597,-0.6039,-0.4366,-0.2699,-0.2203,-0.219,-0.2189,-0.2189,-0.2189,-0.2189,-0.2189,-0.2189,-0.2189,-0.2188,-0.2178,-0.2121,-0.2112,-0.2097,-0.2078,-0.2102,-0.1842,-0.1036,-0.0065,0.0856,0.1785,0.3,0.3633,0.3623,0.38,0.4034,0.3924,0.3918,0.3918,-1.4739,-1.4581,-1.4585,-1.4508,-1.4213,-1.4212,-1.4019,-1.3653,-1.3499,-1.3507,-1.3634,-1.375,-1.3781,-1.372,-1.362,-1.3451,-1.3295,-1.3315,-1.3234,-1.3139,-1.3166,-1.3111,-1.3023,-1.3009,-1.3003,-1.3009,-1.3016,-1.303,-1.3023,-1.2989,-1.2901,-1.2652,-1.2413,-1.2271,-1.2295,-1.2179,-1.2091,-1.2057,-1.1843,-1.1552,-1.1165,-1.0982,-1.0968,-1.1152,-1.086,-1.0752,-1.0874,-1.0752,-1.0704,-1.0664,-1.0677,-1.0677,-1.0677,-1.069,-1.0697,-1.0697,-1.0697,-1.0819,-1.1118,-1.1166,-1.1274,-1.1545,-1.1463,-1.1389,-1.143,-1.1409,-1.1457,-1.1592,-1.1584,-1.1597,-1.159,-1.1698,-1.1712,-1.1617,-1.159,-1.1584,-1.1584,-1.1584,-1.1584,-1.1584,-1.1341,-1.0752,-0.9021,-0.7345,-0.5322,-0.2546,-0.2195,-0.2189,-0.2189,-0.2189,-0.2189,-0.2189,-0.2189,-0.2189,-0.2189,-0.2189,-0.2185,-0.2181,-0.2128,-0.2113,-0.2135,-0.212,-0.2007,-0.1708,-0.0955,-0.0133,0.0334,0.1344,0.2828,0.3008,0.3429,0.405,0.3945,0.3915,0.392,-1.3808,-1.3654,-1.3756,-1.3705,-1.3666,-1.3934,-1.3896,-1.3596,-1.3456,-1.3465,-1.353,-1.3439,-1.3528,-1.3795,-1.3734,-1.3585,-1.3417,-1.3538,-1.3478,-1.3254,-1.3356,-1.3363,-1.3234,-1.322,-1.322,-1.322,-1.322,-1.3261,-1.3207,-1.3173,-1.301,-1.2861,-1.2651,-1.251,-1.2542,-1.24,-1.2284,-1.2196,-1.2135,-1.1965,-1.1737,-1.1463,-1.1328,-1.1315,-1.109,-1.0962,-1.0914,-1.0853,-1.0779,-1.0704,-1.0772,-1.0779,-1.0724,-1.0717,-1.0717,-1.0717,-1.0717,-1.0853,-1.1172,-1.1246,-1.143,-1.1721,-1.1687,-1.1653,-1.164,-1.1491,-1.1484,-1.1701,-1.1705,-1.1739,-1.1857,-1.185,-1.1773,-1.1705,-1.1638,-1.1584,-1.1584,-1.1584,-1.1584,-1.1584,-1.1584,-1.1018,-0.9311,-0.7076,-0.4759,-0.2665,-0.2203,-0.219,-0.2189,-0.2189,-0.2189,-0.2189,-0.2189,-0.2189,-0.2189,-0.2189,-0.2189,-0.2186,-0.2179,-0.217,-0.2165,-0.2161,-0.2156,-0.2167,-0.1299,-0.0634,-0.0403,0.1175,0.2667,0.2728,0.3196,0.3972,0.3928,0.392,0.392,-1.3172,-1.3125,-1.3037,-1.3096,-1.3165,-1.355,-1.353,-1.3311,-1.3204,-1.3167,-1.3216,-1.2999,-1.3147,-1.357,-1.3558,-1.338,-1.3195,-1.3445,-1.3437,-1.3184,-1.3482,-1.3565,-1.3471,-1.3464,-1.3464,-1.3458,-1.3417,-1.3397,-1.3383,-1.3288,-1.3159,-1.305,-1.2868,-1.2793,-1.274,-1.2637,-1.2535,-1.2474,-1.24,-1.2311,-1.2216,-1.1993,-1.1748,-1.1525,-1.1369,-1.124,-1.1103,-1.1062,-1.1049,-1.0948,-1.0961,-1.0941,-1.0914,-1.0792,-1.0765,-1.0839,-1.0839,-1.0955,-1.1247,-1.1369,-1.1565,-1.1759,-1.1793,-1.1793,-1.1759,-1.1633,-1.164,-1.185,-1.1854,-1.1945,-1.202,-1.1959,-1.1884,-1.1793,-1.1671,-1.1584,-1.1584,-1.1584,-1.1584,-1.1584,-1.1584,-1.0803,-0.8867,-0.6681,-0.4686,-0.2686,-0.2181,-0.2196,-0.219,-0.2189,-0.2189,-0.2189,-0.2189,-0.2189,-0.2189,-0.2189,-0.2189,-0.2189,-0.2186,-0.2186,-0.2189,-0.2188,-0.2188,-0.2112,-0.1345,-0.101,-0.1077,0.047,0.2197,0.2525,0.2996,0.3589,0.3859,0.3889,0.3889,-1.3172,-1.3058,-1.2944,-1.2819,-1.2743,-1.2787,-1.2595,-1.2372,-1.2308,-1.241,-1.2524,-1.2431,-1.2621,-1.3067,-1.2828,-1.2631,-1.2558,-1.2944,-1.3088,-1.2946,-1.3458,-1.3714,-1.3627,-1.362,-1.3578,-1.3503,-1.3436,-1.341,-1.339,-1.3295,-1.3214,-1.32,-1.3064,-1.2989,-1.2969,-1.28,-1.2786,-1.2887,-1.2637,-1.2556,-1.2651,-1.2528,-1.2244,-1.1834,-1.1674,-1.1592,-1.1536,-1.1543,-1.1536,-1.1529,-1.1294,-1.1212,-1.1307,-1.1056,-1.0968,-1.1152,-1.1179,-1.1247,-1.1382,-1.1531,-1.1694,-1.178,-1.1847,-1.1813,-1.1877,-1.18,-1.1884,-1.207,-1.2091,-1.2098,-1.2125,-1.2077,-1.1959,-1.18,-1.1665,-1.159,-1.1584,-1.1584,-1.1584,-1.1584,-1.1469,-1.009,-0.7442,-0.6914,-0.5107,-0.3053,-0.22,-0.2188,-0.2199,-0.2192,-0.2189,-0.2189,-0.2189,-0.2189,-0.2189,-0.2189,-0.2189,-0.2189,-0.2189,-0.2189,-0.2189,-0.2189,-0.2189,-0.2189,-0.1953,-0.1818,-0.1818,-0.0937,0.0628,0.1488,0.2171,0.2754,0.3394,0.3764,0.3859,-1.3243,-1.3058,-1.2939,-1.2819,-1.271,-1.2705,-1.2542,-1.2345,-1.2334,-1.2245,-1.2176,-1.2155,-1.2191,-1.2244,-1.2074,-1.219,-1.2581,-1.2861,-1.283,-1.2656,-1.2928,-1.3001,-1.2887,-1.3124,-1.3242,-1.3206,-1.3405,-1.3492,-1.3403,-1.3342,-1.3322,-1.3295,-1.3207,-1.3139,-1.3111,-1.2989,-1.2948,-1.2982,-1.288,-1.2867,-1.2868,-1.282,-1.2664,-1.2368,-1.2074,-1.1857,-1.1719,-1.1631,-1.1584,-1.1584,-1.1416,-1.1335,-1.1375,-1.1294,-1.1253,-1.1307,-1.1402,-1.1518,-1.1667,-1.1816,-1.2002,-1.2115,-1.221,-1.2203,-1.2142,-1.2128,-1.2149,-1.2227,-1.2247,-1.2244,-1.2264,-1.2094,-1.1898,-1.183,-1.1671,-1.1584,-1.1584,-1.1584,-1.1584,-1.1469,-1.0779,-0.8909,-0.653,-0.545,-0.4586,-0.2753,-0.2225,-0.2199,-0.2184,-0.2203,-0.219,-0.2189,-0.2189,-0.2189,-0.2189,-0.2189,-0.2189,-0.2189,-0.2189,-0.2189,-0.2189,-0.2189,-0.2189,-0.2189,-0.2189,-0.2189,-0.1984,-0.1392,-0.0033,0.0874,0.1543,0.1954,0.2806,0.3083,0.3394,-1.3287,-1.3075,-1.2982,-1.2879,-1.2765,-1.2721,-1.2618,-1.246,-1.2432,-1.2307,-1.2159,-1.2025,-1.1944,-1.1862,-1.1748,-1.1883,-1.2387,-1.2565,-1.2557,-1.2364,-1.2611,-1.2692,-1.2612,-1.2854,-1.2914,-1.2868,-1.3027,-1.3085,-1.3002,-1.2982,-1.2982,-1.2975,-1.2883,-1.2837,-1.2811,-1.2693,-1.264,-1.2673,-1.2768,-1.2775,-1.2849,-1.2943,-1.2875,-1.2621,-1.2431,-1.225,-1.2016,-1.1952,-1.1877,-1.1816,-1.164,-1.1491,-1.1409,-1.1436,-1.1463,-1.1477,-1.1558,-1.1624,-1.1726,-1.1904,-1.2047,-1.2203,-1.2338,-1.2386,-1.2298,-1.2291,-1.2291,-1.2284,-1.2237,-1.2277,-1.2172,-1.1883,-1.172,-1.184,-1.1735,-1.1611,-1.1644,-1.1647,-1.1332,-1.0779,-0.9981,-0.7986,-0.5413,-0.4802,-0.3913,-0.2508,-0.2252,-0.2228,-0.2202,-0.2184,-0.2197,-0.219,-0.2189,-0.2189,-0.2189,-0.2189,-0.2189,-0.2155,-0.2189,-0.2189,-0.219,-0.219,-0.219,-0.2189,-0.2189,-0.2189,-0.1938,-0.1481,-0.0716,0.0258,0.0571,0.0842,0.1612,0.2342,0.2683,-1.3281,-1.3091,-1.3069,-1.2971,-1.2857,-1.2738,-1.2694,-1.2634,-1.2492,-1.2378,-1.2307,-1.2143,-1.2004,-1.1966,-1.1868,-1.1808,-1.1936,-1.2124,-1.2188,-1.2198,-1.2565,-1.2781,-1.275,-1.2679,-1.2699,-1.2706,-1.2399,-1.2257,-1.2218,-1.226,-1.2212,-1.2158,-1.2187,-1.2252,-1.2146,-1.2045,-1.1957,-1.2165,-1.2293,-1.2398,-1.2529,-1.2775,-1.2708,-1.2401,-1.2642,-1.2694,-1.2431,-1.2436,-1.2386,-1.2244,-1.1986,-1.1701,-1.1511,-1.1579,-1.1604,-1.1624,-1.1624,-1.1617,-1.1615,-1.172,-1.1844,-1.1989,-1.2192,-1.2166,-1.2119,-1.2163,-1.2177,-1.2126,-1.2076,-1.1967,-1.1739,-1.1529,-1.1531,-1.1959,-1.1677,-1.1547,-1.1703,-1.1671,-1.1002,-0.9693,-0.9074,-0.7914,-0.5634,-0.4395,-0.3729,-0.2695,-0.2285,-0.23,-0.2222,-0.2203,-0.2185,-0.22,-0.2123,-0.2054,-0.2122,-0.2155,-0.2155,-0.2155,-0.2189,-0.2189,-0.2196,-0.2197,-0.2197,-0.2196,-0.219,-0.2189,-0.2183,-0.1756,-0.1507,-0.0778,-0.0573,-0.0157,0.0592,0.1364,0.1912,-1.3197,-1.3156,-1.2917,-1.2852,-1.2857,-1.2672,-1.2591,-1.2569,-1.2465,-1.2356,-1.2274,-1.2198,-1.2118,-1.2132,-1.1993,-1.1938,-1.1922,-1.1958,-1.1887,-1.1866,-1.1984,-1.1984,-1.2038,-1.2213,-1.2495,-1.2612,-1.2453,-1.2259,-1.2185,-1.2161,-1.2166,-1.2087,-1.2069,-1.2069,-1.2063,-1.1981,-1.1928,-1.2073,-1.2055,-1.2071,-1.2237,-1.2335,-1.2272,-1.2015,-1.2131,-1.2077,-1.1907,-1.2364,-1.2551,-1.244,-1.225,-1.2054,-1.1918,-1.1999,-1.2081,-1.205,-1.1912,-1.1807,-1.1776,-1.1568,-1.1454,-1.146,-1.1549,-1.1517,-1.139,-1.1435,-1.1479,-1.1485,-1.1447,-1.1365,-1.1415,-1.1237,-1.1164,-1.1177,-1.1126,-1.1217,-1.1464,-1.1637,-1.0438,-0.8285,-0.7729,-0.6319,-0.3966,-0.3059,-0.2909,-0.2428,-0.2232,-0.2244,-0.2228,-0.2122,-0.22,-0.2187,-0.2037,-0.1786,-0.1784,-0.1717,-0.1649,-0.1821,-0.1958,-0.2058,-0.2097,-0.2206,-0.2206,-0.22,-0.2193,-0.2189,-0.2183,-0.2069,-0.1782,-0.1729,-0.1446,-0.0888,-0.022,0.0405,0.0993,-1.3268,-1.3159,-1.295,-1.2825,-1.2797,-1.2569,-1.2498,-1.2455,-1.2405,-1.2312,-1.2285,-1.2236,-1.2219,-1.2203,-1.2091,-1.2058,-1.2047,-1.1976,-1.1884,-1.1724,-1.167,-1.1639,-1.157,-1.1782,-1.2008,-1.21,-1.1978,-1.1855,-1.1727,-1.1674,-1.161,-1.1581,-1.157,-1.157,-1.1564,-1.1494,-1.1494,-1.1588,-1.1653,-1.1735,-1.1843,-1.2027,-1.1943,-1.1747,-1.1817,-1.175,-1.1543,-1.2061,-1.2278,-1.2096,-1.1985,-1.1867,-1.1789,-1.1816,-1.1906,-1.1849,-1.1747,-1.1598,-1.1611,-1.1386,-1.1262,-1.1231,-1.1244,-1.1195,-1.1042,-1.108,-1.1031,-1.1031,-1.1025,-1.1048,-1.0992,-1.0907,-1.0753,-1.053,-1.0726,-1.0908,-1.1195,-1.1505,-1.0158,-0.7838,-0.6914,-0.5296,-0.2992,-0.2041,-0.2041,-0.1966,-0.1884,-0.1869,-0.186,-0.1799,-0.1816,-0.1796,-0.1572,-0.1425,-0.1415,-0.1313,-0.1144,-0.1384,-0.166,-0.1795,-0.1898,-0.211,-0.2181,-0.2201,-0.2192,-0.219,-0.2185,-0.2178,-0.2026,-0.2099,-0.2076,-0.1643,-0.1021,-0.0503,0.0062,-1.3444,-1.3181,-1.3096,-1.2906,-1.271,-1.252,-1.2433,-1.2439,-1.2281,-1.2279,-1.2334,-1.2263,-1.2219,-1.2219,-1.2203,-1.2198,-1.2214,-1.2198,-1.2085,-1.1982,-1.1889,-1.1781,-1.1623,-1.1598,-1.1577,-1.1428,-1.1324,-1.1154,-1.1076,-1.0988,-1.0712,-1.0848,-1.0889,-1.0753,-1.0884,-1.0742,-1.0809,-1.0898,-1.1178,-1.1333,-1.1397,-1.1736,-1.1778,-1.1392,-1.1677,-1.1665,-1.1318,-1.1528,-1.1658,-1.1461,-1.1399,-1.1377,-1.128,-1.1242,-1.1338,-1.1344,-1.1215,-1.1227,-1.1215,-1.1134,-1.1113,-1.1134,-1.1125,-1.1152,-1.0987,-1.0856,-1.0766,-1.0774,-1.0774,-1.0734,-1.0585,-1.055,-1.0402,-1.0142,-1.0483,-1.075,-1.082,-1.1283,-0.9838,-0.7191,-0.6444,-0.5646,-0.1942,-0.1608,-0.1571,-0.1422,-0.1311,-0.1341,-0.1295,-0.1319,-0.1165,-0.1118,-0.1176,-0.1061,-0.1021,-0.0814,-0.0712,-0.081,-0.1153,-0.1429,-0.1633,-0.1877,-0.2046,-0.2066,-0.2158,-0.219,-0.2186,-0.2181,-0.2172,-0.2154,-0.2138,-0.2127,-0.1813,-0.1212,-0.0885,-1.3246,-1.3159,-1.2922,-1.2814,-1.2786,-1.2547,-1.2422,-1.245,-1.2275,-1.2241,-1.2258,-1.2236,-1.2219,-1.2219,-1.2219,-1.2219,-1.2219,-1.2219,-1.2214,-1.2129,-1.2096,-1.19,-1.1616,-1.1514,-1.1488,-1.1444,-1.1401,-1.1297,-1.1063,-1.1009,-1.0949,-1.0831,-1.0831,-1.0831,-1.082,-1.0744,-1.0695,-1.0679,-1.0768,-1.0862,-1.0934,-1.1029,-1.0987,-1.0945,-1.1029,-1.1012,-1.0854,-1.0937,-1.1195,-1.1527,-1.1546,-1.1482,-1.1442,-1.1442,-1.1402,-1.1402,-1.1203,-1.1044,-1.1004,-1.0804,-1.0628,-1.0532,-1.0657,-1.0527,-1.0347,-1.0364,-1.0314,-1.028,-1.0314,-1.0336,-1.0258,-1.0173,-1.0078,-1.0108,-1.0224,-1.042,-1.0509,-1.077,-0.9813,-0.6818,-0.6196,-0.4481,-0.2262,-0.122,-0.129,-0.1173,-0.1096,-0.1095,-0.0981,-0.0972,-0.0891,-0.0922,-0.0914,-0.0764,-0.0584,-0.0377,-0.0273,-0.0304,-0.0577,-0.0959,-0.1232,-0.1576,-0.1703,-0.1758,-0.199,-0.2054,-0.2155,-0.2185,-0.2177,-0.217,-0.2157,-0.2109,-0.2097,-0.175,-0.1704,-1.3259,-1.3145,-1.289,-1.2792,-1.277,-1.253,-1.2422,-1.2471,-1.2281,-1.2252,-1.2274,-1.2236,-1.2219,-1.2219,-1.2219,-1.2219,-1.2219,-1.2219,-1.2219,-1.2161,-1.2107,-1.1971,-1.1792,-1.1667,-1.158,-1.1525,-1.1521,-1.139,-1.1188,-1.1128,-1.1063,-1.1009,-1.0998,-1.0971,-1.0869,-1.0814,-1.0744,-1.0695,-1.0666,-1.0672,-1.069,-1.0695,-1.0737,-1.0695,-1.0695,-1.0695,-1.0695,-1.069,-1.0873,-1.1172,-1.1225,-1.1225,-1.1225,-1.1225,-1.1225,-1.1225,-1.098,-1.0904,-1.0857,-1.0653,-1.0503,-1.0443,-1.0465,-1.0384,-1.0269,-1.0237,-1.0161,-1.0117,-1.0166,-0.9798,-0.9055,-0.8482,-0.8397,-0.8837,-0.9213,-0.9261,-0.9194,-0.9487,-0.8047,-0.5806,-0.4639,-0.3978,-0.1126,-0.0899,-0.0858,-0.0743,-0.0628,-0.0627,-0.0625,0.0,0.0,0.0,0.0,0.0,0.0,0.0,0.0,0.0,0.0,0.0,-0.0892,-0.1234,-0.1427,-0.1552,-0.1786,-0.1953,-0.2021,-0.2122,-0.2186,-0.2178,-0.2167,-0.2128,-0.2152,-0.2138,-0.2121,-1.3259,-1.3109,-1.2939,-1.2825,-1.271,-1.2541,-1.252,-1.2498,-1.233,-1.2286,-1.2383,-1.2243,-1.2258,-1.2188,-1.2236,-1.2219,-1.2219,-1.2219,-1.2219,-1.2192,-1.2138,-1.2009,-1.1982,-1.1835,-1.1737,-1.1656,-1.1586,-1.1472,-1.1352,-1.1199,-1.1145,-1.1123,-1.1118,-1.1069,-1.1014,-1.0971,-1.0852,-1.0777,-1.0733,-1.0717,-1.0728,-1.0712,-1.0695,-1.0695,-1.0695,-1.0695,-1.0695,-1.0695,-1.0762,-1.0732,-1.0695,-1.0757,-1.0721,-1.0726,-1.0721,-1.0751,-1.0782,-1.0746,-1.0721,-1.0699,-1.0674,-1.0641,-1.0606,-1.062,-1.052,-1.0405,-1.0302,-1.0264,-1.0253,-0.9487,-0.7989,-0.626,-0.6112,-0.7106,-0.7297,-0.7231,-0.713,-0.7564,-0.6622,-0.3208,-0.324,-0.2302,-0.099,0.0,0.0,0.0,0.0,0.0,0.0,0.0,0.0,0.0,0.0,0.0,0.0,0.0,0.0,0.0,0.0,0.0,0.0,-0.0922,-0.1151,-0.1313,-0.1447,-0.1616,-0.1851,-0.1953,-0.2054,-0.212,-0.2044,-0.2115,-0.2183,-0.2164,-0.2147,-1.3169,-1.3114,-1.2989,-1.2873,-1.2825,-1.2694,-1.264,-1.2656,-1.2515,-1.246,-1.2466,-1.2368,-1.2367,-1.235,-1.2269,-1.2219,-1.2219,-1.2219,-1.2219,-1.2214,-1.2156,-1.2181,-1.2132,-1.1933,-1.1773,-1.177,-1.1759,-1.1623,-1.1504,-1.1434,-1.1374,-1.1253,-1.1243,-1.1264,-1.1188,-1.1161,-1.1139,-1.1031,-1.0933,-1.0878,-1.0804,-1.0744,-1.0701,-1.0695,-1.0695,-1.0695,-1.0695,-1.0695,-1.0695,-1.0695,-1.0695,-1.0695,-1.0695,-1.0695,-1.0695,-1.0695,-1.0695,-1.0695,-1.0695,-1.0695,-1.0695,-1.069,-1.071,-1.0699,-1.0699,-1.0645,-1.0558,-1.0525,-1.0522,-0.9513,-0.7534,-0.6066,-0.5365,-0.5416,-0.5549,-0.5083,-0.4417,-0.5977,-0.5597,-0.3515,-0.2496,-0.2059,0.0,0.0,0.0,0.0,0.0,0.0,0.0,0.0,0.0,0.0,0.0,0.0,0.0,0.0,0.0,0.0,0.0,0.0,0.0,-0.0547,-0.0748,-0.0913,-0.101,-0.1245,-0.1515,-0.1649,-0.1717,-0.1818,-0.1987,-0.2088,-0.2153,-0.2142,-0.2172,-1.3069,-1.3109,-1.2939,-1.289,-1.2868,-1.2759,-1.2738,-1.2748,-1.2607,-1.252,-1.2585,-1.2487,-1.2411,-1.24,-1.2334,-1.2279,-1.223,-1.2219,-1.2219,-1.2219,-1.2219,-1.2219,-1.2209,-1.2053,-1.1966,-1.1911,-1.1895,-1.1786,-1.1656,-1.1563,-1.1504,-1.1438,-1.1389,-1.1363,-1.1324,-1.1281,-1.1204,-1.1112,-1.1041,-1.0982,-1.0916,-1.0862,-1.0744,-1.0706,-1.0695,-1.0695,-1.0695,-1.0695,-1.0695,-1.0695,-1.0695,-1.0695,-1.0695,-1.0695,-1.0695,-1.0695,-1.0695,-1.0695,-1.0695,-1.0695,-1.0695,-1.0695,-1.0695,-1.0695,-1.0695,-1.0695,-1.0668,-1.0459,-0.9765,-0.844,-0.5784,-0.3785,-0.315,-0.3797,-0.3855,-0.3437,-0.3098,-0.4128,-0.4266,-0.2053,-0.122,-0.0901,0.0,0.0,0.0,0.0,0.0,0.0,0.0,0.0,0.0,0.0,0.0,0.0,0.0,0.0,0.0,0.0,0.0,0.0,0.0,0.0,-0.0342,-0.051,-0.0709,-0.0943,-0.1178,-0.1279,-0.1414,-0.1616,-0.1818,-0.1987,-0.212,-0.2115,-0.2147,-1.3136,-1.3114,-1.296,-1.2917,-1.2895,-1.2792,-1.2792,-1.2841,-1.2678,-1.2661,-1.2694,-1.2564,-1.2498,-1.2449,-1.2405,-1.2334,-1.2247,-1.2219,-1.2219,-1.2219,-1.2219,-1.2219,-1.2203,-1.2112,-1.2074,-1.2015,-1.202,-1.1944,-1.1835,-1.1703,-1.1688,-1.1605,-1.1569,-1.1521,-1.1368,-1.1324,-1.1302,-1.1204,-1.115,-1.1096,-1.1009,-1.0971,-1.09,-1.0804,-1.0824,-1.0787,-1.0782,-1.076,-1.0733,-1.0764,-1.0706,-1.0695,-1.0695,-1.0695,-1.0695,-1.0695,-1.0695,-1.0695,-1.0695,-1.0695,-1.0695,-1.0695,-1.0695,-1.0695,-1.0695,-1.0695,-1.069,-0.9976,-0.8971,-0.6456,-0.3108,-0.1512,-0.126,-0.1844,-0.2163,-0.2197,-0.2229,-0.2194,-0.1489,0.0,0.0,0.0,0.0,0.0,0.0,0.0,0.0,0.0,0.0,0.0,0.0,0.0,0.0,0.0,0.0,0.0,0.0,0.0,0.0,0.0,0.0,0.0,0.0,0.0,-0.0474,0.0,0.0,-0.0875,-0.1077,-0.138,-0.1548,-0.1649,-0.1851,-0.2054,-0.2088,-1.3156,-1.3069,-1.3104,-1.3042,-1.3071,-1.2906,-1.2863,-1.2879,-1.2835,-1.2835,-1.2835,-1.2727,-1.2613,-1.2509,-1.2438,-1.2334,-1.2247,-1.2219,-1.2219,-1.2219,-1.2219,-1.2219,-1.2209,-1.2102,-1.208,-1.2129,-1.2129,-1.2063,-1.1987,-1.1938,-1.1851,-1.1797,-1.1754,-1.1672,-1.159,-1.1563,-1.1498,-1.1378,-1.1308,-1.1243,-1.1172,-1.1096,-1.1047,-1.1003,-1.0998,-1.1009,-1.0998,-1.0938,-1.0847,-1.0836,-1.0749,-1.0712,-1.0722,-1.0722,-1.0712,-1.0695,-1.0695,-1.0695,-1.0695,-1.0695,-1.0695,-1.0695,-1.0695,-1.0695,-1.0695,-1.0654,-1.0482,-0.9476,-0.755,-0.491,-0.294,-0.0967,0.0,0.0,0.0,0.0,0.0,0.0,0.0,0.0,0.0,0.0,0.0,0.0,0.0,0.0,0.0,0.0,0.0,0.0,0.0,0.0,0.0,0.0,0.0,0.0,0.0,0.0,0.0,0.0,0.0,0.0,0.0,0.0,0.0,0.0,0.0,0.0,-0.0673,-0.0909,-0.1077,-0.1279,-0.1515,-0.175,-0.1885,-1.3211,-1.3156,-1.3147,-1.3037,-1.2971,-1.2917,-1.289,-1.289,-1.289,-1.289,-1.2873,-1.2819,-1.2732,-1.2618,-1.2504,-1.2352,-1.2263,-1.2219,-1.2219,-1.2219,-1.2219,-1.2219,-1.2219,-1.2102,-1.2118,-1.2203,-1.2214,-1.2145,-1.2127,-1.2056,-1.1966,-1.1911,-1.1857,-1.1786,-1.1743,-1.1675,-1.1661,-1.1558,-1.1487,-1.1395,-1.1281,-1.1166,-1.1112,-1.1107,-1.1112,-1.1107,-1.1096,-1.1058,-1.1014,-1.1003,-1.096,-1.089,-1.0879,-1.0869,-1.0825,-1.0728,-1.0706,-1.0701,-1.0695,-1.0695,-1.0695,-1.0695,-1.0695,-1.0695,-1.0695,-1.0565,-0.9856,-0.7843,-0.5915,-0.3276,-0.1388,0.0,0.0,0.0,0.0,0.0,0.0,0.0,0.0,0.0,0.0,0.0,0.0,0.0,0.0,0.0,0.0,0.0,0.0,0.0,0.0,0.0,0.0,0.0,0.0,0.0,0.0,0.0,0.0,0.0,0.0,0.0,0.0,0.0,0.0,0.0,0.0,0.0,0.0,-0.0438,-0.0674,-0.0911,-0.1179,-0.1414,-0.1515,-1.3208,-1.3176,-1.314,-1.3037,-1.2933,-1.2895,-1.289,-1.289,-1.289,-1.289,-1.289,-1.2879,-1.2814,-1.2689,-1.2553,-1.2395,-1.2279,-1.2263,-1.2236,-1.2269,-1.2269,-1.2258,-1.2225,-1.2219,-1.2214,-1.2209,-1.217,-1.215,-1.2187,-1.2127,-1.2036,-1.2009,-1.1928,-1.1873,-1.1862,-1.1851,-1.1775,-1.1665,-1.1667,-1.1552,-1.1373,-1.1237,-1.1172,-1.1177,-1.1177,-1.1188,-1.1204,-1.1156,-1.1139,-1.1123,-1.1107,-1.109,-1.1101,-1.1101,-1.1009,-1.0809,-1.0813,-1.0771,-1.0771,-1.078,-1.0791,-1.0797,-1.0712,-1.0695,-1.0529,-0.9981,-0.8678,-0.5496,-0.3749,-0.2111,0.0,0.0,0.0,0.0,0.0,0.0,0.0,0.0,0.0,0.0,0.0,0.0,0.0,0.0,0.0,0.0,0.0,0.0,0.0,0.0,0.0,0.0,0.0,0.0,0.0,0.0,0.0,0.0,0.0,0.0,0.0,0.0,0.0,0.0,0.0,0.0,0.0,0.0,0.0,-0.0274,-0.0339,-0.0542,-0.0815,-0.098,-0.1077,-1.3284,-1.3186,-1.317,-1.3151,-1.3037,-1.2939,-1.289,-1.289,-1.289,-1.289,-1.289,-1.2884,-1.2819,-1.2683,-1.2493,-1.2439,-1.2401,-1.2303,-1.2259,-1.2372,-1.2378,-1.2334,-1.2199,-1.2219,-1.2241,-1.2225,-1.2132,-1.2127,-1.2187,-1.2145,-1.214,-1.217,-1.2148,-1.2127,-1.1976,-1.1971,-1.1911,-1.1819,-1.1797,-1.1726,-1.1546,-1.1471,-1.1466,-1.145,-1.1455,-1.1439,-1.1417,-1.1352,-1.127,-1.1286,-1.1161,-1.1118,-1.1107,-1.1107,-1.1096,-1.1069,-1.1058,-1.1015,-1.0806,-1.0604,-1.0302,-1.0197,-1.0399,-1.0628,-1.0095,-0.8705,-0.6682,-0.3444,-0.2666,-0.1871,0.0,0.0,0.0,0.0,0.0,0.0,0.0,0.0,0.0,0.0,0.0,0.0,0.0,0.0,0.0,0.0,0.0,0.0,0.0,0.0,0.0,0.0,0.0,0.0,0.0,0.0,0.0,0.0,0.0,0.0,0.0,0.0,0.0,0.0,0.0,0.0,0.0,0.0,0.0,0.0,0.0,0.0,-0.048,0.0,0.0,-1.3235,-1.3192,-1.3262,-1.3238,-1.3125,-1.3065,-1.295,-1.2895,-1.289,-1.289,-1.289,-1.289,-1.2819,-1.27,-1.2585,-1.2542,-1.2515,-1.2417,-1.2401,-1.2444,-1.2449,-1.2422,-1.2379,-1.2361,-1.2323,-1.229,-1.2214,-1.2129,-1.2214,-1.223,-1.2219,-1.2219,-1.2219,-1.2145,-1.2091,-1.2138,-1.202,-1.1933,-1.1857,-1.1797,-1.1692,-1.1683,-1.1623,-1.1563,-1.1623,-1.1625,-1.1532,-1.1493,-1.1433,-1.1439,-1.1363,-1.1346,-1.1302,-1.1215,-1.0951,-0.9668,-0.9619,-0.9568,-0.9419,-0.9368,-0.8916,-0.8432,-0.8654,-0.92,-0.8752,-0.6756,-0.4788,-0.2969,-0.1736,0.0,0.0,0.0,0.0,0.0,0.0,0.0,0.0,0.0,0.0,0.0,0.0,0.0,0.0,0.0,0.0,0.0,0.0,0.0,0.0,0.0,0.0,0.0,0.0,0.0,0.0,0.0,0.0,0.0,0.0,0.0,0.0,0.0,0.0,0.0,0.0,0.0,0.0,0.0,0.0,0.0,0.0,0.0,0.0,0.0,0.0,-1.1883,-1.2461,-1.3125,-1.3287,-1.3075,-1.3069,-1.2999,-1.2895,-1.289,-1.289,-1.289,-1.2884,-1.2835,-1.2754,-1.2716,-1.2667,-1.258,-1.2515,-1.2509,-1.252,-1.2526,-1.2553,-1.2509,-1.2444,-1.2481,-1.2449,-1.2324,-1.2286,-1.2275,-1.2318,-1.2259,-1.2225,-1.2219,-1.2241,-1.2252,-1.2219,-1.2107,-1.2042,-1.1928,-1.1873,-1.1851,-1.1773,-1.1759,-1.1686,-1.1697,-1.1732,-1.1596,-1.1623,-1.1618,-1.1574,-1.1597,-1.1368,-1.0775,-1.0416,-0.9559,-0.833,-0.7825,-0.7406,-0.719,-0.6963,-0.6625,-0.6395,-0.6246,-0.7216,-0.6357,-0.4003,-0.2274,-0.1888,-0.0987,0.0,0.0,0.0,0.0,0.0,0.0,0.0,0.0,0.0,0.0,0.0,0.0,0.0,0.0,0.0,0.0,0.0,0.0,0.0,0.0,0.0,0.0,0.0,0.0,0.0,0.0,0.0,0.0,0.0,0.0,0.0,0.0,0.0,0.0,0.0,0.0,0.0,0.0,0.0,0.0,0.0,0.0,0.0,0.0,0.0,0.0,-0.8277,-1.0374,-1.2422,-1.3137,-1.2973,-1.3069,-1.3004,-1.264,-1.2845,-1.2895,-1.289,-1.289,-1.2879,-1.2846,-1.2776,-1.277,-1.2841,-1.2634,-1.2634,-1.2672,-1.2689,-1.2645,-1.2613,-1.2613,-1.2607,-1.2531,-1.2466,-1.2417,-1.2342,-1.1956,-1.2107,-1.2205,-1.2095,-1.227,-1.19,-1.1355,-1.1257,-1.1197,-1.1111,-1.1429,-1.1537,-1.1623,-1.1646,-1.1773,-1.1819,-1.1808,-1.1792,-1.1797,-1.1461,-1.1429,-1.1282,-1.0364,-0.9247,-0.8932,-0.7878,-0.6449,-0.5922,-0.521,-0.4324,-0.493,-0.5547,-0.5528,-0.5248,-0.4838,-0.4145,-0.3304,-0.1953,0.0,0.0,0.0,0.0,0.0,0.0,0.0,0.0,0.0,0.0,0.0,0.0,0.0,0.0,0.0,0.0,0.0,0.0,0.0,0.0,0.0,0.0,0.0,0.0,0.0,0.0,0.0,0.0,0.0,0.0,0.0,0.0,0.0,0.0,0.0,0.0,0.0,0.0,0.0,0.0,0.0,0.0,0.0,0.0,0.0,0.0,0.0,0.0,-0.7156,-0.8088,-0.8988,-1.0045,-1.133,-1.2683,-1.2359,-1.1356,-1.2407,-1.3005,-1.2784,-1.289,-1.289,-1.2818,-1.2852,-1.2841,-1.2873,-1.2814,-1.2638,-1.2797,-1.2808,-1.2786,-1.2759,-1.2458,-1.2678,-1.2433,-1.2433,-1.2488,-1.2428,-1.1182,-1.0595,-1.0661,-1.1422,-1.1298,-1.0776,-0.9446,-0.8828,-0.8634,-0.8691,-0.8897,-1.0155,-1.0268,-1.0683,-1.1881,-1.2015,-1.1938,-1.1857,-1.1895,-1.1171,-1.0313,-1.0027,-0.8735,-0.7306,-0.6983,-0.5872,-0.4302,-0.4006,-0.3034,-0.2016,-0.2797,-0.383,-0.3602,-0.2884,-0.2257,-0.234,-0.1805,-0.0966,0.0,0.0,0.0,0.0,0.0,0.0,0.0,0.0,0.0,0.0,0.0,0.0,0.0,0.0,0.0,0.0,0.0,0.0,0.0,0.0,0.0,0.0,0.0,0.0,0.0,0.0,0.0,0.0,0.0,0.0,0.0,0.0,0.0,0.0,0.0,0.0,0.0,0.0,0.0,0.0,0.0,0.0,0.0,0.0,0.0,0.0,0.0,0.0,-0.5107,-0.5763,-0.5819,-0.7024,-0.9106,-1.0687,-1.0364,-0.9225,-1.029,-1.1042,-1.1018,-1.1523,-1.1473,-1.1273,-1.1723,-1.1218,-1.0767,-1.0604,-1.0758,-1.0658,-1.0558,-1.0968,-1.094,-1.0708,-1.0221,-1.0789,-1.0756,-1.0473,-1.0187,-0.9034,-0.8588,-0.8887,-0.9719,-0.9317,-0.8502,-0.7074,-0.6115,-0.6118,-0.6245,-0.6605,-0.8123,-0.8277,-0.8514,-0.9821,-0.9917,-0.9843,-0.9662,-0.9568,-0.919,-0.8412,-0.7788,-0.6851,-0.5686,-0.4659,-0.3821,-0.2749,0.0,0.0,0.0,-0.1054,-0.2034,-0.1802,-0.1126,-0.1079,0.0,0.0,0.0,0.0,0.0,0.0,0.0,0.0,0.0,0.0,0.0,0.0,0.0,0.0,0.0,0.0,0.0,0.0,0.0,0.0,0.0,0.0,0.0,0.0,0.0,0.0,0.0,0.0,0.0,0.0,0.0,0.0,0.0,0.0,0.0,0.0,0.0,0.0,0.0,0.0,0.0,0.0,0.0,0.0,0.0,0.0,0.0,0.0,0.0,0.0,0.0,-0.1575,-0.3397,-0.3448,-0.4691,-0.6447,-0.6752,-0.6791,-0.6558,-0.6973,-0.7151,-0.7496,-0.8905,-0.8754,-0.7848,-0.9155,-0.8905,-0.7797,-0.7346,-0.7295,-0.7546,-0.7848,-0.7095,-0.7142,-0.7383,-0.7871,-0.6785,-0.7268,-0.7655,-0.7071,-0.6656,-0.6464,-0.6217,-0.6453,-0.6492,-0.6308,-0.6255,-0.6124,-0.5979,-0.5678,-0.5692,-0.6049,-0.6164,-0.6458,-0.7093,-0.7294,-0.7377,-0.7416,-0.7416,-0.6983,-0.6288,-0.6107,-0.502,-0.336,-0.3031,-0.2133,-0.0665,0.0,0.0,0.0,0.0,0.0,0.0,0.0,0.0,0.0,0.0,0.0,0.0,0.0,0.0,0.0,0.0,0.0,0.0,0.0,0.0,0.0,0.0,0.0,0.0,0.0,0.0,0.0,0.0,0.0,0.0,0.0,0.0,0.0,0.0,0.0,0.0,0.0,0.0,0.0,0.0,0.0,0.0,0.0,0.0,0.0,0.0,0.0,0.0,0.0,0.0,0.0,0.0,0.0,0.0,0.0,0.0,0.0,0.0,0.0,-0.0435,-0.1133,-0.1133,-0.1554,-0.2647,-0.5505,-0.5832,-0.4716,-0.5697,-0.6391,-0.6492,-0.7346,-0.7245,-0.6894,-0.6891,-0.6994,-0.6391,-0.6391,-0.6391,-0.6241,-0.609,-0.6442,-0.6291,-0.5889,-0.614,-0.6341,-0.6391,-0.609,-0.6537,-0.5087,-0.4332,-0.408,-0.3375,-0.302,-0.3364,-0.3159,-0.2049,-0.2032,-0.2077,-0.2562,-0.3857,-0.4106,-0.459,-0.5764,-0.5784,-0.572,-0.5673,-0.5543,-0.5101,-0.4206,-0.4068,-0.3117,0.0,0.0,0.0,0.0,0.0,0.0,0.0,0.0,0.0,0.0,0.0,0.0,0.0,0.0,0.0,0.0,0.0,0.0,0.0,0.0,0.0,0.0,0.0,0.0,0.0,0.0,0.0,0.0,0.0,0.0,0.0,0.0,0.0,0.0,0.0,0.0,0.0,0.0,0.0,0.0,0.0,0.0,0.0,0.0,0.0,0.0,0.0,0.0,0.0,0.0,0.0,0.0,0.0,0.0,0.0,0.0,0.0,0.0,0.0,0.0,0.0,0.0,0.0,0.0,0.0,0.0,0.0,0.0,-0.32,-0.3505,-0.2477,-0.3578,-0.4181,-0.428,-0.4833,-0.4732,-0.4531,-0.4933,-0.4581,-0.4281,-0.413,-0.413,-0.4181,-0.413,-0.3828,-0.3929,0.0,-0.3627,0.0,0.0,-0.403,-0.3728,-0.2723,-0.2169,-0.1715,0.0,-0.116,-0.1462,-0.0907,0.0,0.0,0.0,-0.0896,-0.1683,-0.2123,-0.2567,-0.3388,-0.3726,-0.3774,-0.3898,0.0,0.0,0.0,0.0,0.0,0.0,0.0,0.0,0.0,0.0,0.0,0.0,0.0,0.0,0.0,0.0,0.0,0.0,0.0,0.0,0.0,0.0,0.0,0.0,0.0,0.0,0.0,0.0,0.0,0.0,0.0,0.0,0.0,0.0,0.0,0.0,0.0,0.0,0.0,0.0,0.0,0.0,0.0,0.0,0.0,0.0,0.0,0.0,0.0,0.0,0.0,0.0,0.0,0.0,0.0,0.0,0.0,0.0,0.0,0.0,0.0,0.0,0.0,0.0,0.0,0.0,0.0,0.0,0.0,0.0,0.0,0.0,0.0,0.0,0.0,0.0,0.0,0.0,0.0,-0.2471,-0.237,-0.1009,-0.2269,-0.2168,0.0,0.0,0.0,0.0,0.0,0.0,0.0,0.0,0.0,0.0,0.0,0.0,0.0,0.0,0.0,0.0,0.0,0.0,0.0,0.0,0.0,0.0,0.0,0.0,0.0,0.0,0.0,0.0,0.0,0.0,0.0,0.0,0.0,0.0,0.0,0.0,0.0,0.0,0.0,0.0,0.0,0.0,0.0,0.0,0.0,0.0,0.0,0.0,0.0,0.0,0.0,0.0,0.0,0.0,0.0,0.0,0.0,0.0,0.0,0.0,0.0,0.0,0.0,0.0,0.0,0.0,0.0,0.0,0.0,0.0,0.0,0.0,0.0,0.0,0.0,0.0,0.0,0.0,0.0,0.0,0.0,0.0,0.0,0.0,0.0,0.0,0.0,0.0,0.0,0.0,0.0,0.0,0.0,0.0,0.0,0.0,0.0,0.0,0.0,0.0,0.0,0.0,0.0,0.0,0.0,0.0,0.0,0.0,0.0,0.0,0.0,0.0,-0.0151,-0.0656,0.0,0.0,0.0,0.0,0.0,0.0,0.0,0.0,0.0,0.0,0.0,0.0,0.0,0.0,0.0,0.0,0.0,0.0,0.0,0.0,0.0,0.0,0.0,0.0,0.0,0.0,0.0,0.0,0.0,0.0,0.0,0.0,0.0,0.0,0.0,0.0,0.0,0.0,0.0,0.0,0.0,0.0,0.0,0.0,0.0,0.0,0.0,0.0,0.0,0.0,0.0,0.0,0.0,0.0,0.0,0.0,0.0,0.0,0.0,0.0,0.0,0.0,0.0,0.0,0.0,0.0,0.0,0.0,0.0,0.0,0.0,0.0,0.0,0.0,0.0,0.0,0.0,0.0,0.0,0.0,0.0,0.0,0.0,0.0,0.0,0.0,0.0,0.0,0.0,0.0,0.0,0.0,0.0,0.0,0.0,0.0,0.0,0.0,0.0,0.0,0.0,0.0,0.0,0.0,0.0,0.0,0.0,0.0,0.0,0.0,0.0,0.0,0.0,0.0,0.0,0.0,0.0,0.0,0.0,0.0,0.0,0.0,0.0,0.0,0.0,0.0,0.0,0.0,0.0,0.0,0.0,0.0,0.0,0.0,0.0,0.0,0.0,0.0,0.0,0.0,0.0,0.0,0.0,0.0,0.0,0.0,0.0,0.0,0.0,0.0,0.0,0.0,0.0,0.0,0.0,0.0,0.0,0.0,0.0,0.0,0.0,0.0,0.0,0.0,0.0,0.0,0.0,0.0,0.0,0.0,0.0,0.0,0.0,0.0,0.0,0.0,0.0,0.0,0.0,0.0,0.0,0.0,0.0,0.0,0.0,0.0,0.0,0.0,0.0,0.0,0.0,0.0,0.0,0.0,0.0,0.0,0.0,0.0,0.0,0.0,0.0,0.0,0.0,0.0,0.0,0.0,0.0,0.0,0.0,0.0,0.0,0.0,0.0,0.0,0.0,0.0,0.0,0.0,0.0,0.0,0.0,0.0,0.0,0.0,0.0,0.0,0.0,0.0,0.0,0.0,0.0,0.0,0.0,0.0,0.0,0.0,0.0,0.0,0.0,0.0,0.0,0.0,0.0,0.0,0.0,0.0,0.0,0.0,0.0,0.0,0.0,0.0,0.0,0.0,0.0,0.0,0.0,0.0,0.0,0.0,0.0,0.0,0.0,0.0,0.0,0.0,0.0,0.0,0.0,0.0,0.0,0.0,0.0,0.0,0.0,0.0,0.0,0.0,0.0,0.0,0.0,0.0,0.0,0.0,0.0,0.0,0.0,0.0,0.0,0.0,0.0,0.0,0.0,0.0,0.0,0.0,0.0,0.0,0.0,0.0,0.0,0.0,0.0,0.0,0.0,0.0,0.0,0.0,0.0,0.0,0.0,0.0,0.0,0.0,0.0,0.0,0.0,0.0,0.0,0.0,0.0,0.0,0.0,0.0,0.0,0.0,0.0,0.0,0.0,0.0,0.0,0.0,0.0,0.0,0.0,0.0,0.0,0.0,0.0,0.0,0.0,0.0,0.0,0.0,0.0,0.0,0.0,0.0,0.0,0.0,0.0,0.0,0.0,0.0,0.0,0.0,0.0,0.0,0.0,0.0,0.0,0.0,0.0,0.0,0.0,0.0,0.0,0.0,0.0,0.0,0.0,0.0,0.0,0.0,0.0,0.0,0.0,0.0,0.0,0.0,0.0,0.0,0.0,0.0,0.0,0.0,0.0,0.0,0.0,0.0,0.0,0.0,0.0,0.0,0.0,0.0,0.0,0.0,0.0,0.0,0.0,0.0,0.0,0.0,0.0,0.0,0.0,0.0,0.0,0.0,0.0,0.0,0.0,0.0,0.0,0.0,0.0,0.0,0.0,0.0,0.0,0.0,0.0,0.0,0.0,0.0,0.0,0.0,0.0,0.0,0.0,0.0,0.0,0.0,0.0,0.0,0.0,0.0,0.0,0.0,0.0,0.0,0.0,0.0,0.0,0.0,0.0,0.0,0.0,0.0,0.0,0.0,0.0,0.0,0.0,0.0,0.0,0.0,0.0,0.0,0.0,0.0,0.0,0.0,0.0,0.0,0.0,0.0,0.0,0.0,0.0,0.0,0.0,0.0,0.0,0.0,0.0,0.0,0.0,0.0,0.0,0.0,0.0,0.0,0.0,0.0,0.0,0.0,0.0,0.0,0.0,0.0,0.0,0.0,0.0,0.0,0.0,0.0,0.0,0.0,0.0,0.0,0.0,0.0,0.0,0.0,0.0,0.0,0.0,0.0,0.0,0.0,0.0,0.0,0.0,0.0,0.0,0.0,0.0,0.0,0.0,0.0,0.0,0.0,0.0,0.0,0.0,0.0,0.0,0.0,0.0,0.0,0.0,0.0,0.0,0.0,0.0,0.0,0.0,0.0,0.0,0.0,0.0,0.0,0.0,0.0,0.0,0.0,0.0,0.0,0.0,0.0,0.0,0.0,0.0,0.0,0.0,0.0,0.0,0.0,0.0,0.0,0.0,0.0,0.0,0.0,0.0,0.0,0.0,0.0,0.0,0.0,0.0,0.0,0.0,0.0,0.0,0.0,0.0,0.0,0.0,0.0,0.0,0.0,0.0,0.0,0.0,0.0,0.0,0.0,0.0,0.0,0.0,0.0,0.0,0.0,0.0,0.0,0.0,0.0,0.0,0.0,0.0,0.0,0.0,0.0,0.0,0.0,0.0,0.0,0.0,0.0,0.0,0.0,0.0,0.0,0.0,0.0,0.0,0.0,0.0,0.0,0.0,0.0,0.0,0.0,0.0,0.0,0.0,0.0,0.0,0.0,0.0,0.0,0.0,0.0,0.0,0.0,0.0,0.0,0.0,0.0,0.0,0.0,0.0,0.0,0.0,0.0,0.0,0.0,0.0,0.0,0.0,0.0,0.0,0.0,0.0,0.0,0.0,0.0,0.0,0.0,0.0,0.0,0.0,0.0,0.0,0.0,0.0,0.0,0.0,0.0,0.0,0.0,0.0,0.0,0.0,0.0,0.0,0.0,0.0,0.0,0.0,0.0,0.0,0.0,0.0,0.0,0.0,0.0,0.0,0.0,0.0,0.0,0.0,0.0,0.0,0.0,0.0,0.0,0.0,0.0,0.0,0.0,0.0,0.0,0.0,0.0,0.0,0.0,0.0,0.0,0.0,0.0,0.0,0.0,0.0,0.0,0.0,0.0,0.0,0.0,0.0,0.0,0.0,0.0,0.0,0.0,0.0,0.0,0.0,0.0,0.0,0.0,0.0,0.0,0.0,0.0,0.0,0.0,0.0,0.0,0.0,0.0,0.0,0.0,0.0,0.0,0.0,0.0,0.0,0.0,0.0,0.0,0.0,0.0,0.0,0.0,0.0,0.0,0.0,0.0,0.0,0.0,0.0,0.0,0.0,0.0,0.0,0.0,0.0,0.0,0.0,0.0,0.0,0.0,0.0,0.0,0.0,0.0,0.0,0.0,0.0,0.0,0.0,0.0,0.0,0.0,0.0,0.0]},{"header":{"parameterUnit":"m.s-1","parameterCategory":1,"la1":31.0,"la2":29.5877,"lo1":-88.7671,"lo2":-86.6584,"dy":0.0162,"dx":0.0185,"nx":115,"ny":88,"refTime":"2024-06-18T12:00:00:Z","depth":0,"parameterNumber":3,"parameterNumberName":"V-component_of_WINDS"},"data":[0.0,0.0,0.0,0.0,0.0,0.0,0.0,0.0,0.0,0.0,0.0,0.0,0.0,0.0,0.0,0.0,0.0,0.0,0.0,0.0,0.0,0.0,0.0,0.0,0.0,0.0,0.0,0.0,0.0,0.0,0.0,0.0,0.0,0.0,0.0,0.0,0.0,0.0,0.0,0.0,0.0,0.0,0.0,0.0,0.0,0.0,0.0,0.0,0.0,0.0,0.0,0.0,0.0,0.0,0.0,0.0,0.0,0.0,0.0,0.0,0.0,0.0,0.0,0.0,0.0,0.0,0.0,0.0,0.0,0.0,0.0,0.0,0.0,0.0,0.0,0.0,0.0,0.0,0.0,0.0,0.0,0.0,0.0,0.0,0.0,0.0,0.0,0.0,0.0,0.0,0.0,0.0,0.0,0.0,0.0,0.0,0.0,0.0,0.0,0.0,0.0,0.0,0.0,0.0,0.0,0.0,0.0,0.0,0.0,0.0,0.0,0.0,0.0,0.0,0.0,0.0,0.0,0.0,0.0,0.0,0.0,0.0,0.0,0.0,0.0,0.0,0.0,0.0,0.0,0.0,0.0,0.0,0.0,0.0,0.0,0.0,0.0,0.0,0.0,0.0,0.0,0.0,0.0,0.0,0.0,0.0,0.0,0.0,0.0,0.0,0.0,0.0,0.0,0.0,0.0,0.0,0.0,0.0,0.0,0.0,0.0,0.0,0.0,0.0,0.0,0.0,0.0,0.0,0.0,0.0,0.0,0.0,0.0,0.0,0.0,0.0,0.0,0.0,0.0,0.0,0.0,0.0,0.0,0.0,0.0,0.0,0.0,0.0,0.0,0.0,0.0,0.0,0.0,0.0,0.0,0.0,0.0,0.0,0.0,0.0,0.0,0.0,0.0,0.0,0.0,0.0,0.0,0.0,0.0,0.0,0.0,0.0,0.0,0.0,0.0,0.0,0.0,0.0,0.0,0.0,0.0,0.0,0.0,0.0,0.0,0.0,0.0,0.0,0.0,0.0,0.0,0.0,0.0,0.0,0.0,0.0,0.0,0.0,0.0,0.0,0.0,0.0,0.0,0.0,0.0,0.0,0.0,0.0,0.0,0.0,0.0,0.0,0.0,0.0,0.0,0.0,0.0,0.0,0.0,0.0,0.0,0.0,0.0,0.0,0.0,0.0,0.0,0.0,0.0,0.0,0.0,0.0,0.0,0.0,0.0,0.0,0.0,0.0,0.0,0.0,0.0,0.0,0.0,0.0,0.0,0.0,0.0,0.0,0.0,0.0,0.0,0.0,0.0,0.0,0.0,0.0,0.0,0.0,0.0,0.0,0.0,0.0,0.0,0.0,0.0,0.0,0.0,0.0,0.0,0.0,0.0,0.0,0.0,0.0,0.0,0.0,0.0,0.0,0.0,0.0,0.0,0.0,0.0,0.0,0.0,0.0,0.0,0.0,0.0,0.0,0.0,0.0,0.0,0.0,0.0,0.0,0.0,0.0,0.0,0.0,0.0,0.0,0.0,0.0,0.0,0.0,0.0,0.0,0.0,0.0,0.0,0.0,0.0,0.0,0.0,0.0,0.0,0.0,0.0,0.0,0.0,0.0,0.0,0.0,0.0,0.0,0.0,0.0,0.0,0.0,0.0,0.0,0.0,0.0,0.0,0.0,0.0,0.0,0.0,0.0,0.0,0.0,0.0,0.0,0.0,0.0,0.0,0.0,0.0,0.0,0.0,0.0,0.0,0.0,0.0,0.0,0.0,0.0,0.0,0.0,0.0,0.0,0.0,0.0,0.0,0.0,0.0,0.0,0.0,0.0,0.0,0.0,0.0,0.0,0.0,0.0,0.0,0.0,0.0,0.0,0.0,0.0,0.0,0.0,0.0,0.0,0.0,0.0,0.0,0.0,0.0,0.0,0.0,0.0,0.0,0.0,0.0,0.0,0.0,0.0,0.0,0.0,0.0,0.0,0.0,0.0,0.0,0.0,0.0,0.0,0.0,0.0,0.0,0.0,0.0,0.0,0.0,0.0,0.0,0.0,0.0,0.0,0.0,0.0,0.0,0.0,0.0,0.0,0.0,0.0,0.0,0.0,0.0,0.0,0.0,0.0,0.0,0.0,0.0,0.0,0.0,0.0,0.0,0.0,0.0,0.0,0.0,0.0,0.0,0.0,0.0,0.0,0.0,0.0,0.0,0.0,0.0,0.0,0.0,0.0,0.0,0.0,0.0,0.0,0.0,0.0,0.0,0.0,0.0,0.0,0.0,0.0,0.0,0.0,0.0,0.0,0.0,0.0,0.0,0.0,0.0,0.0,0.0,0.0,0.0,0.0,0.0,0.0,0.0,0.0,0.0,0.0,0.0,0.0,0.0,0.0,0.0,0.0,0.0,0.0,0.0,0.0,0.0,0.0,0.0,0.0,0.0,0.0,0.0,0.0,0.0,0.0,0.0,0.0,0.0,0.0,0.0,0.0,0.0,0.0,0.0,0.0,0.0,0.0,0.0,0.0,0.0,0.0,0.0,0.0,0.0,0.0,0.0,0.0,0.0,0.0,0.0,0.0,0.0,0.0,0.0,0.0,0.0,0.0,0.0,0.0,0.0,0.0,0.0,0.0,0.0,0.0,0.0,0.0,0.0,0.0,0.0,0.0,0.0,0.0,0.0,0.0,0.0,0.0,0.0,0.0,0.0,0.0,0.0,0.0,0.0,0.0,0.0,0.0,0.0,0.0,0.0,0.0,0.0,0.0,0.0,0.0,0.0,0.0,0.0,0.0,0.0,0.0,0.0,0.0,0.0,0.0,0.0,0.0,0.0,0.0,0.0,0.0,0.0,0.0,0.0,0.0,0.0,0.0,0.0,0.0,0.0,0.0,0.0,0.0,0.0,0.0,0.0,0.0,0.0,0.0,0.0,0.0,0.0,0.0,0.0,0.0,0.0,0.0,0.0,0.0,0.0,0.0,0.0,0.0,0.0,0.0,0.0,0.0,0.0,0.0,0.0,0.0,0.0,0.0,0.0,0.0,0.0,0.0,0.0,0.0,0.0,0.0,0.0,0.0,0.0,0.0,0.0,0.0,0.0,0.0,0.0,0.0,0.0,0.0,0.0,0.0,0.0,0.0,0.0,0.0,0.0,0.0,0.0,0.0,0.0,0.0,0.0,0.0,0.0,0.0,0.0,0.0,0.0,0.0,0.0,0.0,0.0,0.0,0.0,0.0,0.0,0.0,0.0,0.0,0.0,0.0,0.0,0.0,0.0,0.0,0.0,0.0,0.0,0.0,0.0,0.0,0.0,0.0,0.0,0.0,0.0,0.0,0.0,0.0,0.0,0.0,0.0,0.0,0.0,0.0,0.0,0.0,0.0,0.0,0.0,0.0,0.0,0.0,0.0,0.0,0.0,0.0,0.0,0.0,0.0,0.0,0.0,0.0,0.0,0.0,0.0,0.0,0.0,0.0,0.0,0.0,0.0,0.0,0.0,0.0,0.0,0.0,0.0,0.0,0.0,0.0,0.0,0.0,0.0,0.0,0.0,0.0,0.0,0.0,0.0,0.0,0.0,0.0,0.0,0.0,0.0,0.0,0.0,0.0,0.0,0.0,0.0,0.0,0.0,0.0,0.0,0.0,0.0,0.0,0.0,0.0,0.0,0.0,0.0,0.0,0.0,0.0,0.0,0.0,0.0,0.0,0.0,0.0,0.0,0.0,0.0,0.0,0.0,0.0,0.0,0.0,0.0,0.0,0.0,0.0,0.0,0.0,0.0,0.0,0.0,0.0,0.0,0.0,0.0,0.0,0.0,0.0,0.0,0.0,0.0,0.0,0.0,0.0,0.0,0.0,0.0,0.0,0.0,0.0,0.0,0.0,0.0,0.0,0.0,0.0,0.0,0.0,0.0,0.0,0.0,0.0,0.0,0.0,0.0,0.0,0.0,0.0,0.0,0.0,0.0,0.0,0.0,0.0,0.0,0.0,0.0,0.0,0.0,0.0,0.0,0.0,0.0,0.0,0.0,0.0,0.0,0.0,0.0,0.0,0.0,0.0,0.0,0.0,0.0,0.0,0.0,0.0,0.0,0.0,0.0,0.0,0.0,0.0,0.0,0.0,0.0,0.0,0.0,0.0,0.0,0.0,0.0,0.0,0.0,0.0,0.0,0.0,0.0,0.0,0.0,0.0,0.0,0.0,0.0,0.0,0.0,0.0,0.0,0.0,0.0,0.0,0.0,0.0,0.0,0.0,0.0,0.0,0.0,0.0,0.0,0.0,0.0,0.0,0.0,0.0,3.1808,0.0,0.0,0.0,0.0,0.0,0.0,0.0,0.0,0.0,0.0,0.0,0.0,0.0,0.0,0.0,0.0,0.0,0.0,0.0,0.0,0.0,0.0,0.0,0.0,0.0,0.0,0.0,0.0,0.0,0.0,0.0,0.0,0.0,0.0,0.0,0.0,0.0,0.0,0.0,0.0,0.0,0.0,0.0,0.0,0.0,0.0,0.0,0.0,0.0,0.0,0.0,0.0,0.0,0.0,0.0,0.0,0.0,0.0,0.0,0.0,0.0,0.0,0.0,0.0,0.0,0.0,0.0,0.0,0.0,0.0,0.0,0.0,0.0,0.0,0.0,0.0,0.0,0.0,0.0,0.0,0.0,0.0,0.0,0.0,0.0,0.0,0.0,0.0,0.0,0.0,0.0,0.0,0.0,0.0,0.0,0.0,0.0,0.0,0.0,0.0,0.0,0.0,0.0,0.0,0.0,0.0,0.0,0.0,0.0,0.0,3.365,3.3989,3.3216,3.2556,3.205,0.0,0.0,0.0,0.0,0.0,0.0,0.0,0.0,0.0,0.0,0.0,0.0,0.0,0.0,0.0,0.0,0.0,0.0,0.0,0.0,0.0,0.0,0.0,0.0,0.0,0.0,0.0,0.0,0.0,0.0,0.0,0.0,0.0,0.0,0.0,0.0,0.0,0.0,0.0,0.0,0.0,0.0,0.0,0.0,0.0,0.0,0.0,0.0,0.0,0.0,0.0,0.0,0.0,0.0,0.0,0.0,0.0,0.0,0.0,0.0,0.0,0.0,0.0,0.0,0.0,0.0,0.0,0.0,0.0,0.0,0.0,0.0,0.0,0.0,0.0,0.0,0.0,0.0,0.0,0.0,0.0,0.0,0.0,0.0,0.0,0.0,0.0,0.0,0.0,0.0,0.0,0.0,0.0,0.0,0.0,0.0,0.0,0.0,0.0,0.0,0.0,0.0,0.0,0.0,0.0,0.0,0.0,0.0,0.0,0.0,0.0,0.0,3.4762,3.3785,3.2731,0.0,0.0,0.0,0.0,0.0,0.0,0.0,0.0,0.0,0.0,0.0,0.0,0.0,0.0,0.0,0.0,0.0,0.0,0.0,0.0,0.0,0.0,0.0,0.0,0.0,0.0,0.0,0.0,0.0,0.0,0.0,0.0,0.0,0.0,0.0,0.0,0.0,0.0,0.0,0.0,0.0,0.0,0.0,0.0,0.0,0.0,0.0,0.0,0.0,0.0,0.0,0.0,0.0,0.0,0.0,0.0,0.0,0.0,0.0,0.0,0.0,0.0,0.0,0.0,0.0,0.0,0.0,0.0,0.0,0.0,0.0,0.0,0.0,0.0,0.0,0.0,0.0,0.0,0.0,0.0,0.0,0.0,0.0,0.0,0.0,0.0,0.0,0.0,0.0,0.0,0.0,0.0,0.0,0.0,0.0,0.0,0.0,0.0,0.0,0.0,0.0,0.0,0.0,0.0,0.0,0.0,0.0,0.0,0.0,0.0,3.5,3.8125,3.7382,0.0,3.4606,0.0,0.0,0.0,0.0,0.0,0.0,0.0,0.0,0.0,0.0,0.0,0.0,0.0,0.0,0.0,0.0,0.0,0.0,0.0,0.0,0.0,0.0,0.0,0.0,0.0,0.0,0.0,0.0,0.0,0.0,0.0,0.0,0.0,0.0,0.0,0.0,0.0,0.0,0.0,0.0,0.0,0.0,0.0,0.0,0.0,0.0,0.0,0.0,0.0,0.0,0.0,0.0,0.0,0.0,0.0,0.0,0.0,0.0,0.0,0.0,0.0,0.0,0.0,0.0,0.0,0.0,0.0,0.0,0.0,0.0,0.0,0.0,0.0,0.0,0.0,0.0,0.0,0.0,0.0,0.0,0.0,0.0,0.0,0.0,0.0,0.0,0.0,0.0,0.0,0.0,0.0,0.0,0.0,0.0,0.0,0.0,0.0,0.0,0.0,0.0,0.0,0.0,0.0,0.0,0.0,0.0,0.0,0.0,0.0,0.0,3.6094,3.8555,3.7265,3.5976,0.0,0.0,0.0,0.0,0.0,0.0,0.0,0.0,0.0,0.0,0.0,0.0,0.0,0.0,0.0,0.0,0.0,0.0,0.0,0.0,0.0,0.0,0.0,0.0,0.0,0.0,0.0,0.0,0.0,0.0,0.0,0.0,0.0,0.0,0.0,0.0,0.0,0.0,0.0,0.0,0.0,0.0,0.0,0.0,0.0,0.0,0.0,0.0,0.0,0.0,0.0,0.0,0.0,0.0,0.0,0.0,0.0,0.0,0.0,0.0,0.0,0.0,0.0,0.0,0.0,0.0,0.0,0.0,0.0,0.0,0.0,0.0,0.0,0.0,0.0,0.0,0.0,0.0,0.0,0.0,0.0,0.0,0.0,0.0,0.0,0.0,0.0,0.0,0.0,0.0,0.0,0.0,0.0,0.0,0.0,0.0,0.0,0.0,0.0,0.0,0.0,0.0,0.0,0.0,0.0,0.0,0.0,0.0,0.0,0.0,3.5625,3.6953,3.875,3.7734,3.6328,3.4766,0.0,0.0,0.0,0.0,0.0,0.0,0.0,0.0,0.0,0.0,0.0,0.0,0.0,0.0,0.0,0.0,0.0,0.0,0.0,0.0,0.0,0.0,0.0,0.0,0.0,0.0,0.0,0.0,0.0,0.0,0.0,0.0,0.0,0.0,0.0,0.0,0.0,0.0,0.0,0.0,0.0,0.0,0.0,0.0,0.0,0.0,0.0,0.0,0.0,0.0,0.0,0.0,0.0,0.0,0.0,0.0,0.0,0.0,0.0,0.0,0.0,0.0,0.0,0.0,0.0,0.0,0.0,0.0,0.0,0.0,0.0,0.0,0.0,0.0,0.0,0.0,0.0,0.0,0.0,0.0,0.0,0.0,0.0,0.0,0.0,0.0,0.0,0.0,0.0,0.0,0.0,0.0,0.0,0.0,0.0,0.0,0.0,0.0,0.0,0.0,0.0,0.0,0.0,0.0,0.0,0.0,0.0,0.0,3.7969,3.6797,3.7226,3.9766,3.9726,3.8125,0.0,0.0,0.0,0.0,0.0,0.0,0.0,0.0,0.0,0.0,0.0,0.0,0.0,0.0,0.0,0.0,0.0,0.0,0.0,0.0,0.0,0.0,0.0,0.0,0.0,0.0,0.0,0.0,0.0,0.0,0.0,0.0,0.0,0.0,0.0,0.0,0.0,0.0,0.0,0.0,0.0,0.0,0.0,0.0,0.0,0.0,0.0,0.0,0.0,0.0,0.0,0.0,0.0,0.0,0.0,0.0,0.0,0.0,0.0,0.0,0.0,0.0,0.0,0.0,0.0,0.0,0.0,0.0,0.0,0.0,0.0,0.0,0.0,0.0,0.0,0.0,0.0,0.0,0.0,0.0,0.0,0.0,0.0,0.0,0.0,0.0,0.0,0.0,0.0,0.0,0.0,0.0,0.0,0.0,0.0,0.0,0.0,0.0,0.0,0.0,0.0,0.0,0.0,0.0,0.0,0.0,0.0,0.0,0.0,3.4414,3.5469,3.8047,4.1992,3.8594,3.6523,0.0,0.0,0.0,0.0,0.0,0.0,0.0,0.0,0.0,0.0,0.0,0.0,0.0,0.0,0.0,0.0,0.0,0.0,0.0,0.0,0.0,0.0,0.0,0.0,0.0,0.0,0.0,0.0,0.0,0.0,0.0,0.0,0.0,0.0,0.0,0.0,0.0,0.0,0.0,0.0,0.0,0.0,0.0,0.0,0.0,0.0,0.0,0.0,0.0,0.0,0.0,0.0,0.0,0.0,0.0,0.0,0.0,0.0,0.0,0.0,0.0,0.0,0.0,0.0,0.0,0.0,0.0,0.0,0.0,0.0,0.0,0.0,0.0,0.0,0.0,0.0,0.0,0.0,0.0,0.0,0.0,0.0,0.0,0.0,0.0,0.0,0.0,0.0,0.0,0.0,0.0,0.0,0.0,0.0,0.0,0.0,0.0,0.0,0.0,0.0,0.0,0.0,0.0,0.0,0.0,0.0,0.0,0.0,0.0,3.4258,0.0,3.9375,0.0,3.8125,3.5742,0.0,0.0,0.0,0.0,0.0,0.0,0.0,0.0,0.0,0.0,0.0,0.0,0.0,0.0,0.0,0.0,0.0,0.0,0.0,0.0,0.0,0.0,0.0,0.0,0.0,0.0,0.0,0.0,0.0,0.0,0.0,0.0,0.0,0.0,0.0,0.0,0.0,0.0,0.0,0.0,0.0,0.0,0.0,0.0,0.0,0.0,0.0,0.0,0.0,0.0,0.0,0.0,0.0,0.0,0.0,0.0,0.0,0.0,0.0,0.0,0.0,0.0,0.0,0.0,0.0,0.0,0.0,0.0,0.0,0.0,0.0,0.0,0.0,0.0,0.0,0.0,0.0,0.0,0.0,0.0,0.0,0.0,0.0,0.0,0.0,0.0,0.0,0.0,0.0,0.0,0.0,0.0,0.0,0.0,0.0,0.0,0.0,0.0,0.0,0.0,0.0,0.0,0.0,0.0,0.0,0.0,0.0,0.0,3.3437,3.832,4.082,4.0976,3.8828,3.8516,3.6094,0.0,0.0,0.0,0.0,0.0,0.0,0.0,0.0,0.0,0.0,0.0,0.0,0.0,0.0,0.0,0.0,0.0,0.0,0.0,0.0,0.0,0.0,0.0,0.0,0.0,0.0,0.0,0.0,0.0,0.0,0.0,0.0,0.0,0.0,0.0,0.0,0.0,0.0,0.0,0.0,0.0,0.0,0.0,0.0,0.0,0.0,0.0,0.0,0.0,0.0,0.0,0.0,0.0,0.0,0.0,0.0,0.0,0.0,0.0,0.0,0.0,0.0,0.0,0.0,0.0,0.0,0.0,0.0,0.0,0.0,0.0,0.0,0.0,0.0,0.0,0.0,0.0,0.0,0.0,0.0,0.0,0.0,0.0,0.0,0.0,0.0,0.0,0.0,0.0,0.0,0.0,0.0,0.0,0.0,0.0,0.0,0.0,0.0,0.0,0.0,0.0,0.0,0.0,0.0,0.0,0.0,0.0,0.0,0.0,3.6796,3.8164,3.9922,4.1836,3.75,3.5117,0.0,0.0,0.0,0.0,0.0,0.0,0.0,0.0,0.0,0.0,0.0,0.0,0.0,0.0,0.0,0.0,0.0,0.0,0.0,0.0,0.0,0.0,0.0,0.0,0.0,0.0,0.0,0.0,0.0,0.0,0.0,0.0,0.0,0.0,0.0,0.0,0.0,0.0,0.0,0.0,0.0,0.0,0.0,0.0,0.0,0.0,0.0,0.0,0.0,0.0,0.0,0.0,0.0,0.0,0.0,0.0,0.0,0.0,0.0,0.0,0.0,0.0,0.0,0.0,0.0,0.0,0.0,0.0,0.0,0.0,0.0,0.0,0.0,0.0,0.0,0.0,0.0,0.0,0.0,0.0,0.0,0.0,0.0,0.0,0.0,0.0,0.0,0.0,0.0,0.0,0.0,0.0,0.0,0.0,0.0,0.0,0.0,0.0,0.0,0.0,0.0,0.0,0.0,0.0,0.0,0.0,0.0,0.0,0.0,3.898,4.0349,4.1952,4.3671,3.8554,3.582,3.5742,0.0,0.0,0.0,0.0,0.0,0.0,0.0,0.0,0.0,0.0,0.0,0.0,0.0,0.0,0.0,0.0,0.0,0.0,0.0,0.0,0.0,0.0,0.0,0.0,0.0,0.0,0.0,0.0,0.0,0.0,0.0,0.0,0.0,0.0,0.0,0.0,0.0,0.0,0.0,0.0,0.0,0.0,0.0,0.0,0.0,0.0,0.0,0.0,0.0,0.0,0.0,0.0,0.0,0.0,0.0,0.0,0.0,0.0,0.0,0.0,0.0,0.0,0.0,0.0,0.0,0.0,0.0,0.0,0.0,0.0,0.0,0.0,0.0,0.0,0.0,0.0,0.0,0.0,0.0,0.0,0.0,0.0,0.0,0.0,0.0,0.0,0.0,0.0,0.0,0.0,0.0,0.0,0.0,0.0,0.0,0.0,0.0,0.0,0.0,0.0,0.0,0.0,0.0,0.0,0.0,0.0,0.0,0.0,4.3814,4.6473,4.6632,4.4171,4.1402,3.8005,0.0,0.0,0.0,0.0,0.0,0.0,0.0,0.0,0.0,0.0,0.0,0.0,0.0,0.0,0.0,0.0,0.0,0.0,0.0,0.0,0.0,0.0,0.0,0.0,0.0,0.0,0.0,0.0,0.0,0.0,0.0,0.0,0.0,0.0,0.0,0.0,0.0,0.0,0.0,0.0,0.0,0.0,0.0,0.0,0.0,0.0,0.0,0.0,0.0,0.0,0.0,0.0,0.0,0.0,0.0,0.0,0.0,0.0,0.0,0.0,0.0,0.0,0.0,0.0,0.0,0.0,0.0,0.0,0.0,0.0,0.0,0.0,0.0,0.0,0.0,0.0,0.0,0.0,0.0,0.0,0.0,0.0,0.0,0.0,0.0,0.0,0.0,0.0,0.0,0.0,0.0,0.0,0.0,0.0,0.0,0.0,0.0,0.0,0.0,0.0,0.0,0.0,0.0,0.0,0.0,0.0,0.0,0.0,0.0,4.564,4.939,5.0412,4.839,4.347,3.9994,0.0,0.0,0.0,0.0,0.0,0.0,0.0,0.0,0.0,0.0,0.0,0.0,0.0,0.0,0.0,0.0,0.0,0.0,0.0,0.0,0.0,0.0,0.0,0.0,0.0,0.0,0.0,0.0,0.0,0.0,0.0,0.0,0.0,0.0,0.0,0.0,0.0,0.0,0.0,0.0,0.0,0.0,0.0,0.0,0.0,0.0,0.0,0.0,0.0,0.0,0.0,0.0,0.0,0.0,0.0,0.0,0.0,0.0,0.0,0.0,0.0,0.0,0.0,0.0,0.0,0.0,0.0,0.0,0.0,0.0,0.0,0.0,0.0,0.0,0.0,0.0,0.0,0.0,0.0,0.0,0.0,0.0,0.0,0.0,0.0,0.0,0.0,0.0,0.0,0.0,0.0,0.0,0.0,0.0,0.0,0.0,0.0,0.0,0.0,0.0,0.0,0.0,0.0,0.0,0.0,0.0,0.0,0.0,4.5284,4.7861,5.2117,5.3528,5.178,4.6237,4.202,0.0,0.0,0.0,0.0,0.0,0.0,0.0,0.0,0.0,0.0,0.0,0.0,0.0,0.0,0.0,0.0,0.0,0.0,0.0,0.0,0.0,0.0,0.0,0.0,0.0,0.0,0.0,0.0,0.0,0.0,0.0,0.0,0.0,0.0,0.0,0.0,0.0,0.0,0.0,0.0,0.0,0.0,0.0,0.0,0.0,0.0,0.0,0.0,0.0,0.0,0.0,0.0,0.0,0.0,0.0,0.0,0.0,0.0,0.0,0.0,0.0,0.0,0.0,0.0,0.0,0.0,0.0,0.0,0.0,0.0,0.0,0.0,0.0,0.0,0.0,0.0,0.0,0.0,0.0,0.0,0.0,0.0,0.0,0.0,0.0,0.0,0.0,0.0,0.0,0.0,0.0,0.0,0.0,0.0,0.0,0.0,0.0,0.0,0.0,0.0,0.0,0.0,0.0,0.0,0.0,0.0,0.0,0.0,4.7659,5.0199,5.4298,5.5666,5.395,4.9077,4.4044,0.0,0.0,0.0,0.0,0.0,0.0,0.0,0.0,0.0,0.0,0.0,0.0,0.0,0.0,0.0,0.0,0.0,0.0,0.0,0.0,0.0,0.0,0.0,0.0,0.0,0.0,0.0,0.0,0.0,0.0,0.0,0.0,0.0,0.0,0.0,0.0,0.0,0.0,0.0,0.0,0.0,0.0,0.0,0.0,0.0,0.0,0.0,0.0,0.0,0.0,0.0,0.0,0.0,0.0,0.0,0.0,0.0,0.0,0.0,0.0,0.0,0.0,0.0,0.0,0.0,0.0,0.0,0.0,0.0,0.0,0.0,0.0,0.0,0.0,0.0,0.0,0.0,0.0,0.0,0.0,0.0,0.0,0.0,0.0,0.0,0.0,0.0,0.0,0.0,0.0,0.0,0.0,0.0,0.0,0.0,0.0,0.0,0.0,0.0,0.0,0.0,0.0,0.0,0.0,0.0,0.0,0.0,0.0,4.843,5.0989,5.3957,5.5024,5.4028,4.9658,4.5208,0.0,0.0,0.0,0.0,0.0,0.0,0.0,0.0,0.0,0.0,0.0,0.0,0.0,0.0,0.0,0.0,0.0,0.0,0.0,0.0,0.0,0.0,0.0,0.0,0.0,0.0,0.0,0.0,0.0,0.0,0.0,0.0,0.0,0.0,0.0,0.0,0.0,0.0,0.0,0.0,0.0,0.0,0.0,0.0,0.0,0.0,0.0,0.0,3.7606,0.0,0.0,0.0,0.0,0.0,0.0,0.0,0.0,0.0,0.0,0.0,0.0,0.0,0.0,0.0,0.0,0.0,0.0,0.0,0.0,0.0,0.0,0.0,0.0,0.0,0.0,0.0,0.0,0.0,0.0,0.0,0.0,0.0,0.0,0.0,0.0,0.0,0.0,0.0,0.0,0.0,0.0,0.0,0.0,0.0,0.0,0.0,0.0,0.0,0.0,0.0,0.0,0.0,0.0,0.0,0.0,0.0,0.0,0.0,4.9063,5.2356,5.4234,5.476,5.3891,5.0577,4.6367,0.0,0.0,0.0,0.0,0.0,0.0,0.0,0.0,0.0,0.0,0.0,0.0,0.0,0.0,0.0,0.0,0.0,0.0,0.0,0.0,0.0,0.0,0.0,0.0,0.0,0.0,0.0,0.0,0.0,0.0,0.0,0.0,0.0,0.0,0.0,0.0,0.0,0.0,0.0,0.0,0.0,0.0,0.0,0.0,0.0,0.0,0.0,0.0,0.0,0.0,0.0,0.0,0.0,0.0,0.0,0.0,0.0,0.0,0.0,0.0,0.0,0.0,0.0,0.0,0.0,0.0,0.0,0.0,0.0,0.0,0.0,0.0,0.0,0.0,0.0,0.0,0.0,0.0,0.0,0.0,0.0,0.0,0.0,0.0,0.0,0.0,0.0,0.0,0.0,0.0,0.0,0.0,0.0,0.0,0.0,0.0,0.0,0.0,0.0,0.0,0.0,0.0,0.0,0.0,0.0,0.0,0.0,4.533,4.9389,5.3795,5.458,5.4525,5.3704,5.1211,4.7128,4.1372,0.0,0.0,0.0,0.0,0.0,0.0,0.0,0.0,0.0,0.0,0.0,0.0,0.0,0.0,0.0,0.0,0.0,0.0,0.0,0.0,0.0,0.0,0.0,0.0,0.0,0.0,0.0,0.0,0.0,0.0,0.0,0.0,0.0,0.0,0.0,0.0,0.0,0.0,3.6345,3.6272,0.0,0.0,0.0,0.0,0.0,0.0,0.0,0.0,3.6766,0.0,0.0,0.0,0.0,0.0,0.0,0.0,0.0,0.0,0.0,0.0,0.0,0.0,0.0,0.0,0.0,0.0,0.0,0.0,0.0,0.0,0.0,0.0,0.0,0.0,0.0,0.0,0.0,0.0,0.0,0.0,0.0,0.0,0.0,0.0,0.0,0.0,0.0,0.0,0.0,0.0,0.0,0.0,0.0,0.0,0.0,0.0,0.0,0.0,0.0,0.0,0.0,0.0,0.0,0.0,0.0,4.498,4.5846,4.9044,5.4687,5.4292,5.3618,5.2812,5.0283,4.6425,4.1322,0.0,0.0,0.0,0.0,0.0,0.0,0.0,0.0,0.0,0.0,0.0,0.0,0.0,0.0,0.0,0.0,0.0,0.0,0.0,0.0,0.0,0.0,0.0,0.0,0.0,0.0,0.0,0.0,0.0,0.0,0.0,0.0,0.0,0.0,0.0,0.0,0.0,0.0,0.0,3.7557,3.7402,0.0,0.0,0.0,0.0,0.0,0.0,0.0,0.0,3.8737,0.0,0.0,0.0,0.0,0.0,0.0,0.0,0.0,0.0,0.0,0.0,0.0,0.0,0.0,0.0,0.0,0.0,0.0,0.0,0.0,0.0,0.0,0.0,0.0,0.0,0.0,0.0,0.0,0.0,0.0,0.0,0.0,0.0,0.0,0.0,0.0,0.0,0.0,0.0,0.0,0.0,0.0,0.0,0.0,0.0,0.0,0.0,0.0,0.0,0.0,0.0,0.0,0.0,0.0,0.0,4.364,4.6936,5.0445,5.4091,5.3943,5.3371,5.2494,4.919,4.5344,0.0,0.0,0.0,0.0,0.0,0.0,0.0,0.0,0.0,0.0,0.0,0.0,0.0,0.0,0.0,0.0,0.0,0.0,0.0,0.0,0.0,0.0,0.0,0.0,0.0,0.0,0.0,0.0,0.0,0.0,0.0,0.0,0.0,0.0,0.0,0.0,0.0,0.0,0.0,0.0,3.8168,3.8406,3.9702,0.0,0.0,0.0,0.0,0.0,0.0,3.8711,3.828,0.0,0.0,0.0,0.0,0.0,0.0,0.0,0.0,0.0,0.0,0.0,0.0,0.0,0.0,0.0,0.0,0.0,0.0,0.0,0.0,0.0,0.0,0.0,0.0,0.0,0.0,0.0,0.0,0.0,0.0,0.0,0.0,0.0,0.0,0.0,0.0,0.0,0.0,0.0,0.0,0.0,0.0,0.0,0.0,0.0,0.0,0.0,0.0,0.0,0.0,0.0,0.0,0.0,0.0,0.0,4.219,4.7588,5.1432,5.334,5.3568,5.318,5.218,4.8237,4.4487,0.0,0.0,0.0,0.0,0.0,0.0,0.0,0.0,0.0,0.0,0.0,0.0,0.0,0.0,0.0,0.0,0.0,0.0,0.0,0.0,0.0,0.0,0.0,0.0,0.0,0.0,0.0,0.0,0.0,0.0,0.0,0.0,0.0,0.0,0.0,0.0,0.0,0.0,0.0,0.0,0.0,4.0112,4.0946,4.0638,0.0,0.0,0.0,0.0,3.9566,3.9414,0.0,0.0,0.0,0.0,0.0,0.0,0.0,0.0,0.0,0.0,0.0,0.0,0.0,0.0,0.0,0.0,0.0,0.0,0.0,0.0,0.0,0.0,0.0,0.0,0.0,0.0,0.0,0.0,0.0,0.0,0.0,0.0,0.0,0.0,0.0,0.0,0.0,0.0,0.0,0.0,0.0,0.0,0.0,0.0,0.0,0.0,0.0,0.0,0.0,0.0,0.0,0.0,0.0,0.0,0.0,0.0,4.279,4.66,5.0083,5.3163,5.3475,5.277,5.1196,4.783,4.4419,0.0,0.0,0.0,0.0,0.0,0.0,0.0,0.0,0.0,0.0,0.0,0.0,0.0,0.0,0.0,0.0,0.0,0.0,0.0,0.0,0.0,0.0,0.0,0.0,0.0,0.0,0.0,0.0,0.0,0.0,0.0,0.0,0.0,0.0,0.0,0.0,0.0,0.0,0.0,0.0,0.0,4.3423,4.1399,4.1685,4.1536,0.0,0.0,4.3117,4.3116,4.492,0.0,0.0,0.0,0.0,0.0,0.0,0.0,0.0,0.0,0.0,0.0,0.0,0.0,0.0,0.0,0.0,0.0,0.0,0.0,0.0,0.0,0.0,0.0,0.0,0.0,0.0,0.0,0.0,0.0,0.0,0.0,0.0,0.0,0.0,0.0,0.0,0.0,0.0,0.0,0.0,0.0,0.0,0.0,0.0,0.0,0.0,0.0,0.0,0.0,0.0,0.0,0.0,0.0,0.0,0.0,3.9482,4.2242,4.7962,5.1674,5.3074,5.3299,5.279,5.1592,4.6883,4.3195,0.0,0.0,0.0,0.0,0.0,0.0,0.0,0.0,0.0,0.0,0.0,0.0,0.0,0.0,0.0,0.0,0.0,0.0,0.0,0.0,0.0,0.0,0.0,0.0,0.0,0.0,0.0,0.0,0.0,0.0,0.0,0.0,0.0,0.0,0.0,0.0,0.0,0.0,0.0,0.0,0.0,0.0,4.3937,4.4298,0.0,0.0,0.0,4.462,4.3161,0.0,0.0,0.0,0.0,0.0,0.0,0.0,0.0,0.0,0.0,0.0,0.0,0.0,0.0,0.0,0.0,0.0,0.0,0.0,0.0,0.0,0.0,0.0,0.0,0.0,0.0,0.0,0.0,0.0,0.0,0.0,0.0,0.0,0.0,0.0,0.0,0.0,0.0,0.0,0.0,0.0,0.0,0.0,0.0,0.0,0.0,0.0,0.0,0.0,0.0,0.0,0.0,0.0,0.0,0.0,0.0,0.0,4.1958,4.9203,5.3091,5.3272,5.3449,5.3066,5.191,4.7182,0.0,0.0,0.0,0.0,0.0,0.0,0.0,0.0,0.0,0.0,0.0,0.0,0.0,0.0,0.0,0.0,0.0,0.0,0.0,0.0,0.0,0.0,0.0,0.0,0.0,0.0,0.0,2.9123,0.0,0.0,0.0,0.0,0.0,0.0,0.0,0.0,0.0,0.0,0.0,0.0,0.0,0.0,4.4114,4.5652,4.6401,4.7234,0.0,0.0,4.6005,4.4542,4.632,4.5703,0.0,0.0,0.0,0.0,0.0,0.0,0.0,0.0,0.0,0.0,0.0,0.0,0.0,0.0,0.0,0.0,0.0,0.0,0.0,0.0,0.0,0.0,0.0,0.0,0.0,0.0,0.0,0.0,0.0,0.0,0.0,0.0,0.0,0.0,0.0,0.0,0.0,0.0,0.0,0.0,0.0,0.0,0.0,0.0,0.0,0.0,0.0,0.0,0.0,0.0,0.0,0.0,0.0,0.0,0.0,4.287,4.9383,5.3249,5.3976,5.4181,5.3464,5.1867,4.9989,4.6316,0.0,0.0,0.0,0.0,0.0,0.0,0.0,0.0,0.0,0.0,0.0,0.0,0.0,0.0,0.0,0.0,0.0,0.0,0.0,0.0,0.0,0.0,0.0,0.0,0.0,0.0,0.0,0.0,0.0,0.0,0.0,0.0,0.0,0.0,0.0,0.0,0.0,0.0,0.0,0.0,0.0,4.6554,4.5075,4.6972,4.913,0.0,0.0,4.7878,4.9274,5.1008,4.9648,4.2053,0.0,0.0,0.0,0.0,0.0,0.0,0.0,0.0,0.0,0.0,0.0,0.0,0.0,0.0,0.0,0.0,0.0,0.0,0.0,0.0,0.0,0.0,0.0,0.0,0.0,0.0,0.0,0.0,0.0,0.0,0.0,0.0,0.0,0.0,0.0,0.0,0.0,0.0,0.0,0.0,0.0,0.0,0.0,0.0,0.0,0.0,0.0,0.0,0.0,0.0,0.0,0.0,0.0,4.1872,4.3591,5.0168,5.4027,5.483,5.4439,5.3863,5.3218,5.0593,4.6949,0.0,0.0,0.0,0.0,0.0,0.0,0.0,0.0,0.0,0.0,0.0,0.0,0.0,0.0,0.0,0.0,0.0,0.0,0.0,0.0,0.0,0.0,0.0,0.0,0.0,0.0,0.0,0.0,3.4901,3.5283,3.5257,0.0,0.0,0.0,0.0,0.0,0.0,0.0,0.0,0.0,0.0,4.724,4.9179,5.0319,0.0,0.0,5.1604,5.0314,4.9384,4.9839,4.8046,4.136,3.9694,0.0,0.0,0.0,0.0,0.0,0.0,0.0,0.0,0.0,0.0,0.0,0.0,0.0,0.0,0.0,0.0,0.0,0.0,0.0,0.0,0.0,0.0,0.0,0.0,0.0,0.0,0.0,0.0,0.0,0.0,0.0,0.0,0.0,0.0,0.0,0.0,0.0,0.0,0.0,0.0,0.0,0.0,0.0,0.0,0.0,0.0,0.0,0.0,0.0,0.0,0.0,0.0,4.2565,4.4006,5.0665,5.4524,5.5396,5.4791,5.4371,5.4027,5.1817,4.8378,0.0,0.0,0.0,0.0,0.0,0.0,0.0,0.0,0.0,0.0,0.0,0.0,0.0,0.0,0.0,0.0,0.0,0.0,0.0,0.0,0.0,0.0,0.0,0.0,0.0,0.0,0.0,0.0,3.6774,3.6998,3.7155,0.0,0.0,0.0,0.0,0.0,0.0,0.0,0.0,0.0,0.0,4.7942,5.1166,5.1671,5.1969,5.2899,5.189,5.0486,4.9006,4.8777,4.6914,4.1484,0.0,0.0,0.0,0.0,0.0,0.0,0.0,0.0,0.0,0.0,0.0,0.0,0.0,0.0,0.0,0.0,0.0,0.0,0.0,0.0,0.0,0.0,0.0,0.0,0.0,0.0,0.0,0.0,0.0,0.0,3.4198,0.0,0.0,0.0,0.0,0.0,0.0,0.0,0.0,0.0,0.0,0.0,0.0,0.0,0.0,0.0,0.0,0.0,0.0,0.0,0.0,0.0,0.0,4.3214,4.4083,5.0735,5.4524,5.5358,5.5358,5.4976,5.4142,5.4027,5.1238,4.5397,0.0,0.0,0.0,0.0,0.0,0.0,0.0,0.0,0.0,0.0,0.0,0.0,0.0,0.0,0.0,0.0,0.0,0.0,0.0,0.0,0.0,0.0,0.0,0.0,0.0,0.0,3.4938,3.5563,3.6375,0.0,0.0,0.0,0.0,0.0,0.0,0.0,0.0,0.0,0.0,4.6385,4.8871,4.9845,4.9962,5.0392,5.1211,4.9237,4.7852,4.8592,4.873,4.7361,0.0,0.0,0.0,0.0,0.0,0.0,0.0,0.0,0.0,0.0,0.0,0.0,0.0,0.0,0.0,0.0,0.0,0.0,0.0,0.0,0.0,0.0,0.0,0.0,0.0,0.0,0.0,4.1308,4.0252,0.0,0.0,0.0,0.0,0.0,0.0,0.0,0.0,0.0,0.0,0.0,5.012,5.0732,0.0,0.0,0.0,0.0,0.0,0.0,0.0,0.0,0.0,0.0,0.0,0.0,4.4279,4.5883,5.1805,5.5091,5.5396,5.5396,5.5244,5.4982,5.4409,5.1582,4.6271,0.0,0.0,0.0,0.0,0.0,0.0,0.0,0.0,0.0,0.0,0.0,0.0,0.0,0.0,0.0,0.0,0.0,0.0,0.0,0.0,0.0,0.0,0.0,0.0,0.0,3.656,0.0,0.0,0.0,0.0,0.0,0.0,0.0,0.0,0.0,0.0,0.0,4.3352,4.6502,4.7354,4.848,5.0503,5.0736,5.1064,0.0,0.0,0.0,0.0,0.0,0.0,0.0,0.0,0.0,0.0,0.0,0.0,0.0,0.0,4.3173,3.7675,3.7776,3.8574,3.7984,0.0,0.0,0.0,0.0,0.0,0.0,0.0,0.0,0.0,0.0,0.0,0.0,0.0,0.0,4.6853,0.0,4.4914,0.0,0.0,0.0,0.0,0.0,0.0,0.0,0.0,5.3656,5.527,5.5819,5.6346,5.555,0.0,5.2724,4.8393,0.0,0.0,0.0,0.0,0.0,0.0,0.0,0.0,4.5692,4.757,5.2957,5.5823,5.5823,5.5823,5.5664,5.5396,5.4256,5.1964,4.8367,4.4508,4.1031,0.0,0.0,0.0,0.0,0.0,0.0,0.0,0.0,0.0,0.0,0.0,0.0,0.0,0.0,0.0,0.0,0.0,0.0,0.0,0.0,0.0,0.0,0.0,3.7143,0.0,0.0,0.0,0.0,0.0,0.0,0.0,0.0,0.0,4.2308,4.4015,4.6424,4.9532,4.9415,4.9607,5.1005,0.0,0.0,0.0,0.0,0.0,0.0,0.0,4.663,4.4912,4.4725,4.4997,4.5712,4.7045,4.7834,4.7545,0.0,0.0,4.1801,4.1785,4.243,4.1573,4.2058,4.2607,4.2571,4.3063,4.3289,0.0,0.0,0.0,0.0,0.0,0.0,0.0,0.0,5.4331,5.3819,0.0,5.1321,0.0,0.0,0.0,0.0,0.0,0.0,0.0,0.0,6.0775,6.2429,6.0979,6.0935,6.0488,5.9634,5.8738,5.6151,5.1813,4.6958,0.0,0.0,0.0,0.0,0.0,0.0,4.7494,4.9371,5.4148,5.6632,5.6632,5.6632,5.6243,5.5473,5.3836,5.2575,5.1614,4.8443,4.5507,4.3028,3.9778,0.0,0.0,0.0,0.0,0.0,0.0,0.0,0.0,0.0,0.0,0.0,0.0,0.0,0.0,0.0,0.0,0.0,0.0,0.0,0.0,3.6988,0.0,0.0,0.0,0.0,0.0,0.0,0.0,0.0,0.0,0.0,4.5315,4.7129,4.9571,5.1979,0.0,0.0,0.0,0.0,5.0619,4.9066,4.8809,4.8631,4.7885,4.9781,5.079,4.919,0.0,0.0,5.0675,4.9639,4.8955,4.8018,4.9997,5.0657,4.8125,4.6851,4.6048,4.5146,4.5621,4.6118,4.6168,4.7194,4.7837,6.5109,0.0,0.0,0.0,0.0,5.8049,5.9036,6.0614,6.005,5.898,5.752,5.6521,0.0,0.0,0.0,0.0,0.0,0.0,5.7401,6.0287,6.1787,6.3134,6.4442,6.4436,6.3943,6.3079,6.281,6.1422,5.8962,5.6873,5.1457,4.3056,0.0,0.0,0.0,0.0,5.0359,5.2728,5.5868,5.7542,5.7511,5.7542,5.7129,5.6282,5.5791,5.4836,5.3416,5.1849,4.958,4.6564,4.3781,0.0,0.0,0.0,0.0,0.0,0.0,0.0,0.0,0.0,0.0,0.0,0.0,0.0,0.0,0.0,0.0,0.0,0.0,0.0,3.6758,3.7334,3.8102,0.0,0.0,0.0,0.0,0.0,0.0,0.0,0.0,0.0,5.1057,5.0213,5.004,0.0,0.0,4.9609,4.9376,5.0386,5.1238,5.128,0.0,0.0,0.0,5.259,5.2391,5.2468,5.4334,5.5307,5.3971,5.4512,5.4884,5.4015,5.4517,5.4361,5.2487,5.1351,5.0203,4.8885,4.9141,4.9658,4.9676,5.0012,5.0128,7.2474,6.7585,6.4771,6.3384,6.3059,6.3232,6.4051,6.5276,6.482,6.4359,6.3935,6.2435,6.0473,5.8127,5.6472,0.0,0.0,0.0,6.1672,6.4589,6.4589,6.525,6.632,6.6359,6.5917,6.5077,6.5077,6.4308,6.2938,6.171,5.7453,5.0221,0.0,0.0,4.7881,5.0474,5.2728,5.4594,5.6778,5.7886,5.7886,5.7886,5.7504,5.6632,5.6594,5.5989,5.4676,5.4109,5.2494,4.9576,4.7019,4.3512,0.0,0.0,0.0,0.0,0.0,0.0,0.0,0.0,0.0,0.0,0.0,3.9127,3.7623,0.0,0.0,0.0,3.8731,3.8885,3.92,4.0008,0.0,0.0,0.0,0.0,0.0,0.0,0.0,4.8529,5.0685,5.2638,5.4155,5.3279,5.2791,5.3616,5.2547,5.1535,5.1211,0.0,5.3838,5.3969,5.4526,5.497,5.5087,5.4939,5.4928,5.5396,5.6012,5.6325,5.5889,5.6592,5.7003,5.663,5.6505,5.6076,5.4669,5.3734,5.2559,5.0856,5.1161,5.1729,5.1672,5.1886,5.1991,7.8369,7.7215,7.1738,6.8821,6.7821,6.775,6.8167,6.8891,6.8814,6.9629,7.0821,6.8552,6.7019,6.5936,6.2012,0.0,6.4897,6.4897,6.6122,6.8391,6.8391,6.7975,6.7212,6.7212,6.6789,6.6013,6.5981,6.5526,6.4545,6.3047,6.137,5.9466,5.6381,5.3857,5.2211,5.3626,5.4849,5.5721,5.718,5.7945,5.8021,5.8021,5.7601,5.6766,5.6645,5.6212,5.535,5.5242,5.4199,5.1968,4.9473,4.6258,4.2215,0.0,0.0,0.0,0.0,0.0,0.0,0.0,0.0,0.0,0.0,0.0,0.0,0.0,0.0,4.1812,4.2158,0.0,4.3508,4.4278,0.0,0.0,0.0,4.7213,4.9829,5.105,5.1971,5.2755,0.0,0.0,5.5517,0.0,5.6853,5.7694,5.6987,5.6045,5.5157,5.6449,5.7509,5.6643,5.6792,5.6644,5.6291,5.7059,5.7817,5.7739,5.7215,5.6758,5.6634,5.6649,5.6608,5.6517,5.6505,5.6193,5.5331,5.4435,5.3422,5.1822,5.1978,5.2433,5.2308,5.2766,5.2947,8.1293,8.0939,7.8938,7.6476,7.3822,7.3168,7.3014,7.3161,7.2545,7.2168,7.1822,7.1251,7.0174,6.8706,6.7006,6.6737,6.7507,6.7507,6.7814,6.8391,6.8391,6.8276,6.8084,6.809,6.7628,6.6865,6.6827,6.6359,6.5571,6.5186,6.3732,6.1435,6.0539,5.8622,5.5717,5.6637,5.7557,5.8381,5.8157,5.8349,5.8956,5.8956,5.8579,5.7742,5.7085,5.605,5.4612,5.3928,5.3343,5.2785,5.0376,4.767,4.4795,4.0692,0.0,0.0,0.0,0.0,0.0,0.0,0.0,0.0,0.0,4.2051,3.8854,0.0,4.2547,0.0,4.5086,4.6928,4.7817,4.8052,0.0,0.0,5.0074,5.089,5.4305,5.4899,5.5181,5.5568,5.6558,5.7419,5.8081,5.7764,5.8022,5.9393,5.7773,5.6074,5.5273,5.7156,5.8611,5.8529,5.9463,6.0309,5.9923,5.9869,5.9456,5.8909,5.8582,5.8281,5.7573,5.747,5.7271,5.6675,5.6505,5.6154,5.537,5.4513,5.3851,5.3266,5.2411,5.1589,5.1615,5.1731,5.173,8.3785,8.3401,8.2554,8.0477,7.763,7.6746,7.5976,7.5238,7.4776,7.4322,7.3822,7.3091,7.2052,7.0783,6.993,6.9507,6.9513,6.9507,6.9507,6.9507,6.9507,6.9314,6.8968,6.8968,6.8513,6.7667,6.7289,6.6865,6.6442,6.6096,6.5148,6.377,6.3732,6.2214,5.9264,5.8474,5.8131,5.8195,5.8124,5.8476,5.9275,5.9658,5.893,5.7013,5.6859,5.5485,5.2757,5.2532,5.1978,5.0917,4.9187,4.7246,4.509,4.1747,3.9396,0.0,0.0,0.0,0.0,0.0,0.0,0.0,0.0,0.0,0.0,0.0,4.5932,4.5932,4.8625,5.0548,5.1048,5.1741,5.2906,5.466,5.4443,5.5299,5.81,5.8399,5.8515,5.8776,5.918,5.9661,6.0193,5.9845,5.9724,6.0295,5.942,5.8423,5.7769,5.9034,6.0184,6.0206,6.1013,6.1345,6.0642,5.9797,5.8948,5.8208,5.7988,5.7808,5.73,5.7208,5.7063,5.6605,5.6505,5.6349,5.584,5.5098,5.4396,5.3812,5.2838,5.1982,5.1863,5.1827,5.1794,8.5978,8.517,8.4409,8.267,8.0354,7.9515,7.7907,7.5822,7.5707,7.5784,7.5899,7.4353,7.3206,7.2437,7.136,7.0898,7.0898,7.0898,7.0898,7.0898,7.0898,7.0514,6.986,6.986,6.9398,6.8545,6.7782,6.7327,6.7096,6.6397,6.5904,6.559,6.5551,6.4365,6.1935,5.9598,5.7919,5.6845,5.7689,5.8462,5.9159,5.969,5.8539,5.5738,5.6039,5.4566,5.0858,5.1285,5.0614,4.8423,4.7582,4.6586,4.5167,4.2705,4.1743,0.0,4.1204,0.0,0.0,0.0,0.0,0.0,0.0,0.0,0.0,5.0399,5.024,5.0356,5.2664,5.4241,5.4467,5.5818,5.728,5.8748,5.904,5.9707,6.1118,6.1418,6.1525,6.1614,6.1637,6.1677,6.158,6.1714,6.1368,6.0781,6.1092,6.1074,6.0678,6.1061,6.1551,6.1644,6.1664,6.1169,5.9804,5.8674,5.7816,5.7034,5.6802,5.6586,5.66,5.6516,5.6501,5.6509,5.6474,5.6546,5.6622,5.5879,5.4981,5.4435,5.3502,5.276,5.2563,5.2459,5.2546,8.7718,8.694,8.6748,8.5632,8.3901,8.2986,7.9708,7.4899,7.4238,7.4738,7.5899,7.4938,7.4392,7.4053,7.1898,7.0898,7.0898,7.0898,7.0898,7.0898,7.0898,7.0821,7.0667,7.0667,7.0244,6.9475,6.9283,6.8475,6.7096,6.6942,6.582,6.3852,6.3775,6.2858,6.1127,0.0,0.0,0.0,5.7824,5.8362,5.8439,5.7285,5.6324,5.5638,5.4517,0.0,5.0846,5.0846,5.0389,4.924,4.9009,0.0,0.0,0.0,0.0,0.0,0.0,0.0,0.0,0.0,0.0,0.0,5.0433,5.0543,5.0745,5.3015,5.4785,5.5555,5.7863,5.9935,6.1275,6.166,6.2006,6.232,6.2355,6.2574,6.3061,6.3119,6.2939,6.2366,6.2399,6.2231,6.1675,6.161,6.1641,6.1446,6.1602,6.1637,6.147,6.1555,6.1716,6.1674,6.1676,6.1328,6.0315,5.9417,5.8558,5.7777,5.6995,5.6659,5.6522,5.6482,5.6508,5.6503,5.6501,5.6741,5.7284,5.623,5.5448,5.5881,5.471,5.3422,5.276,5.2598,5.2786,8.9402,0.0,8.8209,8.6594,0.0,8.3793,8.0946,7.6553,7.6584,7.663,7.6592,7.5745,7.4892,7.4007,7.186,7.0667,7.0283,6.986,6.9898,7.0283,7.0321,7.0514,7.0898,7.0898,7.0667,7.0283,6.9898,6.9244,6.8398,6.7975,6.6859,6.5205,6.5166,6.432,6.2704,6.2243,6.1012,5.8902,5.8896,5.9127,5.9511,5.9088,5.8055,5.6401,0.0,0.0,0.0,0.0,0.0,0.0,0.0,0.0,0.0,0.0,0.0,5.1125,5.0471,5.0587,5.1818,5.3087,5.4164,5.4977,5.6203,5.6242,5.4593,5.7132,5.9209,6.005,6.132,6.2391,6.316,6.3314,6.3314,6.3314,6.3314,6.3368,6.3439,6.3461,6.332,6.309,6.279,6.2468,6.2143,6.1836,6.1716,6.1719,6.1719,6.1719,6.1719,6.1719,6.1719,6.1719,6.1719,6.1407,6.0588,6.008,5.9261,5.8128,5.7465,5.7048,5.6559,5.6484,5.6479,5.6522,5.6839,5.7283,5.7563,5.7323,5.6851,5.6074,5.5489,5.471,5.3578,5.3227,5.35,9.0816,8.9855,8.9171,8.7218,8.4486,8.4178,8.2178,7.9177,0.0,0.0,0.0,7.6322,7.5245,7.3853,7.2129,7.1014,7.036,6.9622,6.9699,7.0353,7.0206,7.0514,7.1091,7.0975,7.0898,7.086,7.0244,6.986,6.9667,6.8968,6.8205,6.7404,6.7321,6.6551,6.5089,6.4045,6.2858,6.1473,6.0319,6.0012,6.055,6.0979,5.994,5.7286,5.7627,5.6511,5.378,5.2967,5.2202,5.1438,5.1515,5.1323,5.0822,5.1438,5.2554,5.4164,5.4318,5.5203,5.7324,5.8396,5.9319,6.0121,6.1473,6.1435,5.9319,6.1243,6.282,6.3468,6.366,6.3775,6.3775,6.3775,6.3737,6.3737,6.3737,6.3775,6.3775,6.3775,6.3833,6.3706,6.3313,6.2821,6.2644,6.2198,6.1826,6.1716,6.1719,6.1719,6.1719,6.1719,6.1719,6.1719,6.1719,6.1446,6.0822,6.0432,5.9846,5.8675,5.805,5.7553,5.6944,5.6598,5.6562,5.6777,5.734,5.7818,5.8133,5.854,5.818,5.6111,5.6035,5.6037,5.4591,5.4123,5.4435,9.1364,8.9893,8.9778,8.9056,8.7872,8.6401,8.4247,8.1631,7.96,7.7746,7.6169,7.6053,7.5861,7.5553,7.3892,7.3084,7.2969,7.2853,7.2853,0.0,7.2206,7.1905,7.1975,7.1245,7.0898,7.0898,7.0783,7.036,6.9744,6.959,6.9084,6.8314,6.8237,6.7705,6.6705,6.5205,6.432,6.4051,6.1781,6.0319,5.9704,5.8401,5.7863,5.805,5.6819,5.5901,5.5362,5.5247,5.4785,5.401,5.4631,5.5285,5.5901,5.5978,5.6863,5.8434,5.8588,5.8781,5.9127,6.0633,6.1897,6.266,6.2968,6.2968,6.266,6.3583,6.432,6.4436,6.5051,6.5551,6.5513,6.5474,6.5397,6.548,6.5513,6.5519,6.5436,6.5436,6.5185,6.4541,6.4502,6.3894,6.291,6.2574,6.2282,6.1862,6.1758,6.1719,6.1719,6.1719,6.1719,6.1719,6.1719,6.1641,6.1407,6.0861,6.0354,6.0119,5.8754,5.7935,5.7669,5.7137,5.6951,5.75,5.7835,5.8424,5.9502,5.9387,5.8657,5.744,5.6933,5.6271,5.5214,5.4981,5.5253,9.255,9.1471,9.1432,9.0637,8.9316,8.7572,8.5363,8.2939,8.1285,7.9369,7.7445,7.7361,7.6592,7.5245,7.4046,7.2969,7.2091,7.2091,7.2084,7.2091,7.2136,7.2444,7.286,7.2514,7.2315,7.2322,7.2315,7.2122,7.1738,7.1283,7.0629,6.9738,6.8853,6.8199,6.7782,6.7045,6.6205,6.5282,6.2787,6.1287,6.0902,6.0171,5.9748,5.9665,5.8858,5.8478,5.8478,5.8011,5.7588,5.7242,5.8011,5.8248,5.7742,5.8132,5.8704,5.9435,5.9511,5.9704,6.0165,6.1402,6.2672,6.3852,6.3545,6.3737,6.4628,6.4628,6.482,6.5243,6.5711,6.5904,6.5904,6.5904,6.5904,6.5904,6.5904,6.5904,6.5904,6.5904,6.575,6.5345,6.4994,6.4546,6.3992,6.3202,6.2689,6.241,6.207,6.1719,6.1719,6.1719,6.1719,6.1719,6.1719,6.1719,6.168,6.1407,6.0939,6.051,5.9729,5.9065,5.8675,5.8103,5.8113,5.8434,5.8862,5.9423,6.0304,6.0407,5.9631,5.8063,5.7908,5.7245,5.5877,5.5526,5.6035,9.3359,9.2403,9.2634,9.1591,8.9745,8.834,8.6305,8.3926,8.3002,8.1293,7.9238,7.8684,7.7407,7.5592,7.4707,7.3514,7.2206,7.2052,7.1975,7.1822,7.2437,7.3053,7.343,7.3507,7.3507,7.3507,7.3507,7.3507,7.3392,7.2822,7.2052,7.1091,6.9513,6.8699,6.8699,6.8507,6.7744,6.6397,6.4326,6.2941,6.2403,6.221,6.1826,6.1396,6.0979,6.0902,6.1018,6.0281,5.9781,5.9819,6.0435,6.021,5.9011,5.9473,5.9781,5.9781,5.9819,6.0281,6.1281,6.1973,6.3089,6.4705,6.4089,6.416,6.532,6.5013,6.4974,6.5743,6.5865,6.5904,6.5936,6.609,6.6096,6.5942,6.5904,6.5904,6.5904,6.5904,6.5904,6.5807,6.5379,6.5059,6.479,6.3816,6.2935,6.2598,6.2109,6.1758,6.1719,6.1719,6.1719,6.1719,6.1719,6.1719,6.1719,6.168,6.1407,6.0744,6.0471,6.0041,5.9495,5.9259,5.9229,5.9327,5.9883,6.0345,6.0599,6.1059,6.0477,5.8716,5.847,5.8141,5.6113,5.6035,5.6466,9.3059,9.1739,9.2411,9.1276,8.9108,8.8791,8.728,8.5004,8.404,8.2653,8.093,7.9245,7.8407,7.8061,7.7246,7.6284,7.5399,7.5515,7.5053,7.4276,7.443,7.4123,7.3623,7.3546,7.3507,7.3546,7.3584,7.3661,7.3623,7.343,7.293,7.1982,7.0398,6.959,6.9507,6.8853,6.8353,6.816,6.7167,6.5513,6.332,6.248,6.2403,6.3045,6.1589,6.1172,6.1864,6.1172,6.0704,6.0671,6.0748,6.0748,6.055,6.0627,6.0666,6.0666,6.0666,6.1358,6.2852,6.3121,6.3935,6.5474,6.5013,6.4589,6.482,6.4705,6.4974,6.5743,6.5904,6.5981,6.5942,6.6558,6.6635,6.6096,6.5942,6.5904,6.5904,6.5904,6.5904,6.5904,6.5787,6.5569,6.4962,6.4151,6.3214,6.2213,6.1875,6.1719,6.1719,6.1719,6.1719,6.1719,6.1719,6.1719,6.1719,6.1719,6.1602,6.1485,6.0939,6.051,6.0196,5.9767,5.9341,6.021,6.0383,6.0742,6.121,6.1587,6.095,5.9259,5.8689,5.8375,5.6855,5.6427,5.6505,9.3438,9.2395,9.2735,9.136,8.9114,8.8915,8.7734,8.5844,8.4956,8.4124,8.3362,8.1675,8.0036,7.8484,7.8138,7.7292,7.6092,7.7022,7.6438,7.493,7.5745,7.5784,7.5053,7.4976,7.4976,7.4976,7.4976,7.4969,7.4899,7.4469,7.3783,7.2937,7.1745,7.1174,7.1129,7.0321,6.9667,6.9167,6.8821,6.7859,6.6353,6.5013,6.4243,6.3968,6.2897,6.2166,6.2095,6.1749,6.1325,6.0902,6.1287,6.1325,6.0819,6.0781,6.0781,6.0781,6.0781,6.155,6.316,6.3782,6.482,6.6474,6.6282,6.609,6.6013,6.5166,6.5128,6.6359,6.6596,6.6789,6.7244,6.7205,6.6981,6.6596,6.6211,6.5904,6.5904,6.5904,6.5904,6.5904,6.5904,6.5842,6.5474,6.4614,6.3572,6.2599,6.2109,6.1758,6.1719,6.1719,6.1719,6.1719,6.1719,6.1719,6.1719,6.1719,6.1719,6.1641,6.1446,6.1172,6.1055,6.0938,6.0782,6.1094,6.108,6.1208,6.1561,6.1551,6.1074,5.9508,5.7959,5.7245,5.6622,5.6505,5.6505,9.3727,9.3024,9.276,9.1371,8.9426,8.933,8.8226,8.6481,8.5786,8.5239,8.4638,8.3249,8.1564,7.9752,7.916,7.812,7.7042,7.799,7.7436,7.5736,7.6953,7.7176,7.6399,7.6361,7.6361,7.6322,7.6092,7.5976,7.5899,7.5123,7.4392,7.3776,7.2976,7.2552,7.2482,7.1668,7.1091,7.0744,7.0321,6.9821,6.9283,6.8013,6.6628,6.5359,6.4474,6.3743,6.3172,6.314,6.2864,6.2287,6.2364,6.2249,6.1897,6.1402,6.1248,6.1473,6.1473,6.2127,6.3583,6.4474,6.559,6.6904,6.7096,6.7096,6.6904,6.5974,6.6013,6.7205,6.7443,6.7744,6.8167,6.7821,6.7398,6.7096,6.6404,6.5904,6.5904,6.5904,6.5904,6.5904,6.5904,6.5878,6.5693,6.493,6.4008,6.3107,6.2462,6.1914,6.1758,6.1719,6.1719,6.1719,6.1719,6.1719,6.1719,6.1719,6.1719,6.1719,6.1641,6.1641,6.1719,6.168,6.168,6.1448,6.1626,6.171,6.1709,6.1522,6.1015,5.9321,5.7774,5.6644,5.6509,5.6507,5.6507,9.3727,9.2915,9.2102,9.1213,9.0316,9.027,8.8917,8.666,8.6551,8.5589,8.4112,8.3178,8.2596,8.221,8.0705,7.9471,7.8731,7.8669,7.8209,7.7362,7.8067,7.8023,7.7284,7.7246,7.7253,7.7068,7.6445,7.6053,7.5938,7.5161,7.47,7.4623,7.3853,7.343,7.3315,7.2591,7.2514,7.2853,7.1668,7.1206,7.1745,7.1052,6.9436,6.7327,6.6205,6.5743,6.5634,6.5673,6.5634,6.5596,6.4051,6.3589,6.4128,6.2903,6.2403,6.3045,6.3198,6.3583,6.4551,6.5397,6.632,6.7019,6.7404,6.7212,6.7359,6.7135,6.7398,6.8237,6.8353,6.8391,6.8545,6.8276,6.7821,6.7135,6.6365,6.5942,6.5904,6.5904,6.5904,6.5904,6.5884,6.5793,6.5319,6.5102,6.4446,6.3559,6.3008,6.2657,6.1992,6.1797,6.1719,6.1719,6.1719,6.1719,6.1719,6.1719,6.1719,6.1719,6.1719,6.1719,6.1719,6.1719,6.1719,6.1719,6.1727,6.1692,6.1692,6.1321,6.0622,5.9278,5.7654,5.6691,5.65,5.6476,5.6509,9.423,9.2915,9.2064,9.1213,9.0439,9.04,8.924,8.7493,8.7415,8.6442,8.4952,8.4481,8.4082,8.3482,8.2322,8.0962,7.9716,8.0067,7.9597,7.8518,7.9107,7.9015,7.8322,7.8164,7.7827,7.7357,7.7006,7.6515,7.6015,7.5668,7.5553,7.5399,7.4661,7.4276,7.4123,7.343,7.3199,7.3392,7.2815,7.2738,7.2976,7.2706,7.1822,7.0366,6.8475,6.7244,6.6673,6.6173,6.5904,6.5904,6.4743,6.4282,6.4512,6.4051,6.382,6.4128,6.4666,6.532,6.6167,6.7013,6.7853,6.8706,6.9244,6.9206,6.8859,6.8783,6.8898,6.9122,6.9237,6.9436,6.9552,6.859,6.7475,6.709,6.6404,6.5904,6.5904,6.5904,6.5904,6.5884,6.5961,6.6003,6.5927,6.5594,6.5073,6.4668,6.3711,6.2969,6.254,6.2109,6.1758,6.1719,6.1719,6.1719,6.1719,6.1719,6.1719,6.1719,6.1719,6.1719,6.1719,6.1719,6.1719,6.1719,6.1719,6.1719,6.1648,6.0765,6.0078,5.9329,5.7714,5.6841,5.6493,5.6478,5.65,9.4539,9.3031,9.2373,9.1638,9.0826,9.0516,8.9782,8.866,8.8111,8.7222,8.6177,8.5565,8.4985,8.4405,8.3592,8.2587,8.1367,8.134,8.0708,7.975,8.0186,8.0134,7.9632,7.9198,7.8753,7.8206,7.7586,7.6902,7.6164,7.6048,7.6048,7.601,7.5471,7.5201,7.5047,7.4354,7.4046,7.4238,7.3826,7.3626,7.3812,7.3637,7.3252,7.2503,7.095,6.9475,6.8366,6.7782,6.7359,6.7013,6.6013,6.5166,6.4705,6.4859,6.5013,6.5089,6.5551,6.6134,6.6712,6.7513,6.8321,6.9206,6.9975,7.0244,6.9744,6.9706,6.9706,6.9667,6.9398,6.9629,6.9925,6.8706,6.7545,6.7366,6.6551,6.6058,6.625,6.6051,6.5947,6.5961,6.6047,6.6239,6.6459,6.6076,6.5743,6.5655,6.4492,6.3789,6.3047,6.254,6.1953,6.1758,6.1719,6.1719,6.1719,6.1719,6.1719,6.172,6.1719,6.1719,6.1758,6.1758,6.1758,6.1719,6.1719,6.1719,6.1258,6.0333,5.9683,5.9179,5.8161,5.7142,5.6813,5.6475,5.6499,9.4501,9.3147,9.2992,9.2296,9.1484,9.0633,9.0323,8.9898,8.8537,8.7725,8.7222,8.6061,8.541,8.514,8.4443,8.4018,8.3605,8.2354,8.1555,8.1317,8.134,8.1267,8.1074,8.0334,7.9895,7.9657,7.8282,7.7118,7.6333,7.6326,7.6294,7.6224,7.614,7.6011,7.6147,7.5253,7.5227,7.5471,7.4461,7.4087,7.4619,7.4102,7.3717,7.3611,7.3332,7.2451,7.095,7.0751,7.0244,6.9436,6.7975,6.6359,6.5282,6.5667,6.6019,6.6134,6.6134,6.6096,6.6295,6.7109,6.8039,6.8648,6.9366,6.9886,6.9617,6.9649,6.9726,6.9655,6.9149,6.8969,6.9682,6.9123,6.8449,6.8257,6.7077,6.6545,6.6795,6.6404,6.5964,6.609,6.6138,6.6248,6.648,6.6495,6.6301,6.5843,6.5429,6.4842,6.3633,6.3086,6.2579,6.2031,6.176,6.1723,6.1721,6.172,6.172,6.172,6.1719,6.1719,6.1914,6.1953,6.1953,6.1914,6.1758,6.1719,6.1563,6.0717,6.0059,5.9409,5.8395,5.7539,5.7145,5.6819,5.653,9.4276,9.3611,9.1909,9.1445,9.1484,9.0168,8.9588,8.9433,8.8343,8.757,8.699,8.6448,8.6223,8.5984,8.5333,8.4946,8.483,8.376,8.2941,8.2471,8.2335,8.202,8.1459,8.1117,8.0599,7.9909,7.8906,7.7948,7.7208,7.7054,7.6816,7.6314,7.6198,7.6198,7.616,7.5382,7.5311,7.596,7.5053,7.4893,7.5657,7.5483,7.5097,7.4546,7.4487,7.3902,7.2861,7.2191,7.1405,7.0552,6.9475,6.8359,6.759,6.8052,6.8513,6.8558,6.9098,6.9393,6.9438,6.9592,6.9611,6.9649,7.0189,6.9996,6.9225,6.9495,6.9765,6.9803,6.9572,6.9784,7.033,6.9962,6.9262,6.8627,6.8081,6.771,6.7827,6.7282,6.6609,6.6281,6.623,6.6379,6.664,6.6727,6.6616,6.6401,6.5978,6.5274,6.4805,6.3754,6.3008,6.2618,6.2232,6.1771,6.1693,6.1695,6.1697,6.1809,6.1883,6.1841,6.1996,6.2187,6.2187,6.2031,6.1836,6.1719,6.1563,6.1176,6.0481,5.978,5.8888,5.8157,5.7539,5.7147,5.6866,9.4779,9.4005,9.2141,9.1251,9.1058,8.9433,8.8931,8.8976,8.7918,8.726,8.7067,8.6719,8.6603,8.6487,8.6029,8.5797,8.572,8.5217,8.4559,8.3753,8.3367,8.2819,8.2,8.1575,8.095,8.0067,7.9256,7.8445,7.7595,7.7248,7.6823,7.6353,7.6276,7.6276,7.6237,7.5774,7.5774,7.6115,7.571,7.5697,7.6115,7.6205,7.5941,7.5498,7.5408,7.4983,7.4185,7.3549,7.2641,7.1563,7.0671,6.9977,6.9515,6.9907,7.0208,7.0337,7.0671,7.0972,7.105,7.0888,7.1106,7.0913,7.099,7.0681,6.9717,6.9711,6.9402,6.9402,6.9364,6.9755,7.0397,7.0608,7.0118,6.9677,6.8936,6.8631,6.8505,6.8295,6.7719,6.7161,6.6831,6.6822,6.6847,6.6805,6.6805,6.6729,6.6418,6.5872,6.5559,6.4662,6.3998,6.3295,6.2636,6.221,6.1781,6.1705,6.1708,6.1898,6.2087,6.2083,6.2119,6.2386,6.2462,6.207,6.1797,6.1758,6.1602,6.1407,6.0865,6.0119,5.9456,5.904,5.8468,5.7615,5.7226,9.5661,9.416,9.3186,9.1832,9.0439,8.873,8.8466,8.886,8.7383,8.7028,8.7415,8.6912,8.6603,8.6603,8.6487,8.6448,8.6564,8.6448,8.5991,8.5256,8.4598,8.3824,8.2703,8.1878,8.1092,8.0363,7.9628,7.8745,7.7888,7.7269,7.6519,7.6579,7.6573,7.6514,7.6534,7.6436,7.6308,7.6335,7.6216,7.6114,7.6262,7.625,7.6244,7.6224,7.6141,7.5787,7.5168,7.4899,7.4128,7.2617,7.1717,7.1325,7.1221,7.1228,7.1331,7.137,7.1311,7.1388,7.1311,7.1561,7.1683,7.2075,7.176,7.1163,7.0872,7.0023,6.9444,6.9245,6.9245,6.9488,7.0301,7.0859,7.1197,7.1037,6.9882,6.909,6.8803,6.9282,6.891,6.8059,6.7702,6.7499,6.7159,6.7012,6.6974,6.686,6.6784,6.6432,6.5964,6.5338,6.4716,6.4053,6.3426,6.2764,6.2374,6.2182,6.2144,6.187,6.2177,6.2366,6.2361,6.255,6.2505,6.2075,6.1798,6.1758,6.1641,6.1485,6.125,6.0743,6.0274,5.9962,5.9347,5.8464,5.7923,9.4624,9.4005,9.1948,9.1174,9.0981,8.8924,8.8389,8.8937,8.7345,8.6758,8.6874,8.6719,8.6603,8.6603,8.6603,8.6603,8.6603,8.6603,8.6564,8.63,8.6068,8.4675,8.298,8.1929,8.142,8.111,8.0801,8.0066,7.8718,7.8332,7.7906,7.737,7.737,7.737,7.7293,7.6751,7.6403,7.6287,7.5722,7.5788,7.6291,7.6356,7.6362,7.6368,7.6356,7.624,7.6026,7.6014,7.5187,7.3555,7.3157,7.3009,7.3015,7.3015,7.3021,7.3021,7.3052,7.3076,7.3082,7.3112,7.3019,7.2639,7.2936,7.26,7.1363,7.1479,7.1131,7.0899,7.1131,7.1562,7.1849,7.2098,7.1993,7.1358,7.0789,7.0247,6.9799,6.972,6.9545,6.8843,6.8666,6.8369,6.797,6.7762,6.7566,6.7177,6.6983,6.6905,6.6594,6.5969,6.5345,6.5032,6.4446,6.3628,6.3005,6.2811,6.2499,6.203,6.2224,6.2766,6.2722,6.2793,6.2438,6.1967,6.1804,6.1723,6.172,6.1602,6.1368,6.1172,6.0821,6.0393,6.0041,5.9388,5.8921,9.4346,9.3534,9.1716,9.1019,9.0865,8.8808,8.8389,8.8737,8.7383,8.6835,8.699,8.6719,8.6603,8.6603,8.6603,8.6603,8.6603,8.6603,8.6603,8.6532,8.6145,8.5178,8.3902,8.3012,8.2393,8.2006,8.1652,8.0724,7.9608,7.9183,7.8718,7.8332,7.8254,7.8061,7.7641,7.7254,7.6751,7.6403,7.5895,7.5933,7.6365,7.6403,7.6397,7.6403,7.6403,7.6403,7.6403,7.6365,7.5865,7.5032,7.4827,7.4827,7.4827,7.4827,7.4827,7.4827,7.4863,7.4914,7.4881,7.491,7.4734,7.4309,7.4463,7.3883,7.3071,7.2839,7.2297,7.1988,7.2336,7.2584,7.2759,7.3025,7.2995,7.2628,7.2109,7.1551,7.0733,7.0576,7.0283,6.9876,6.9611,6.9378,6.878,6.8666,6.8432,6.8082,6.7731,6.7614,6.738,6.664,6.5976,6.5625,6.5312,6.4531,6.3906,6.3633,6.3164,6.2656,6.2344,6.289,6.2884,6.2839,6.2288,6.1855,6.1771,6.1727,6.1725,6.1721,6.1641,6.1407,6.1094,6.0939,6.0665,6.0274,5.9806,9.4346,9.2908,9.2064,9.1251,9.0439,8.8885,8.873,8.8931,8.7731,8.7422,8.7763,8.7112,8.6874,8.6726,8.6719,8.6603,8.6603,8.6603,8.6603,8.641,8.6023,8.5449,8.5256,8.4211,8.3515,8.2935,8.2116,8.1304,8.0453,7.9685,7.9299,7.9144,7.9105,7.8757,7.837,7.8061,7.7525,7.6984,7.6674,7.6558,7.6635,7.6519,7.6403,7.6403,7.6403,7.6403,7.6403,7.6403,7.6276,7.6359,7.6403,7.6237,7.6281,7.632,7.6281,7.6198,7.6115,7.616,7.6281,7.6127,7.6249,7.6016,7.5469,7.527,7.485,7.4038,7.3303,7.3032,7.2955,7.3295,7.3316,7.3876,7.4045,7.3799,7.327,7.2609,7.1991,7.1594,7.1216,7.0826,7.0668,7.0314,6.9837,6.957,6.9492,6.8828,6.8515,6.8203,6.7969,6.7422,6.664,6.5976,6.5703,6.543,6.4883,6.4453,6.3906,6.3359,6.2851,6.289,6.2773,6.2571,6.2059,6.1705,6.1702,6.1697,6.1691,6.1727,6.1723,6.1682,6.1411,6.1526,6.1563,6.1016,6.0548,9.3333,9.2946,9.2057,9.16,9.1251,9.0323,8.9936,9.0052,8.9047,8.866,8.8698,8.8002,8.7647,8.7531,8.6951,8.6603,8.6603,8.6603,8.6603,8.6564,8.6494,8.6332,8.5984,8.4908,8.4102,8.3747,8.367,8.2703,8.1536,8.1033,8.0608,8.0072,7.9995,7.9834,7.9608,7.9415,7.926,7.8486,7.779,7.7403,7.7177,7.6751,7.6442,7.6403,7.6403,7.6403,7.6403,7.6403,7.6403,7.6403,7.6403,7.6403,7.6403,7.6403,7.6403,7.6403,7.6403,7.6403,7.6403,7.6403,7.6403,7.6365,7.6204,7.6127,7.6127,7.574,7.5121,7.4889,7.5165,7.5103,7.4817,7.4989,7.4964,7.453,7.4128,7.3849,7.3539,7.241,7.1617,7.1554,7.148,7.122,7.0547,7.0469,7.0195,6.9648,6.9258,6.8867,6.8515,6.8164,6.7461,6.6758,6.6562,6.6289,6.5625,6.5156,6.4648,6.4101,6.3594,6.3164,6.3047,6.2693,6.23,6.1985,6.171,6.1706,6.17,6.1697,6.1695,6.1692,6.1726,6.1722,6.1642,6.133,6.125,9.2992,9.2908,9.2064,9.1716,9.1561,9.0787,9.0633,9.071,8.9704,8.944,8.9549,8.8853,8.8312,8.7879,8.7415,8.7028,8.668,8.6603,8.6603,8.6603,8.6603,8.6603,8.6526,8.5759,8.514,8.4753,8.4637,8.3863,8.2935,8.2277,8.1852,8.1387,8.1039,8.053,8.026,8.0266,7.9724,7.9067,7.8564,7.8138,7.7674,7.7287,7.6751,7.6481,7.6403,7.6403,7.6403,7.6403,7.6403,7.6403,7.6403,7.6403,7.6403,7.6403,7.6403,7.6403,7.6403,7.6403,7.6403,7.6403,7.6403,7.6403,7.6403,7.6403,7.6403,7.6403,7.621,7.5923,7.6095,7.6292,7.6148,7.6195,7.595,7.5608,7.5135,7.496,7.4701,7.3399,7.2335,7.2354,7.2138,7.1791,7.1445,7.1289,7.1211,7.0781,7.0195,6.9844,6.9648,6.9219,6.8398,6.7812,6.7617,6.7187,6.6406,6.582,6.5351,6.4844,6.4336,6.3984,6.375,6.3281,6.2772,6.2342,6.1871,6.1711,6.1707,6.1705,6.1702,6.1697,6.1692,6.1726,6.1682,6.1526,6.1486,9.3101,9.2946,9.2218,9.1909,9.1754,9.1019,9.1019,9.1367,9.0207,9.0091,9.0323,8.975,8.8931,8.8227,8.7918,8.7415,8.6796,8.6603,8.6603,8.6603,8.6603,8.6603,8.6487,8.6184,8.5913,8.5488,8.5526,8.4985,8.4211,8.3599,8.3167,8.2902,8.2316,8.1652,8.0885,8.0575,8.042,7.9724,7.9337,7.895,7.8332,7.8061,7.7558,7.7177,7.7016,7.7061,7.7022,7.6868,7.6674,7.6591,7.6481,7.6403,7.6403,7.6403,7.6403,7.6403,7.6403,7.6403,7.6403,7.6403,7.6403,7.6403,7.6403,7.6403,7.6403,7.6403,7.6365,7.6422,7.6507,7.6682,7.6968,7.6977,7.7021,7.6814,7.6258,7.5984,7.567,7.446,7.3774,7.3359,7.2851,7.2344,7.2148,7.1992,7.1992,7.1914,7.1289,7.0781,7.0547,7.0195,6.9336,6.8711,6.8476,6.8008,6.7265,6.6562,6.6055,6.5781,6.5234,6.4922,6.4609,6.4258,6.3711,6.2539,6.2068,6.1953,6.1797,6.1712,6.1709,6.1703,6.1699,6.1697,6.1691,6.1723,6.1722,9.3611,9.2992,9.2869,9.2799,9.2637,9.1832,9.1522,9.1638,9.1329,9.1329,9.1329,9.0555,8.9743,8.9008,8.815,8.7415,8.6796,8.6603,8.6603,8.6603,8.6603,8.6603,8.6526,8.6107,8.5952,8.63,8.63,8.5836,8.5294,8.4946,8.4327,8.394,8.3631,8.3051,8.2471,8.2277,8.1813,8.0962,8.0459,7.9995,7.9492,7.895,7.8602,7.8293,7.8254,7.8332,7.8254,7.7829,7.7486,7.7409,7.679,7.6519,7.6597,7.6597,7.6519,7.6403,7.6403,7.6403,7.6403,7.6403,7.6403,7.6403,7.6403,7.6403,7.6403,7.6409,7.6393,7.6485,7.666,7.6835,7.6975,7.7103,7.7187,7.7109,7.7031,7.6836,7.664,7.5976,7.5078,7.4609,7.3828,7.3086,7.2969,7.2734,7.2539,7.2422,7.207,7.1406,7.0937,7.0664,7.0195,6.9687,6.9258,6.875,6.8125,6.7383,6.6836,6.6758,6.6367,6.6015,6.5703,6.5469,6.4765,6.3633,6.2734,6.2422,6.2187,6.1875,6.1715,6.1712,6.1709,6.1705,6.17,6.1694,6.169,9.3998,9.3611,9.3178,9.276,9.2296,9.1909,9.1716,9.1716,9.1716,9.1716,9.16,9.1213,9.0594,8.9782,8.8969,8.7886,8.6912,8.6603,8.6603,8.6603,8.6603,8.6603,8.6603,8.6107,8.6223,8.6487,8.6564,8.6416,8.5945,8.5443,8.514,8.4753,8.4366,8.3863,8.3554,8.3405,8.2973,8.2238,8.1736,8.1078,8.0266,7.9453,7.9067,7.9028,7.9067,7.9028,7.895,7.868,7.837,7.8293,7.7983,7.7796,7.7719,7.7641,7.7332,7.6635,7.6481,7.6442,7.6403,7.6403,7.6403,7.6403,7.6403,7.6403,7.6403,7.6382,7.6477,7.6631,7.6764,7.6961,7.7097,7.7187,7.7187,7.7226,7.7226,7.7226,7.7109,7.6797,7.6328,7.5703,7.4805,7.418,7.3906,7.3633,7.3164,7.289,7.2734,7.2148,7.1484,7.125,7.1055,7.039,6.9922,6.9414,6.8906,6.8359,6.7695,6.7578,6.7461,6.7109,6.668,6.6367,6.5703,6.4765,6.4023,6.3125,6.2578,6.2226,6.1992,6.1756,6.1793,6.1829,6.1746,6.1702,6.17,9.4353,9.4121,9.3495,9.276,9.2025,9.1754,9.1716,9.1716,9.1716,9.1716,9.1716,9.1638,9.1174,9.0284,8.9317,8.8196,8.7028,8.6912,8.6719,8.6951,8.6951,8.6874,8.6642,8.6603,8.6564,8.6526,8.6255,8.6455,8.6371,8.5945,8.5643,8.5449,8.4869,8.4482,8.4405,8.4327,8.3786,8.3328,8.3012,8.22,8.0923,7.9956,7.9492,7.9531,7.9531,7.9608,7.9724,7.9376,7.926,7.9144,7.9028,7.8912,7.8989,7.8989,7.8332,7.7216,7.6939,7.6945,7.6945,7.6707,7.6784,7.6823,7.6519,7.6403,7.6426,7.646,7.6541,7.6796,7.7174,7.7393,7.7539,7.75,7.75,7.7461,7.7383,7.7226,7.7226,7.7109,7.707,7.6445,7.5664,7.5234,7.4922,7.4336,7.3828,7.375,7.3555,7.3086,7.2461,7.2305,7.1953,7.1094,7.0469,7.0,6.9609,6.9336,6.875,6.8437,6.832,6.8086,6.7617,6.7148,6.6484,6.582,6.4765,6.3945,6.3281,6.2851,6.289,6.2695,6.2225,6.2068,6.2221,6.1945,6.1709,9.4895,9.4199,9.4082,9.3572,9.276,9.2064,9.1716,9.1716,9.1716,9.1716,9.1716,9.1677,9.1213,9.0246,8.8892,8.8505,8.8234,8.7538,8.7228,8.7686,8.7725,8.7415,8.6803,8.6603,8.6758,8.6642,8.5984,8.5945,8.6371,8.6416,8.6377,8.6255,8.61,8.5945,8.5217,8.5178,8.4753,8.4095,8.394,8.3438,8.2477,8.162,8.1265,8.1149,8.1188,8.1072,8.0917,8.0453,8.0188,7.9989,7.9415,7.9105,7.9028,7.9028,7.895,7.8757,7.868,7.8686,7.8439,7.7914,7.76,7.7456,7.7036,7.6531,7.6682,7.6774,7.6858,7.6954,7.7571,7.7946,7.8008,7.8242,7.832,7.8125,7.7812,7.75,7.7344,7.7539,7.75,7.7187,7.6406,7.6133,7.5859,7.5156,7.4531,7.4492,7.4336,7.3867,7.3398,7.3086,7.2812,7.1953,7.1211,7.0703,7.0547,7.0234,6.9805,6.9375,6.9219,6.9023,6.8476,6.7969,6.7539,6.6797,6.5781,6.5,6.4492,6.418,6.4023,6.3633,6.3125,6.293,6.2889,6.2461,6.207,9.4547,9.4237,9.474,9.4191,9.3024,9.2598,9.2141,9.1754,9.1716,9.1716,9.1716,9.1716,9.1213,9.0362,8.9549,8.924,8.9047,8.835,8.8234,8.8544,8.8582,8.8389,8.8079,8.7609,8.7338,8.7106,8.6564,8.63,8.6564,8.668,8.6603,8.6603,8.6603,8.6416,8.6029,8.6023,8.5526,8.4908,8.4366,8.394,8.3521,8.3128,8.2703,8.2277,8.2703,8.2387,8.1729,8.1774,8.1349,8.1072,8.053,8.0414,8.042,8.0433,8.0469,8.0555,8.0521,8.0094,7.9207,7.8781,7.8637,7.8572,7.8234,7.8093,7.7948,7.7714,7.7587,7.7717,7.7637,7.7812,7.8047,7.8242,7.8437,7.8437,7.8476,7.8242,7.8008,7.793,7.793,7.7539,7.7226,7.6953,7.668,7.625,7.5625,7.5351,7.5195,7.4844,7.418,7.3515,7.3203,7.2851,7.2109,7.1484,7.1406,7.125,7.0781,7.039,7.0195,6.9922,6.9258,6.875,6.8633,6.8203,6.7383,6.6601,6.5898,6.5039,6.4492,6.4219,6.3984,6.3867,6.375,6.3633,6.332,9.4647,9.4652,9.5272,9.4539,9.3031,9.2992,9.2489,9.1754,9.1716,9.1716,9.1716,9.1677,9.1329,9.0749,9.0478,9.013,8.9866,8.9402,8.9363,8.944,8.9479,8.9317,8.9008,8.8544,8.846,8.8227,8.7693,8.7422,8.7345,8.7299,8.7228,8.6642,8.6603,8.6758,8.6835,8.6603,8.6145,8.5681,8.4869,8.4482,8.4327,8.4102,8.367,8.3483,8.356,8.3476,8.2509,8.2703,8.2664,8.2355,8.2193,8.2186,8.2187,8.2233,8.2298,8.2275,8.2206,8.1578,8.0657,8.0088,7.9725,7.9587,7.9364,7.9007,7.912,7.8844,7.8639,7.8649,7.8705,7.8398,7.832,7.8945,7.9219,7.9453,7.9414,7.918,7.8984,7.8828,7.8711,7.8476,7.8125,7.7695,7.7461,7.7226,7.6836,7.6367,7.6055,7.5781,7.5078,7.4219,7.3867,7.3633,7.332,7.2617,7.2305,7.2148,7.1719,7.1484,7.1289,7.0976,7.043,7.039,7.0469,6.9805,6.8945,6.8594,6.8125,6.6445,6.4961,6.5078,6.5117,6.4765,6.4609,6.4531,6.4336,9.5815,9.5689,9.5563,9.46,9.3045,9.2992,9.2528,9.175,9.1761,9.1754,9.1716,9.1716,9.1638,9.1406,9.0903,9.0865,9.1367,8.9898,8.9898,9.0168,9.0284,8.9975,8.9743,8.9743,8.9704,8.9163,8.8698,8.8705,8.8873,8.8572,8.7881,8.6842,8.7094,8.7306,8.7436,8.7351,8.697,8.6505,8.5846,8.5371,8.512,8.4714,8.4198,8.4102,8.4095,8.4018,8.3902,8.394,8.3869,8.3637,8.3578,8.3657,8.3591,8.3665,8.3732,8.3697,8.3384,8.2961,8.2504,8.1335,8.059,8.0318,8.0062,7.9814,7.9931,7.9658,7.9546,7.9609,7.9648,8.0039,8.0312,8.0742,8.0429,8.039,8.0234,8.0039,7.9844,7.9687,7.957,7.9414,7.9023,7.8476,7.8203,7.7969,7.7422,7.6875,7.6719,7.6445,7.5898,7.5156,7.4726,7.4492,7.4414,7.3945,7.3281,7.3008,7.2812,7.2617,7.2383,7.2187,7.1836,7.1914,7.1875,7.1406,7.0586,7.0469,7.0156,6.8633,6.7422,6.6719,6.6289,6.5937,6.5469,6.5234,6.4961,9.6297,9.6693,9.6653,9.5567,9.3968,9.4346,9.3483,9.2076,9.2295,9.2173,9.1691,9.1716,9.1716,9.1568,9.1445,9.1367,9.16,9.1174,9.1001,9.1058,9.1135,9.0981,9.0787,9.0435,9.0207,8.9886,8.9531,8.9208,8.9138,8.946,8.9099,8.8422,8.8248,8.8422,8.8565,8.8481,8.8153,8.7662,8.7263,8.6929,8.6201,8.5951,8.5467,8.4875,8.5488,8.4946,8.4366,8.4637,8.4499,8.4372,8.4328,8.4432,8.4568,8.4595,8.464,8.4734,8.4358,8.4242,8.3999,8.2687,8.159,8.1483,8.1316,8.1101,8.0943,8.0722,8.0502,8.0508,8.0351,8.0586,8.0273,8.0625,8.0898,8.1015,8.1015,8.082,8.0664,8.0547,8.0195,7.9922,7.9531,7.9062,7.8867,7.8711,7.8047,7.7383,7.7265,7.7109,7.668,7.6328,7.6015,7.5625,7.5547,7.5195,7.457,7.4258,7.3984,7.375,7.3515,7.3398,7.3203,7.2851,7.2734,7.2422,7.2305,7.2109,7.164,7.0742,6.9687,6.8476,6.7656,6.7109,6.664,6.6133,6.6015,9.7444,9.7721,9.7756,9.6659,9.5112,9.5183,9.4158,9.2627,9.2555,9.2429,9.1802,9.1779,9.1785,9.181,9.1754,9.1778,9.1832,9.1733,9.1754,9.1766,9.1777,9.1808,9.1575,9.1327,9.1029,9.0728,9.0456,9.0175,9.0286,9.0213,9.0217,9.0227,9.0102,9.0066,8.9833,8.9878,8.9557,8.8891,8.8608,8.8229,8.7357,8.7461,8.6928,8.62,8.6621,8.6394,8.5628,8.5639,8.5641,8.5407,8.527,8.5272,8.5318,8.5341,8.5383,8.5385,8.5312,8.5195,8.4844,8.4017,8.2865,8.2597,8.257,8.2415,8.2109,8.1679,8.1406,8.1367,8.0859,8.0469,8.0508,8.1211,8.1523,8.164,8.1797,8.1679,8.1523,8.1367,8.082,8.039,7.9922,7.9453,7.9219,7.9023,7.8789,7.8359,7.8476,7.8398,7.8203,7.7851,7.7578,7.7148,7.6758,7.6328,7.582,7.5351,7.4922,7.4883,7.4687,7.4765,7.457,7.4258,7.4531,7.5078,7.4805,7.3984,7.332,7.2812,7.1445,6.9883,6.9219,6.8633,6.8086,6.7734,6.7734,9.9558,9.8809,9.8729,9.7661,9.5955,9.5073,9.4169,9.305,9.2472,9.2145,9.2039,9.1952,9.1967,9.2009,9.1928,9.1952,9.2014,9.2051,9.2055,9.2035,9.2009,9.2071,9.2028,9.1891,9.1694,9.1976,9.1704,9.1516,9.1759,9.1594,9.1725,9.1782,9.157,9.141,9.0914,9.0879,9.0418,8.9723,8.9625,8.9076,8.8583,8.8849,8.8201,8.7682,8.7783,8.7619,8.695,8.695,8.6907,8.6529,8.666,8.673,8.6732,8.6783,8.6888,8.7068,8.6484,8.6211,8.6054,8.5273,8.4531,8.3711,8.3554,8.332,8.2656,8.2344,8.2461,8.2578,8.2304,8.2187,8.2226,8.2226,8.2265,8.2148,8.2265,8.2265,8.207,8.1953,8.1406,8.0937,8.0273,7.9726,7.9453,7.9297,7.9297,7.9297,7.957,7.9531,7.9297,7.8828,7.8359,7.7969,7.7461,7.7109,7.6601,7.6211,7.5898,7.5859,7.5742,7.5625,7.5937,7.6055,7.6601,7.75,7.7109,7.6133,7.5586,7.5117,7.3633,7.2226,7.0976,7.0273,6.9687,6.9375,6.9375,9.9764,9.8939,9.8939,9.823,9.7034,9.6014,9.4508,9.2888,9.2324,9.2122,9.2115,9.2051,9.2059,9.2086,9.2047,9.2078,9.2122,9.2122,9.2122,9.2132,9.2143,9.2119,9.2129,9.2156,9.2139,9.2126,9.2122,9.2143,9.2034,9.2242,9.2281,9.2292,9.2321,9.2255,9.2009,9.1899,9.1617,9.0876,9.064,9.0315,8.9448,8.9554,8.9452,8.868,8.8992,8.8761,8.802,8.8263,8.8134,8.7555,8.7679,8.7874,8.7617,8.75,8.75,8.7539,8.707,8.707,8.7031,8.6601,8.5937,8.5078,8.4414,8.4297,8.4023,8.4023,8.4023,8.3945,8.3789,8.3594,8.332,8.3164,8.3008,8.2383,8.2304,8.2304,8.2226,8.2187,8.1953,8.1484,8.0898,8.0586,8.0351,8.0,7.9922,7.9726,7.9922,7.9765,7.9531,7.8945,7.8437,7.8203,7.7851,7.7656,7.7344,7.7031,7.6953,7.6953,7.6562,7.6094,7.6601,7.7383,7.7695,7.8047,7.8203,7.8242,7.7305,7.6445,7.5859,7.4726,7.3476,7.2148,7.1367,7.1133,7.1133,10.0508,9.9492,9.9453,9.8594,9.7265,9.6157,9.4466,9.2662,9.2352,9.2288,9.2244,9.2217,9.2222,9.2232,9.2212,9.223,9.2283,9.229,9.229,9.2288,9.229,9.2303,9.2299,9.2265,9.2311,9.2265,9.2265,9.2295,9.2307,9.2421,9.2474,9.2484,9.2578,9.2493,9.2449,9.2378,9.2304,9.1797,9.164,9.1284,9.0726,9.0522,9.0471,8.9975,8.9844,8.9803,8.929,8.9179,8.9297,8.8594,8.8515,8.8789,8.8398,8.8086,8.7969,8.7929,8.7617,8.7539,8.7422,8.7422,8.6679,8.6054,8.5586,8.5195,8.5,8.4726,8.4726,8.4765,8.4961,8.4648,8.4179,8.4062,8.3711,8.3047,8.2773,8.2812,8.2383,8.2383,8.2304,8.1875,8.1406,8.125,8.0937,8.0898,8.0625,8.039,8.0195,7.9961,7.9726,7.914,7.8672,7.8476,7.8281,7.8125,7.8047,7.793,7.789,7.8047,7.7539,7.6914,7.7578,7.8398,7.8515,7.8437,7.8203,7.8047,7.8164,7.7695,7.6914,7.6484,7.6015,7.4648,7.3242,7.3008,7.3164,10.1875,10.0429,10.0312,9.8828,9.6679,9.5781,9.4336,9.2695,9.2617,9.2578,9.2578,9.2428,9.243,9.2533,9.2433,9.2435,9.2539,9.2539,9.2539,9.2539,9.25,9.2539,9.2539,9.2539,9.25,9.2539,9.2539,9.2461,9.2578,9.2539,9.2578,9.2578,9.2578,9.2578,9.2578,9.2539,9.25,9.2344,9.2265,9.1914,9.1484,9.1875,9.1406,9.0976,9.0859,9.0703,9.0351,9.0195,9.0078,8.9883,8.9922,8.9961,8.9687,8.9179,8.8906,8.8554,8.8047,8.7929,8.7851,8.7929,8.7656,8.7187,8.664,8.5898,8.5508,8.5469,8.5547,8.5508,8.5547,8.5273,8.4961,8.4765,8.457,8.4101,8.3711,8.3281,8.2656,8.2461,8.2422,8.207,8.1601,8.1211,8.0625,8.0547,8.0937,8.0429,8.0117,8.0,7.9765,7.9375,7.8984,7.8906,7.875,7.8633,7.8515,7.8086,7.8008,7.7851,7.832,7.8086,7.8789,7.9062,7.9023,7.8672,7.7969,7.7812,7.8164,7.8164,7.7773,7.7461,7.7031,7.6953,7.5508,7.539,7.539,10.1875,10.0351,10.0312,9.914,9.7383,9.6445,9.5156,9.3594,9.289,9.2578,9.2578,9.2578,9.2656,9.2578,9.2537,9.2578,9.2578,9.2578,9.2578,9.2578,9.2578,9.2578,9.2578,9.2578,9.2578,9.2578,9.2578,9.2578,9.2578,9.2578,9.2578,9.2578,9.2578,9.2578,9.2578,9.2578,9.2578,9.2578,9.2578,9.2383,9.2226,9.2422,9.2031,9.1953,9.1875,9.164,9.1172,9.1445,9.1211,9.0312,9.0703,9.0742,8.9961,8.9765,8.9648,8.9609,8.9375,8.9297,8.9179,8.8711,8.8359,8.8203,8.7578,8.7187,8.6797,8.664,8.6601,8.6406,8.6328,8.6211,8.5937,8.5703,8.5351,8.4883,8.4492,8.4101,8.3515,8.3203,8.3086,8.25,8.1992,8.1601,8.0976,8.082,8.1054,8.0429,8.0078,8.0039,7.9765,7.9375,7.9062,7.8984,7.8476,7.8164,7.793,7.7539,7.7617,7.7734,7.8242,7.8633,7.8828,7.9023,7.9219,7.8867,7.8086,7.8047,7.8398,7.8164,7.7695,7.7578,7.7265,7.7734,7.7969,7.7539,7.7344,10.1601,10.0312,9.9922,9.8984,9.7695,9.6836,9.5664,9.4453,9.3867,9.3633,9.3594,9.3281,9.3125,9.3047,9.2812,9.2578,9.2578,9.2578,9.2578,9.2578,9.2578,9.2578,9.2578,9.2578,9.2578,9.2578,9.2578,9.2578,9.2578,9.2578,9.2578,9.2578,9.2578,9.2578,9.2578,9.2578,9.2578,9.2578,9.2578,9.2578,9.2578,9.2578,9.2578,9.2578,9.2578,9.2226,9.1914,9.2461,9.1875,9.1172,9.1719,9.1601,9.0937,9.0781,9.0234,9.0117,8.9883,8.9844,8.9726,8.9492,8.9258,8.9023,8.8476,8.8086,8.7773,8.75,8.7383,8.7265,8.7304,8.7265,8.6953,8.664,8.6054,8.5508,8.5273,8.5,8.4609,8.4179,8.3633,8.3047,8.2617,8.2304,8.1953,8.1679,8.1445,8.1172,8.082,8.0508,8.0,7.9297,7.8906,7.8672,7.8008,7.7422,7.7265,7.7461,7.7734,7.7969,7.8242,7.8594,7.8789,7.8515,7.832,7.8281,7.8125,7.8203,7.8242,7.7812,7.7383,7.7422,7.7851,7.8555,7.8867,7.8672,7.8633,10.1172,10.0234,9.9297,9.8437,9.7656,9.6953,9.6172,9.5429,9.539,9.5234,9.4844,9.4179,9.3789,9.3554,9.2969,9.2617,9.2578,9.2578,9.2578,9.2578,9.2578,9.2578,9.2578,9.2578,9.2578,9.2578,9.2578,9.2578,9.2578,9.2578,9.2578,9.2578,9.2578,9.2578,9.2578,9.2578,9.2578,9.2578,9.2578,9.2578,9.2578,9.2578,9.2578,9.2578,9.2578,9.2539,9.2539,9.2578,9.2578,9.2578,9.2539,9.2461,9.2148,9.1797,9.1054,9.0742,9.0625,9.0625,9.0547,9.0312,9.0156,8.9844,8.9336,8.8789,8.8437,8.7851,8.7539,8.75,8.7461,8.7461,8.7226,8.7109,8.6758,8.6445,8.6211,8.5781,8.5273,8.4844,8.4297,8.3789,8.3633,8.3242,8.2695,8.2383,8.2148,8.1992,8.164,8.1172,8.0703,7.9844,7.9297,7.8906,7.8398,7.7969,7.7695,7.789,7.8086,7.832,7.8437,7.8359,7.8359,7.789,7.7265,7.7461,7.7734,7.789,7.7851,7.75,7.75,7.8047,7.8594,7.9453,7.9609,7.914,7.9726,10.1679,10.0156,9.8672,9.789,9.7695,9.75,9.7265,9.7109,9.7109,9.5976,9.4453,9.4062,9.3945,9.3867,9.3125,9.2695,9.2617,9.2578,9.2578,9.2578,9.2578,9.2578,9.2578,9.2578,9.2578,9.2578,9.2578,9.2578,9.2578,9.2578,9.2617,9.2617,9.2617,9.2617,9.2695,9.2695,9.2578,9.2578,9.2578,9.2656,9.2734,9.2656,9.2578,9.2578,9.2578,9.2578,9.2578,9.2578,9.2578,9.2578,9.2578,9.2578,9.2539,9.2383,9.2187,9.1992,9.1797,9.1719,9.1562,9.125,9.1015,9.0742,9.0195,8.9453,8.8711,8.7929,8.7539,8.7539,8.75,8.75,8.75,8.7461,8.7422,8.7265,8.7109,8.6523,8.5937,8.5469,8.4961,8.4726,8.4609,8.414,8.3515,8.3125,8.289,8.2578,8.2265,8.1953,8.1797,8.1211,8.0508,8.0078,7.9492,7.9023,7.8594,7.832,7.8555,7.8437,7.8437,7.8281,7.8047,7.7773,7.75,7.7305,7.7344,7.7539,7.7578,7.7383,7.7578,7.8125,7.8437,7.8906,7.8906,7.8515,7.9844,10.0859,10.0117,9.8867,9.8047,9.7734,9.7695,9.75,9.7265,9.7539,9.6719,9.5234,9.5039,9.4844,9.4414,9.3554,9.2812,9.2695,9.2578,9.2578,9.2578,9.2578,9.2578,9.2578,9.2578,9.2578,9.2578,9.2578,9.2578,9.2578,9.2656,9.2656,9.2969,9.2929,9.2773,9.2969,9.289,9.2617,9.2578,9.2578,9.2773,9.2929,9.2851,9.2617,9.2578,9.2617,9.2617,9.2578,9.2578,9.2578,9.2578,9.2578,9.2969,9.2969,9.2773,9.2578,9.25,9.25,9.2578,9.2461,9.2187,9.1797,9.1523,9.1054,9.0273,9.0078,8.9336,8.8203,8.8047,8.7578,8.75,8.75,8.7461,8.7461,8.7383,8.7344,8.7031,8.6797,8.6562,8.6015,8.5547,8.5351,8.5078,8.4531,8.414,8.3945,8.3906,8.3515,8.332,8.3086,8.2617,8.1914,8.125,8.0742,7.9961,7.9258,7.9023,7.9023,7.8867,7.8594,7.8515,7.8476,7.8086,7.7773,7.7617,7.7422,7.7265,7.7265,7.7265,7.7226,7.7539,7.7812,7.8086,7.8047,7.8281,7.9453,9.9687,10.0117,9.9336,9.8554,9.789,9.7734,9.7344,9.6875,9.7383,9.7344,9.664,9.6562,9.6094,9.5156,9.4453,9.3476,9.2929,9.2969,9.2851,9.2617,9.2578,9.2578,9.2578,9.2578,9.2578,9.2578,9.2578,9.2578,9.2578,9.2656,9.2929,9.3515,9.3476,9.3125,9.3437,9.3242,9.2851,9.2656,9.2734,9.3125,9.3164,9.3125,9.2851,9.2695,9.2656,9.2617,9.2578,9.2734,9.2734,9.2929,9.3125,9.3554,9.375,9.3594,9.3164,9.3047,9.2969,9.2851,9.2617,9.25,9.2461,9.2304,9.1758,9.1367,9.1133,9.0429,8.9258,8.8594,8.8086,8.7734,8.7734,8.7578,8.7578,8.7539,8.7539,8.75,8.7461,8.7383,8.6875,8.6328,8.6133,8.5898,8.5469,8.5117,8.5,8.5,8.4961,8.4922,8.4648,8.4023,8.332,8.2656,8.2031,8.1172,8.0117,7.9844,7.9805,7.9375,7.918,7.9062,7.8906,7.8711,7.8437,7.7969,7.7773,7.7695,7.7461,7.7383,7.7344,7.7422,7.7773,7.8203,7.8398,7.8672,7.914,10.0156,10.0234,9.9375,9.8867,9.8633,9.8008,9.7617,9.75,9.7617,9.7578,9.7422,9.7344,9.6679,9.5195,9.5078,9.4297,9.3203,9.332,9.3008,9.2695,9.2617,9.2617,9.2773,9.3047,9.2695,9.2773,9.289,9.2656,9.2851,9.2812,9.3086,9.3867,9.3867,9.3711,9.3789,9.3554,9.3242,9.289,9.2812,9.3164,9.3515,9.3437,9.3203,9.3086,9.2969,9.2734,9.2734,9.332,9.3554,9.3867,9.4219,9.457,9.4687,9.457,9.414,9.375,9.3633,9.3398,9.3203,9.289,9.2851,9.2773,9.2265,9.1914,9.164,9.1328,9.039,8.9804,8.9258,8.8672,8.8476,8.7969,8.7812,8.7695,8.7656,8.7578,8.75,8.7461,8.7265,8.707,8.7031,8.664,8.6133,8.5859,8.5664,8.5586,8.5312,8.5273,8.5351,8.5,8.4648,8.4023,8.3359,8.2187,8.1094,8.0781,8.0625,8.0156,7.9805,7.9805,7.9726,7.9531,7.918,7.8711,7.8515,7.8476,7.8164,7.8203,7.7851,7.8008,7.8203,7.8476,7.875,7.9101,7.957]}]]